[[{"header":{"parameterUnit":"m.s-1","parameterCategory":1,"la1":30.6,"la2":28.766,"lo1":-90.7593,"lo2":-88.6598,"dx":0.0162,"dy":0.0183,"nx":116,"ny":114,"refTime":"2022-12-03T06:00:00:Z","depth":0,"parameterNumber":2,"parameterNumberName":"U-component_of_WINDS"},"data":[0.0,0.0,0.0,0.0,0.0,0.0,0.0,0.0,0.0,0.0,0.0,0.0,0.0,0.0,0.0,0.0,0.0,0.0,0.0,0.0,0.0,0.0,0.0,0.0,0.0,0.0,0.0,0.0,0.0,0.0,0.0,0.0,0.0,0.0,0.0,0.0,0.0,0.0,0.0,0.0,0.0,0.0,0.0,0.0,0.0,0.0,0.0,0.0,0.0,0.0,0.0,0.0,0.0,0.0,0.0,0.0,0.0,0.0,0.0,0.0,0.0,0.0,0.0,0.0,0.0,0.0,0.0,0.0,0.0,0.0,0.0,0.0,0.0,0.0,0.0,0.0,0.0,0.0,0.0,0.0,0.0,0.0,0.0,0.0,0.0,0.0,0.0,0.0,0.0,0.0,0.0,0.0,0.0,0.0,0.0,0.0,0.0,0.0,0.0,0.0,0.0,0.0,0.0,0.0,0.0,0.0,0.0,0.0,0.0,0.0,0.0,0.0,0.0,0.0,0.0,0.0,0.0,0.0,0.0,0.0,0.0,0.0,0.0,0.0,0.0,0.0,0.0,0.0,0.0,0.0,0.0,0.0,0.0,0.0,0.0,0.0,0.0,0.0,0.0,0.0,0.0,0.0,0.0,0.0,0.0,0.0,0.0,0.0,0.0,0.0,0.0,0.0,0.0,0.0,0.0,0.0,0.0,0.0,0.0,0.0,0.0,0.0,0.0,0.0,0.0,0.0,0.0,0.0,0.0,0.0,0.0,0.0,0.0,0.0,0.0,0.0,0.0,0.0,0.0,0.0,0.0,0.0,0.0,0.0,0.0,0.0,0.0,0.0,0.0,0.0,0.0,0.0,0.0,0.0,0.0,0.0,0.0,0.0,0.0,0.0,0.0,0.0,0.0,0.0,0.0,0.0,0.0,0.0,0.0,0.0,0.0,0.0,0.0,0.0,0.0,0.0,0.0,0.0,0.0,0.0,0.0,0.0,0.0,0.0,0.0,0.0,0.0,0.0,0.0,0.0,0.0,0.0,0.0,0.0,0.0,0.0,0.0,0.0,0.0,0.0,0.0,0.0,0.0,0.0,0.0,0.0,0.0,0.0,0.0,0.0,0.0,0.0,0.0,0.0,0.0,0.0,0.0,0.0,0.0,0.0,0.0,0.0,0.0,0.0,0.0,0.0,0.0,0.0,0.0,0.0,0.0,0.0,0.0,0.0,0.0,0.0,0.0,0.0,0.0,0.0,0.0,0.0,0.0,0.0,0.0,0.0,0.0,0.0,0.0,0.0,0.0,0.0,0.0,0.0,0.0,0.0,0.0,0.0,0.0,0.0,0.0,0.0,0.0,0.0,0.0,0.0,0.0,0.0,0.0,0.0,0.0,0.0,0.0,0.0,0.0,0.0,0.0,0.0,0.0,0.0,0.0,0.0,0.0,0.0,0.0,0.0,0.0,0.0,0.0,0.0,0.0,0.0,0.0,0.0,0.0,0.0,0.0,0.0,0.0,0.0,0.0,0.0,0.0,0.0,0.0,0.0,0.0,0.0,0.0,0.0,0.0,0.0,0.0,0.0,0.0,0.0,0.0,0.0,0.0,0.0,0.0,0.0,0.0,0.0,0.0,0.0,0.0,0.0,0.0,0.0,0.0,0.0,0.0,0.0,0.0,0.0,0.0,0.0,0.0,0.0,0.0,0.0,0.0,0.0,0.0,0.0,0.0,0.0,0.0,0.0,0.0,0.0,0.0,0.0,0.0,0.0,0.0,0.0,0.0,0.0,0.0,0.0,0.0,0.0,0.0,0.0,0.0,0.0,0.0,0.0,0.0,0.0,0.0,0.0,0.0,0.0,0.0,0.0,0.0,0.0,0.0,0.0,0.0,0.0,0.0,0.0,0.0,0.0,0.0,0.0,0.0,0.0,0.0,0.0,0.0,0.0,0.0,0.0,0.0,0.0,0.0,0.0,0.0,0.0,0.0,0.0,0.0,0.0,0.0,0.0,0.0,0.0,0.0,0.0,0.0,0.0,0.0,0.0,0.0,0.0,0.0,0.0,0.0,0.0,0.0,0.0,0.0,0.0,0.0,0.0,0.0,0.0,0.0,0.0,0.0,0.0,0.0,0.0,0.0,0.0,0.0,0.0,0.0,0.0,0.0,0.0,0.0,0.0,0.0,0.0,0.0,0.0,0.0,0.0,0.0,0.0,0.0,0.0,0.0,0.0,0.0,0.0,0.0,0.0,0.0,0.0,0.0,0.0,0.0,0.0,0.0,0.0,0.0,0.0,0.0,0.0,0.0,0.0,0.0,0.0,0.0,0.0,0.0,0.0,0.0,0.0,0.0,0.0,0.0,0.0,0.0,0.0,0.0,0.0,0.0,0.0,0.0,0.0,0.0,0.0,0.0,0.0,0.0,0.0,0.0,0.0,0.0,0.0,0.0,0.0,0.0,0.0,0.0,0.0,0.0,0.0,0.0,0.0,0.0,0.0,0.0,0.0,0.0,0.0,0.0,0.0,0.0,0.0,0.0,0.0,0.0,0.0,0.0,0.0,0.0,0.0,0.0,0.0,0.0,0.0,0.0,0.0,0.0,0.0,0.0,0.0,0.0,0.0,0.0,0.0,0.0,0.0,0.0,0.0,0.0,0.0,0.0,0.0,0.0,0.0,0.0,0.0,0.0,0.0,0.0,0.0,0.0,0.0,0.0,0.0,0.0,0.0,0.0,0.0,0.0,0.0,0.0,0.0,0.0,0.0,0.0,0.0,0.0,0.0,0.0,0.0,0.0,0.0,0.0,0.0,0.0,0.0,0.0,0.0,0.0,0.0,0.0,0.0,0.0,0.0,0.0,0.0,0.0,0.0,0.0,0.0,0.0,0.0,0.0,0.0,0.0,0.0,0.0,0.0,0.0,0.0,0.0,0.0,0.0,0.0,0.0,0.0,0.0,0.0,0.0,0.0,0.0,0.0,0.0,0.0,0.0,0.0,0.0,0.0,0.0,0.0,0.0,0.0,0.0,0.0,0.0,0.0,0.0,0.0,0.0,0.0,0.0,0.0,0.0,0.0,0.0,0.0,0.0,0.0,0.0,0.0,0.0,0.0,0.0,0.0,0.0,0.0,0.0,0.0,0.0,0.0,0.0,0.0,0.0,0.0,0.0,0.0,0.0,0.0,0.0,0.0,0.0,0.0,0.0,0.0,0.0,0.0,0.0,0.0,0.0,0.0,0.0,0.0,0.0,0.0,0.0,0.0,0.0,0.0,0.0,0.0,0.0,0.0,0.0,0.0,0.0,0.0,0.0,0.0,0.0,0.0,0.0,0.0,0.0,0.0,0.0,0.0,0.0,0.0,0.0,0.0,0.0,0.0,0.0,0.0,0.0,0.0,0.0,0.0,0.0,0.0,0.0,0.0,0.0,0.0,0.0,0.0,0.0,0.0,0.0,0.0,0.0,0.0,0.0,0.0,0.0,0.0,0.0,0.0,0.0,0.0,0.0,0.0,0.0,0.0,0.0,0.0,0.0,0.0,0.0,0.0,0.0,0.0,0.0,0.0,0.0,0.0,0.0,0.0,0.0,0.0,0.0,0.0,0.0,0.0,0.0,0.0,0.0,0.0,0.0,0.0,0.0,0.0,0.0,0.0,0.0,0.0,0.0,0.0,0.0,0.0,0.0,0.0,0.0,0.0,0.0,0.0,0.0,0.0,0.0,0.0,0.0,0.0,0.0,0.0,0.0,0.0,0.0,0.0,0.0,0.0,0.0,0.0,0.0,0.0,0.0,0.0,0.0,0.0,0.0,0.0,0.0,0.0,0.0,0.0,0.0,0.0,0.0,0.0,0.0,0.0,0.0,0.0,0.0,0.0,0.0,0.0,0.0,0.0,0.0,0.0,0.0,0.0,0.0,0.0,0.0,0.0,0.0,0.0,0.0,0.0,0.0,0.0,0.0,0.0,0.0,0.0,0.0,0.0,0.0,0.0,0.0,0.0,0.0,0.0,0.0,0.0,0.0,0.0,0.0,0.0,0.0,0.0,0.0,0.0,0.0,0.0,0.0,0.0,0.0,0.0,0.0,0.0,0.0,0.0,0.0,0.0,0.0,0.0,0.0,0.0,0.0,0.0,0.0,0.0,0.0,0.0,0.0,0.0,0.0,0.0,0.0,0.0,0.0,0.0,0.0,0.0,0.0,0.0,0.0,0.0,0.0,0.0,0.0,0.0,0.0,0.0,0.0,0.0,0.0,0.0,0.0,0.0,0.0,0.0,0.0,0.0,0.0,0.0,0.0,0.0,0.0,0.0,0.0,0.0,0.0,0.0,0.0,0.0,0.0,0.0,0.0,0.0,0.0,0.0,0.0,0.0,0.0,0.0,0.0,0.0,0.0,0.0,0.0,0.0,0.0,0.0,0.0,0.0,0.0,0.0,0.0,0.0,0.0,0.0,0.0,0.0,0.0,0.0,0.0,0.0,0.0,0.0,0.0,0.0,0.0,0.0,0.0,0.0,0.0,0.0,0.0,0.0,0.0,0.0,0.0,0.0,0.0,0.0,0.0,0.0,0.0,0.0,0.0,0.0,0.0,0.0,0.0,0.0,0.0,0.0,0.0,0.0,0.0,0.0,0.0,0.0,0.0,0.0,0.0,0.0,0.0,0.0,0.0,0.0,0.0,0.0,0.0,0.0,0.0,0.0,0.0,0.0,0.0,0.0,0.0,0.0,0.0,0.0,0.0,0.0,0.0,0.0,0.0,0.0,0.0,0.0,0.0,0.0,0.0,0.0,0.0,0.0,0.0,0.0,0.0,0.0,0.0,0.0,0.0,0.0,0.0,0.0,0.0,0.0,0.0,0.0,0.0,0.0,0.0,0.0,0.0,0.0,0.0,0.0,0.0,0.0,0.0,0.0,0.0,0.0,0.0,0.0,0.0,0.0,0.0,0.0,0.0,0.0,0.0,0.0,0.0,0.0,0.0,0.0,0.0,0.0,0.0,0.0,0.0,0.0,0.0,0.0,0.0,0.0,0.0,0.0,0.0,0.0,0.0,0.0,0.0,0.0,0.0,0.0,0.0,0.0,0.0,0.0,0.0,0.0,0.0,0.0,0.0,0.0,0.0,0.0,0.0,0.0,0.0,0.0,0.0,0.0,0.0,0.0,0.0,0.0,0.0,0.0,0.0,0.0,0.0,0.0,0.0,0.0,0.0,0.0,0.0,0.0,0.0,0.0,0.0,0.0,0.0,0.0,0.0,0.0,0.0,0.0,0.0,0.0,0.0,0.0,0.0,0.0,0.0,0.0,0.0,0.0,0.0,0.0,0.0,0.0,0.0,0.0,0.0,0.0,0.0,0.0,0.0,0.0,0.0,0.0,0.0,0.0,0.0,0.0,0.0,0.0,0.0,0.0,0.0,0.0,0.0,0.0,0.0,0.0,0.0,0.0,0.0,0.0,0.0,0.0,0.0,0.0,0.0,0.0,0.0,0.0,0.0,0.0,0.0,0.0,0.0,0.0,0.0,0.0,0.0,0.0,0.0,0.0,0.0,0.0,0.0,0.0,0.0,0.0,0.0,0.0,0.0,0.0,0.0,0.0,0.0,0.0,0.0,0.0,0.0,0.0,0.0,0.0,0.0,0.0,0.0,0.0,0.0,0.0,0.0,0.0,0.0,0.0,0.0,0.0,0.0,0.0,0.0,0.0,0.0,0.0,0.0,0.0,0.0,0.0,0.0,0.0,0.0,0.0,0.0,0.0,0.0,0.0,0.0,0.0,0.0,0.0,0.0,0.0,0.0,0.0,0.0,0.0,0.0,0.0,0.0,0.0,0.0,0.0,0.0,0.0,0.0,0.0,0.0,0.0,0.0,0.0,0.0,0.0,0.0,0.0,0.0,0.0,0.0,0.0,0.0,0.0,0.0,0.0,0.0,0.0,0.0,0.0,0.0,0.0,0.0,0.0,0.0,0.0,0.0,0.0,0.0,0.0,0.0,0.0,0.0,0.0,0.0,0.0,0.0,0.0,0.0,0.0,0.0,0.0,0.0,0.0,0.0,0.0,0.0,0.0,0.0,0.0,0.0,0.0,0.0,0.0,0.0,0.0,0.0,0.0,0.0,0.0,0.0,0.0,0.0,0.0,-3.257,-2.8543,0.0,0.0,0.0,0.0,0.0,0.0,0.0,0.0,0.0,0.0,0.0,0.0,0.0,0.0,0.0,0.0,0.0,0.0,0.0,0.0,0.0,0.0,0.0,-1.4568,-1.4424,-1.4007,-1.394,0.0,0.0,0.0,0.0,0.0,0.0,0.0,0.0,0.0,-1.5862,-1.8382,-1.9615,-2.1807,-2.472,-2.252,-2.0368,-1.8341,0.0,0.0,0.0,0.0,0.0,0.0,0.0,0.0,0.0,0.0,0.0,0.0,0.0,0.0,0.0,0.0,0.0,0.0,0.0,0.0,0.0,0.0,0.0,0.0,0.0,0.0,0.0,0.0,0.0,0.0,0.0,0.0,0.0,0.0,0.0,0.0,0.0,0.0,0.0,0.0,0.0,0.0,0.0,0.0,0.0,0.0,0.0,0.0,0.0,0.0,0.0,0.0,0.0,0.0,0.0,0.0,0.0,0.0,0.0,0.0,0.0,0.0,0.0,0.0,0.0,0.0,0.0,0.0,0.0,0.0,-3.5974,-3.303,0.0,0.0,0.0,0.0,0.0,0.0,0.0,0.0,0.0,0.0,0.0,0.0,0.0,0.0,0.0,0.0,0.0,0.0,0.0,0.0,0.0,-1.5306,-1.5615,-1.5507,-1.5556,-1.5917,-1.5804,-1.5497,-1.4927,-1.4733,0.0,0.0,0.0,0.0,-1.5942,-1.5942,-1.7993,-2.2133,-2.3698,-2.6117,-2.9221,-2.9121,-2.7076,-2.3424,-2.2278,0.0,0.0,0.0,0.0,0.0,0.0,0.0,0.0,0.0,0.0,0.0,0.0,0.0,0.0,0.0,0.0,0.0,0.0,0.0,0.0,0.0,0.0,0.0,0.0,0.0,0.0,0.0,0.0,0.0,0.0,0.0,0.0,0.0,0.0,0.0,0.0,0.0,0.0,0.0,0.0,0.0,0.0,0.0,0.0,0.0,0.0,0.0,0.0,0.0,0.0,0.0,0.0,0.0,0.0,0.0,0.0,0.0,0.0,0.0,0.0,0.0,0.0,0.0,-3.8266,-3.8864,-3.8851,-3.8284,-3.8798,-4.0081,-3.8644,-3.7212,-3.5831,-3.4912,0.0,0.0,0.0,0.0,0.0,0.0,0.0,0.0,0.0,0.0,0.0,0.0,0.0,0.0,0.0,0.0,0.0,0.0,0.0,-1.578,-1.7285,-1.6792,-1.6957,-1.8473,-1.7902,-1.7752,-1.8371,-1.7716,0.0,0.0,0.0,-1.76,-1.8567,-1.8606,-2.0347,-2.3867,-2.8488,-3.1747,-3.3719,-3.2983,-3.1926,-3.055,-2.8165,-2.6466,-2.5256,0.0,0.0,0.0,0.0,0.0,0.0,0.0,0.0,0.0,0.0,0.0,0.0,0.0,0.0,0.0,0.0,0.0,0.0,0.0,0.0,0.0,0.0,0.0,0.0,0.0,0.0,0.0,0.0,0.0,0.0,0.0,0.0,0.0,0.0,0.0,0.0,0.0,0.0,0.0,0.0,0.0,-2.7783,-2.7156,0.0,0.0,0.0,0.0,0.0,0.0,0.0,0.0,0.0,0.0,0.0,0.0,0.0,-3.5181,-3.5149,-3.7186,-3.8143,-3.8021,-4.0372,-4.1506,-4.15,-4.2164,-4.2589,-4.2783,-4.255,0.0,-3.6903,-3.8932,0.0,0.0,0.0,0.0,0.0,0.0,0.0,0.0,0.0,0.0,0.0,0.0,0.0,0.0,0.0,0.0,0.0,0.0,0.0,0.0,0.0,-1.9635,-2.0302,-2.2506,-2.1891,-2.1353,-2.1237,-2.0466,0.0,0.0,-2.0002,-2.0621,-2.1933,-2.2496,-2.4677,-2.859,-3.1836,-3.4088,-3.5313,-3.4981,-3.459,-3.4142,-3.2996,-3.0358,-2.6806,-2.6539,0.0,0.0,0.0,0.0,0.0,0.0,0.0,0.0,0.0,0.0,0.0,0.0,0.0,0.0,0.0,0.0,0.0,0.0,0.0,0.0,0.0,0.0,0.0,0.0,0.0,0.0,0.0,0.0,0.0,0.0,0.0,0.0,0.0,0.0,0.0,0.0,0.0,0.0,0.0,-2.666,-2.8487,-3.0508,-3.1068,-3.1089,0.0,0.0,0.0,0.0,0.0,0.0,0.0,0.0,0.0,-3.6915,-3.7436,-3.8164,-3.9129,-4.043,-4.1068,-4.1107,-4.2699,-4.3479,-4.3479,-4.433,-4.4717,-4.4678,-4.4214,-4.2969,-4.1197,-4.0914,-3.9685,-3.7948,0.0,0.0,0.0,0.0,-3.7343,-3.7851,0.0,0.0,0.0,0.0,0.0,0.0,0.0,0.0,0.0,0.0,0.0,0.0,-2.1645,-2.2548,-2.3832,-2.5956,-2.553,-2.4989,-2.4567,-2.3755,-2.3294,-2.3294,-2.3294,-2.3987,-2.5453,-2.6835,-2.9129,-3.2379,-3.4311,-3.5725,-3.6589,-3.6636,-3.6594,-3.6576,-3.6567,-3.3787,-2.9214,-2.9645,-2.846,-2.6247,0.0,0.0,0.0,0.0,0.0,0.0,0.0,0.0,0.0,0.0,0.0,0.0,0.0,0.0,0.0,0.0,0.0,0.0,0.0,0.0,0.0,0.0,0.0,0.0,0.0,0.0,0.0,0.0,0.0,0.0,0.0,0.0,0.0,0.0,0.0,0.0,0.0,-2.9594,-3.097,-3.393,-3.4449,-3.4314,0.0,0.0,0.0,0.0,0.0,0.0,-3.6458,-3.6727,-3.7602,-3.936,-4.0254,-4.1331,-4.2615,-4.3511,-4.3943,-4.3943,-4.4833,-4.5258,-4.5258,-4.6071,-4.6464,-4.6419,-4.5838,-4.5452,-4.5033,-4.2516,-4.103,-4.0331,-4.0428,-4.0733,-4.1133,-4.0703,-4.0937,-4.1523,0.0,0.0,0.0,0.0,0.0,0.0,0.0,0.0,0.0,0.0,0.0,-2.1781,-2.2745,-2.4985,-2.6841,-2.7778,-2.7817,-2.8126,-2.8939,-2.8165,-2.7662,-2.7662,-2.7662,-2.8126,-2.9016,-3.1515,-3.2992,-3.3311,-3.5841,-3.7568,-3.8476,-3.8387,-3.8375,-3.8372,-3.8285,-3.7208,-3.5307,-3.4581,-3.3258,-3.146,-2.9872,0.0,0.0,0.0,0.0,0.0,0.0,0.0,0.0,0.0,0.0,0.0,0.0,0.0,0.0,0.0,0.0,0.0,0.0,0.0,0.0,0.0,0.0,0.0,0.0,0.0,0.0,0.0,0.0,0.0,0.0,0.0,0.0,0.0,0.0,0.0,0.0,0.0,0.0,-3.7822,-3.8476,0.0,0.0,0.0,0.0,-3.6646,-3.7455,-3.8278,-3.916,-3.997,-4.1205,-4.291,-4.3796,-4.4281,-4.4358,-4.5244,-4.5691,-4.5691,-4.6573,-4.696,-4.6999,-4.785,-4.8275,-4.8275,-4.8237,-4.7734,-4.6781,-4.4278,-4.2793,-4.2088,-4.2147,-4.1789,-4.1289,-4.1992,-4.2305,-4.2461,0.0,0.0,0.0,-1.5182,-1.5188,-1.5386,-1.5942,-1.6295,-1.723,-1.9216,-2.0772,-2.3062,-2.6617,-2.8315,-3.0211,-3.273,-3.2459,-3.2024,-3.1817,-3.2035,-3.1918,-3.136,-3.188,-3.2333,-3.272,-3.3634,-3.47,-3.5898,-3.6834,-3.769,-3.8543,-3.8495,-3.8475,-3.8441,-3.8419,-3.8059,-3.7403,-3.6627,-3.4967,-3.2904,-3.2869,-3.0402,0.0,0.0,0.0,0.0,0.0,0.0,0.0,0.0,0.0,0.0,0.0,0.0,0.0,0.0,0.0,0.0,0.0,0.0,0.0,0.0,0.0,0.0,0.0,0.0,0.0,0.0,0.0,0.0,0.0,0.0,0.0,0.0,0.0,0.0,0.0,0.0,0.0,-3.7969,-3.9761,0.0,-4.0977,-4.0923,-4.0906,-4.0921,-4.1198,-4.1506,-4.183,-4.2138,-4.2847,-4.3989,-4.4892,-4.5609,-4.6172,-4.703,-4.7463,-4.7463,-4.8353,-4.8778,-4.8817,-4.9629,-5.0008,-4.997,-4.9475,-4.9049,-4.867,-4.726,-4.59,-4.478,-4.5393,-4.55,-4.543,-4.6289,-4.6562,-4.6641,0.0,0.0,0.0,-1.5188,-1.5193,-1.5587,-1.6767,-1.7197,-1.8398,-2.1311,-2.3174,-2.565,-2.9321,-3.1294,-3.3127,-3.5137,-3.5025,-3.4607,-3.4111,-3.4609,-3.4648,-3.4117,-3.4633,-3.4979,-3.5022,-3.5323,-3.6042,-3.7262,-3.7849,-3.8386,-3.8898,-3.9195,-3.9279,-3.9229,-3.9202,-3.9046,-3.8762,-3.8227,-3.6709,-3.471,-3.4985,-3.3225,-3.0216,0.0,0.0,0.0,0.0,0.0,0.0,0.0,0.0,0.0,0.0,0.0,0.0,0.0,0.0,0.0,0.0,0.0,0.0,0.0,0.0,0.0,0.0,0.0,0.0,0.0,0.0,0.0,0.0,0.0,0.0,0.0,0.0,0.0,0.0,-3.6181,-3.7899,-3.876,-4.09,-4.2426,-4.2749,-4.3049,-4.3188,-4.3202,-4.3472,-4.3781,-4.4066,-4.4375,-4.4931,-4.5803,-4.6653,-4.7402,-4.7966,-4.8817,-4.9243,-4.9243,-4.9823,-5.0094,-5.0132,-5.0666,-5.0898,-5.0859,-5.0318,-5.0094,-5.0062,-4.9588,-4.8779,-4.782,-4.7888,-4.796,-4.8125,-4.8672,-4.8906,-4.8906,0.0,0.0,-1.5204,-1.5196,-1.5201,-1.5791,-1.7556,-1.8565,-2.0344,-2.379,-2.7155,-2.9592,-3.0559,-3.3659,-3.5369,-3.461,-3.5236,-3.5737,-3.5811,-3.579,-3.5822,-3.5889,-3.5853,-3.5875,-3.5952,-3.6774,-3.7241,-3.7279,-3.8957,-3.9796,-3.9734,-4.0559,-4.0907,-4.0898,-4.0831,-4.0372,-3.9646,-3.9607,-3.8695,-3.7198,-3.6342,-3.546,-3.4336,0.0,0.0,0.0,0.0,0.0,0.0,0.0,0.0,0.0,0.0,0.0,0.0,0.0,0.0,0.0,0.0,0.0,0.0,0.0,0.0,0.0,0.0,0.0,0.0,0.0,0.0,0.0,0.0,0.0,0.0,0.0,0.0,0.0,-3.7115,-3.8313,-3.9684,-4.0545,-4.2117,-4.352,-4.4454,-4.3798,-4.3318,-4.3354,-4.4126,-4.4991,-4.5838,-4.6689,-4.754,-4.8392,-4.9243,-4.9707,-4.9745,-5.0511,-5.0898,-5.0898,-5.0898,-5.0898,-5.0898,-5.0898,-5.0898,-5.0898,-5.0898,-5.0898,-5.0914,-5.1024,-5.1152,-5.1055,-4.9401,-4.8855,-4.8984,-4.8984,-4.8984,-4.8984,-1.5192,-1.5192,-1.5201,-1.5188,-1.5198,-1.5975,-1.83,-1.8901,-2.0534,-2.454,-2.6992,-2.9171,-3.125,-3.3489,-3.4978,-3.5348,-3.5638,-3.5811,-3.5859,-3.7024,-3.7726,-3.7776,-3.715,-3.6803,-3.6852,-3.7085,-3.7827,-3.9076,-3.9514,-4.0007,-4.0555,-4.08,-4.0868,-4.0825,-4.079,-4.068,-4.0432,-3.9818,-3.9311,-3.8879,-3.8114,-3.6553,-3.4609,0.0,0.0,0.0,0.0,0.0,0.0,0.0,0.0,0.0,0.0,0.0,0.0,0.0,0.0,0.0,0.0,0.0,0.0,0.0,0.0,0.0,0.0,0.0,0.0,0.0,0.0,0.0,0.0,0.0,0.0,0.0,-3.8028,-3.9232,-3.8762,-4.0135,-4.1262,-4.1499,-4.3072,-4.4445,-4.5348,-4.5795,-4.6281,-4.6907,-4.7178,-4.7417,-4.7657,-4.7927,-4.843,-4.932,-4.9591,-4.9977,-5.055,-5.0782,-5.0898,-5.0898,-5.0898,-5.0898,-5.0898,-5.0898,-5.0898,-5.0898,-5.0898,-5.0898,-5.0906,-5.0952,-5.1035,-5.1172,-5.0769,-5.0653,-5.0703,-5.0703,-5.0703,-5.0703,-1.5192,-1.5192,-1.5198,-1.5182,-1.5496,-1.6581,-1.9175,-1.9893,-2.1916,-2.6893,-2.8457,-3.0211,-3.3112,-3.4365,-3.5209,-3.5709,-3.5811,-3.6017,-3.6476,-3.7766,-3.8387,-3.7986,-3.7839,-3.7804,-3.7805,-3.8107,-3.8756,-3.9752,-4.0042,-4.0429,-4.0842,-4.0842,-4.0843,-4.0816,-4.0816,-4.0816,-4.0777,-4.0274,-3.9874,-3.9587,-3.9168,-3.7902,-3.6207,-3.5507,-3.4648,-3.3633,-3.2578,-3.1562,-3.0859,-3.1875,0.0,0.0,0.0,0.0,0.0,0.0,0.0,0.0,0.0,0.0,0.0,0.0,0.0,0.0,0.0,0.0,0.0,0.0,0.0,0.0,0.0,0.0,0.0,0.0,-3.9934,-4.1267,-4.1983,-4.2616,-4.3119,-4.3511,-4.5039,-4.6298,-4.6854,-4.734,-4.785,-4.8353,-4.874,-4.8933,-4.8933,-4.9243,-4.9668,-5.021,-5.0202,-5.0434,-5.0898,-5.0898,-5.0898,-5.0898,-5.0898,-5.0898,-5.0898,-5.0898,-5.0898,-5.0898,-5.0898,-5.0898,-5.0898,-5.0898,-5.1004,0.0,0.0,0.0,0.0,0.0,-5.1406,-5.1406,-1.5192,-1.5192,-1.5198,-1.5218,-1.5909,-1.7337,-1.9785,-2.0964,-2.3682,-2.9443,-3.0429,-3.1874,-3.5201,-3.5645,-3.5733,-3.5805,-3.5929,-3.639,-3.7226,-3.8008,-3.8084,-3.7248,-3.8084,-3.8633,-3.875,-3.944,-3.9794,-3.9854,-4.055,-4.0842,-4.0816,-4.0816,-4.0816,-4.0816,-4.0816,-4.0816,-4.0816,-4.0816,-4.0405,-3.9723,-3.9824,-3.9307,-3.8337,-3.6873,-3.6289,-3.6016,-3.3828,-3.293,-3.2812,-3.3008,0.0,0.0,0.0,0.0,0.0,0.0,0.0,0.0,0.0,0.0,0.0,0.0,0.0,0.0,0.0,0.0,0.0,0.0,0.0,0.0,0.0,0.0,0.0,0.0,-4.2453,-4.407,-4.5722,-4.544,-4.5333,-4.602,-4.7411,-4.8354,-4.8546,-4.8546,-4.8585,-4.8662,-4.9397,-4.9861,-4.9861,-5.0511,0.0,0.0,0.0,-5.0898,-5.0898,-5.1014,-5.1053,-5.1053,-5.113,-5.1169,-5.1169,-5.1169,-5.1169,-5.1169,-5.1091,-5.1053,-5.1053,-5.0937,-5.0963,-5.1114,-5.1183,-5.1288,-5.1406,-5.1406,-5.1406,-5.1406,-1.5192,-1.5192,-1.5192,-1.5198,-1.5938,-1.7138,-1.8983,-2.0592,-2.3277,-2.7879,-2.9675,-3.1589,-3.435,-3.5296,-3.5733,-3.5805,-3.644,-3.6974,-3.7208,-3.742,-3.7461,-3.7304,-3.8125,-3.8945,-3.9648,-3.9689,-4.0064,-4.0757,-4.0796,-4.0802,-4.0816,-4.0816,-4.0816,-4.0816,-4.0816,-4.0816,-4.0816,-4.0816,-4.0712,-4.0593,-4.0704,-3.9855,-3.8454,-3.8201,-3.8086,-3.8125,-3.8359,-3.75,-3.6523,-3.793,-3.6523,-3.4492,-3.6055,-3.4766,0.0,0.0,0.0,0.0,0.0,0.0,0.0,0.0,0.0,0.0,0.0,0.0,0.0,0.0,0.0,0.0,0.0,0.0,0.0,-4.2525,-4.4214,-4.5645,-4.6689,-4.7913,-4.8493,-4.7959,-4.8191,-4.8655,-4.9397,-4.9436,-4.9707,-5.0357,-5.055,-5.0666,-5.0666,-5.0821,-5.0898,-5.0898,-5.0898,-5.0898,-5.0898,-5.1602,-5.195,-5.195,-5.2647,0.0,-5.2995,-5.2995,-5.2995,-5.2956,-5.226,-5.195,-5.1873,-5.1177,-5.1024,-5.1187,-5.1261,-5.1312,-5.1406,-5.1406,-5.1406,-5.1406,-1.5192,-1.5192,-1.5192,-1.5192,-1.6237,-1.7513,-1.8819,-2.05,-2.3137,-2.7388,-2.9081,-3.0883,-3.3483,-3.4903,-3.5714,-3.5755,-3.7027,-3.7455,-3.6614,-3.7848,-3.8398,-3.7969,-3.9219,-4.0117,-4.0547,-4.0424,-4.0562,-4.099,-4.0853,-4.0816,-4.0816,-4.0816,-4.0816,-4.0816,-4.0816,-4.0816,-4.0816,-4.0816,-4.0816,-4.0796,-4.0929,-4.0502,-3.9715,-3.9371,-3.8984,-3.8672,-3.9101,-3.8672,-3.8164,-3.9453,-3.8437,-3.6875,-3.8203,-3.7109,-3.5351,0.0,0.0,0.0,0.0,0.0,0.0,0.0,0.0,0.0,0.0,0.0,0.0,0.0,0.0,-3.9617,-3.9562,0.0,-4.2613,-4.4266,-4.5993,-4.7424,-4.8275,-4.9513,-4.9977,-4.9165,-4.9397,-4.9823,-5.0241,-5.0279,-5.0473,-5.0859,-5.0898,-5.0898,-5.0898,-5.1331,-5.1563,-5.1563,-5.1989,-5.2221,-5.2221,-5.2647,-5.284,-5.284,-5.3304,-5.3498,-5.3498,-5.3498,-5.3515,-5.3511,-5.3092,-5.2939,-5.2962,-5.2535,-5.2436,-5.2551,-5.2579,-5.2098,-5.1406,-5.1406,-5.1406,-5.1406,-1.5192,-1.5192,-1.5192,-1.5192,-1.658,-1.793,-1.8626,-2.0369,-2.2923,-2.667,-2.8097,-2.9748,-3.2336,-3.4139,-3.5396,-3.5905,-3.7342,-3.7668,-3.6215,-3.8355,-3.9336,-3.8633,-4.0273,-4.1172,-4.1171,-4.1055,-4.1,-4.097,-4.0863,-4.0802,-4.0816,-4.0816,-4.0816,-4.0816,-4.0802,-4.0814,-4.0814,-4.0837,-4.0848,-4.0865,-4.096,-4.1011,-4.0944,-4.0385,-3.9726,-3.9101,-3.9101,-3.8984,-3.8945,-3.9453,-3.9062,-3.8476,-3.918,-3.8555,-3.7539,-3.7539,-3.6953,0.0,0.0,0.0,0.0,0.0,0.0,0.0,0.0,-3.8776,-3.9208,-3.9117,-4.0438,-4.1585,-4.157,-4.2899,-4.4601,-4.6264,-4.7734,-4.8933,-4.9823,-5.0473,-5.0666,-5.0016,-5.0511,-5.0898,-5.0898,-5.0898,-5.0975,-5.113,-5.113,-5.1207,-5.1401,-5.2066,-5.2461,-5.2461,-5.3111,-5.3498,-5.3498,-5.3652,-5.373,-5.373,-5.3923,-5.4,-5.4,-5.4,-5.4018,-5.4089,-5.3919,-5.3828,-5.3787,-5.3802,-5.3838,-5.3916,-5.3923,-5.3079,-5.1914,-5.1914,-5.1914,-5.1875,-1.5192,-1.5192,-1.5192,-1.5192,-1.658,-1.7738,-1.7815,-1.9931,-2.2252,-2.4251,-2.5909,-2.7885,-3.05,-3.2347,-3.4306,-3.6571,-3.7121,-3.7226,-3.6985,-3.8074,-3.8711,-3.8594,-4.0273,-4.117,-4.1115,-4.1108,-4.1022,-4.0921,-4.0903,-4.0842,-4.0816,-4.0816,-4.0816,-4.0784,-4.0848,-4.0888,-4.0898,-4.0937,-4.0967,-4.0974,-4.1044,-4.1103,-4.1108,-4.1053,-4.0976,-4.0898,-4.0898,-4.0391,-3.9648,-3.8984,-3.8164,-3.7461,-3.7578,-3.8008,-3.8437,-3.8437,-3.7851,-3.7109,-3.6914,-3.6914,-3.7187,-3.7969,-3.8828,-3.9843,0.0,-4.1746,-4.1763,-4.1691,-4.3009,-4.4189,-4.4175,-4.5529,-4.7231,-4.8972,-4.9436,-4.9861,-5.0666,-5.0821,-5.0859,-5.0782,-5.0859,-5.0898,-5.0898,-5.0898,-5.1215,-5.1989,-5.2028,-5.2376,-5.3149,-5.3304,-5.3343,-5.3343,-5.3459,-5.3498,-5.3498,-5.4271,-5.4658,-5.4658,-5.5393,-5.5741,-5.5741,-5.5741,-5.58,-5.587,-5.5166,-5.4433,-5.3791,-5.385,-5.3871,-5.3918,-5.398,-5.3867,-5.3711,-5.3711,-5.3711,-5.3594,-1.5965,-1.5538,-1.5192,-1.5192,-1.658,-1.7699,-1.7699,-1.9465,-2.1393,-2.3103,-2.4392,-2.5947,-2.8,-3.0698,-3.2965,-3.456,-3.5671,-3.6132,-3.5638,-3.6933,-3.7987,-3.8508,-3.972,-4.0613,-4.1109,-4.1109,-4.104,-4.0945,-4.0935,-4.0883,-4.0881,-4.0808,-4.0816,-4.0816,-4.0831,-4.0853,-4.0912,-4.0948,-4.0953,-4.0997,-4.1055,-4.1109,-4.1034,-4.0623,-4.043,-4.043,-4.043,-3.9883,0.0,-3.9297,-3.8789,-3.8164,-3.8633,-3.8711,-3.8516,-3.8008,-3.793,-3.8164,-3.8672,-3.8828,-3.9023,-3.9883,-4.0391,-4.0976,-4.2106,-4.2653,-4.3084,-4.3565,-4.4938,-4.6032,-4.6032,-4.7463,-4.8856,-4.9591,-5.0094,-5.0511,-5.0859,-5.0898,-5.1091,-5.1602,-5.1641,-5.1641,-5.1641,-5.1641,-5.2028,-5.2879,-5.2956,-5.3111,-5.3459,-5.3962,-5.4271,-5.4271,-5.4697,-5.4967,-5.4967,-5.5316,-5.5509,-5.5509,-5.5857,-5.6012,-5.6012,-5.6012,-5.6078,-5.6256,-5.6038,-5.5759,-5.545,-5.546,-5.5464,-5.5464,-5.5507,-5.5508,-5.539,-5.4375,-5.3984,-5.3945,-1.6814,-1.6157,-1.5577,-1.5577,-1.6542,-1.743,-1.7661,-1.9196,-2.0731,-2.1966,-2.2838,-2.4204,-2.6362,-2.9481,-3.1713,-3.2341,-3.4429,-3.5266,-3.4191,-3.6018,-3.7401,-3.8102,-3.8962,-3.986,-4.0719,-4.0765,-4.0826,-4.099,-4.096,-4.0933,-4.0943,-4.0873,-4.0876,-4.0876,-4.0868,-4.0926,-4.0945,-4.0967,-4.1003,-4.1044,-4.0839,-4.0768,-4.0692,-4.0116,-3.9609,-3.9219,-3.9453,-3.9141,-3.8711,-3.9336,-3.8945,-3.8359,-3.8984,-3.8906,-3.8476,-3.7851,-3.8437,-3.9453,-4.0078,-4.043,-4.0742,-4.1367,-4.1875,-4.2461,-4.3281,-4.403,-4.4805,-4.5666,-4.6912,-4.7811,-4.7811,-4.9049,-5.0016,-5.0016,-5.0511,-5.0975,-5.1215,-5.1254,-5.1563,-5.2453,-5.2577,-5.2655,-5.2879,-5.2693,-5.2917,-5.3807,-5.3846,-5.3962,-5.4194,-5.4774,-5.5122,-5.5122,-5.5702,-5.6012,-5.6012,-5.6012,-5.6012,-5.6012,-5.6012,-5.6012,-5.6012,-5.6071,-5.6173,-5.6351,-5.6515,-5.6601,-5.6601,-5.6601,-5.6601,-5.6601,-5.6601,-5.6601,-5.6445,-5.5195,-5.4726,-5.4687,-1.7661,-1.7007,-1.6465,-1.6465,-1.6503,-1.6814,-1.7584,-1.9196,-2.0308,-2.0385,-2.1081,-2.2864,-2.6241,-2.8949,-3.0551,-3.0564,-3.3726,-3.4986,-3.334,-3.5668,-3.7125,-3.7241,-3.8064,-3.8962,-3.9819,-3.9918,-4.0301,-4.099,-4.1046,-4.1046,-4.0987,-4.0987,-4.0984,-4.0987,-4.1046,-4.1104,-4.1108,-4.1168,-4.1172,-4.1133,-4.0273,-3.9922,-3.9922,-3.9922,-3.8867,-3.75,-3.8359,-3.8633,-3.8594,-3.8633,-3.8047,-3.7344,-3.7383,-3.793,-3.8594,-3.8555,-3.9766,-4.1133,-4.1133,-4.1719,-4.2344,-4.2344,-4.3633,-4.5117,-4.5976,-4.6685,-4.742,-4.8319,-4.9087,-4.9629,-4.9629,-5.0279,-5.0859,-5.0859,-5.0859,-5.1215,-5.2028,-5.2152,-5.25,-5.3343,-5.3459,-5.3807,-5.4658,-5.3962,-5.3807,-5.4697,-5.4774,-5.5084,-5.5896,-5.5935,-5.5973,-5.5973,-5.6012,-5.6012,-5.6012,-5.6012,-5.6012,-5.6012,-5.6012,-5.6012,-5.602,-5.6203,-5.6386,-5.6489,-5.6559,-5.6601,-5.6601,-5.6601,-5.6601,-5.6601,-5.6601,-5.6601,-5.6601,-5.6523,-5.6523,-5.6406,-1.8549,-1.7891,-1.7314,-1.7314,-1.7776,-1.8241,-1.8511,-1.9049,-1.9661,-2.0231,-2.1,0.0,0.0,0.0,0.0,0.0,-3.0588,-3.2251,-3.2261,-3.4225,-3.5898,-3.7086,-3.7466,-3.8063,-3.892,-3.8981,-3.9135,-3.933,-3.9345,-3.9343,-3.9327,-3.9291,-3.9267,-3.927,-3.9293,-3.9323,-3.939,-3.9399,-3.9449,-3.9453,-3.9141,-3.9375,-3.9961,-4.0547,-4.0039,-3.9141,0.0,-3.9219,-3.7891,-3.9062,-3.9258,-3.9219,-4.0312,-4.0508,-4.0195,-3.9648,-4.0664,-4.1875,-4.1367,-4.2226,-4.3555,-4.4687,-4.543,-4.625,-4.7695,-4.8092,-4.8241,-4.8553,-4.8759,-4.8891,-4.8832,-4.9586,-5.0163,-5.0109,-5.055,-5.1215,-5.2066,-5.219,-5.2724,-5.4194,-5.4349,-5.4697,-5.5509,-5.4851,-5.4697,-5.5548,-5.5586,-5.5702,-5.6012,-5.6012,-5.6012,-5.6012,-5.6012,-5.6012,-5.6012,-5.6012,-5.6012,-5.6012,-5.6012,-5.6032,-5.6146,-5.6246,-5.6354,-5.6491,-5.656,-5.6601,-5.6601,-5.6601,-5.6601,-5.6601,-5.6601,-5.6601,-5.6601,-5.6601,-5.6601,-5.6562,-1.9469,-1.8776,-1.8161,-1.8157,-1.8353,0.0,0.0,0.0,0.0,0.0,0.0,0.0,0.0,0.0,0.0,0.0,0.0,-3.0018,-2.9989,-3.2511,-3.4497,-3.5668,-3.6072,-3.6803,-3.8022,-3.8083,-3.8553,-3.9443,-3.8857,-3.8857,-3.9443,-3.8796,-3.8471,-3.8471,-3.8471,-3.8486,-3.8544,-3.8544,-3.9098,-3.9844,-3.8633,-3.9023,-4.0351,-4.0273,-3.9531,0.0,-4.0547,-3.9726,-3.7969,-3.9414,-3.9687,-3.9609,-4.0703,-4.0703,-4.0469,-4.1445,-4.2266,-4.2891,-4.3008,-4.4023,-4.5351,-4.6484,-4.7226,-4.7891,-4.8711,-4.9002,-4.9013,-4.8677,-4.8582,-4.8538,-4.8451,-4.9192,-4.9815,-4.9769,-5.0439,-5.1354,-5.25,-5.2655,-5.3304,-5.5006,-5.5238,-5.5432,-5.5935,-5.5548,-5.5432,-5.5973,-5.6012,-5.6012,-5.6012,-5.6012,-5.6012,-5.6012,-5.6012,-5.6012,-5.6012,-5.6012,-5.6012,-5.6012,-5.6032,-5.6114,-5.6247,-5.6316,-5.6428,-5.6549,-5.6561,-5.6601,-5.6601,-5.6601,-5.6601,-5.6601,-5.6601,-5.6601,-5.6601,-5.6601,-5.6601,-5.6601,-2.0308,-1.9623,-1.9084,0.0,0.0,0.0,0.0,0.0,0.0,0.0,0.0,0.0,0.0,0.0,0.0,0.0,0.0,0.0,-2.6859,-3.0632,-3.2972,-3.3145,-3.3999,-3.526,-3.6891,-3.7107,-3.8398,-4.0859,-3.9258,-3.9297,-4.0898,-3.9258,-3.8476,-3.8476,-3.8476,-3.8476,-3.8476,-3.8476,-3.9844,-4.1797,-3.8555,-3.8711,-4.0742,-3.9219,-3.7539,-3.6445,-3.9844,-3.9961,-3.8672,-3.9609,-3.9375,-3.875,-3.8789,-3.8867,-3.9726,-4.375,-4.4414,-4.418,-4.5859,-4.6953,-4.7617,-4.7695,-4.8945,-4.9922,-4.9141,-4.9484,-4.9684,-4.873,-4.8553,-4.8522,-4.8505,-4.9231,-4.9846,-4.9859,-5.0575,-5.1658,-5.3267,-5.3506,-5.4116,-5.5818,-5.6012,-5.6012,-5.6012,-5.6012,-5.6012,-5.6012,-5.6012,-5.6012,-5.6012,-5.6012,-5.6012,-5.6012,-5.6012,-5.6012,-5.6012,-5.6012,-5.6012,-5.6012,-5.6146,-5.6247,-5.6312,-5.6425,-5.6548,-5.6601,-5.6601,-5.6601,-5.6601,-5.6601,-5.6601,-5.6601,-5.6601,-5.6601,-5.6601,-5.6601,-5.6601,-5.6601,0.0,0.0,0.0,0.0,0.0,0.0,0.0,0.0,0.0,0.0,0.0,0.0,0.0,0.0,0.0,0.0,0.0,0.0,-2.7614,-2.9342,-3.0916,-3.2181,-3.2558,-3.2947,-3.3383,-3.4686,-3.5703,-3.6367,-3.6562,-3.6874,-3.7254,-3.6834,-3.6639,-3.6589,-3.6639,-3.6641,-3.6641,-3.6641,-3.7031,-3.7578,-3.668,-3.6719,-3.7422,-3.8281,-3.7539,-3.6289,-3.8476,-3.8555,-3.7851,-3.9375,-4.0195,-4.0625,-4.125,-4.2305,-4.3476,-4.3906,-4.4805,-4.5742,-4.6172,-4.6953,-4.7891,-4.9219,-4.9375,-4.9336,-4.9766,-4.9485,-4.8837,-4.7966,-4.7767,-4.7945,-4.8468,-4.8818,-4.9421,-5.0646,-5.0991,-5.1689,-5.3327,-5.3538,-5.4116,-5.5818,-5.6012,-5.6012,-5.6012,-5.6012,-5.6012,-5.6012,-5.6012,-5.6012,-5.6012,-5.6012,-5.6012,-5.6012,-5.6012,-5.6012,-5.6012,-5.6012,-5.6012,-5.6012,-5.6146,-5.6247,-5.6312,-5.6425,-5.6548,-5.6601,-5.6601,-5.6601,-5.6601,-5.6601,-5.6601,-5.6601,-5.6601,-5.6601,-5.6601,-5.6601,-5.6601,-5.6601,0.0,0.0,0.0,0.0,0.0,0.0,0.0,0.0,0.0,0.0,0.0,0.0,0.0,0.0,0.0,0.0,0.0,0.0,0.0,-2.6955,-2.8395,-3.011,-3.0672,-3.13,-3.2038,-3.3434,-3.4492,-3.5273,-3.5,-3.5233,-3.593,-3.5191,-3.4835,-3.4783,-3.4829,-3.4832,-3.4832,-3.4832,-3.5461,0.0,0.0,-3.5546,-3.6601,-3.6797,-3.6055,-3.5078,-3.6836,-3.7383,-3.7578,-3.9297,-4.0234,-4.0859,-4.2031,-4.2812,-4.3476,-4.4101,-4.5234,-4.6367,-4.6758,-4.7773,-4.8984,-4.9961,-4.9844,-4.9609,-5.0078,-4.8904,-4.7645,-4.7515,-4.6625,-4.6312,-4.7835,-4.8174,-4.8769,-5.0405,-5.0953,-5.1608,-5.284,-5.3289,-5.4,-5.5316,-5.578,-5.6012,-5.6012,-5.6012,-5.6012,-5.6012,-5.6012,-5.6012,-5.6012,-5.6012,-5.6012,-5.6012,-5.6012,-5.6012,-5.6012,-5.6012,-5.6046,-5.6087,-5.62,-5.6281,-5.6404,-5.6497,-5.6558,-5.6601,-5.6601,-5.6601,-5.6601,-5.6601,-5.6601,-5.6601,-5.6601,-5.6601,-5.6601,-5.6601,-5.6601,-5.6601,0.0,0.0,0.0,0.0,0.0,0.0,0.0,0.0,0.0,-2.162,-2.1077,-2.0769,-2.0654,-2.0615,0.0,0.0,0.0,0.0,0.0,0.0,-2.5781,-2.743,-2.8438,-2.9663,-3.1105,-3.2295,-3.3672,-3.5312,-3.3906,-3.4062,-3.5624,-3.4091,-3.3377,-3.3368,-3.3306,-3.3293,-3.3293,-3.3299,-3.461,-3.6508,-3.4282,-3.4683,-3.6445,0.0,-3.3828,-3.3281,-3.5039,-3.6211,-3.7226,-3.8984,-3.9726,-4.0195,-4.1875,-4.1992,-4.1992,-4.4453,-4.5781,-4.668,-4.7695,-4.9062,-5.0195,-5.0195,-5.0117,-4.9961,-4.9726,-4.793,-4.6445,-4.6899,-4.523,-4.4413,-4.6742,-4.7105,-4.7694,-4.955,-5.0402,-5.1226,-5.2175,-5.2898,-5.3715,-5.4658,-5.5432,-5.5896,-5.6012,-5.6012,-5.6012,-5.6012,-5.6012,-5.6012,-5.6012,-5.6012,-5.6012,-5.6012,-5.6012,-5.6012,-5.6012,-5.6012,-5.6056,-5.6214,-5.6261,-5.6351,-5.6489,-5.6559,-5.6601,-5.6601,-5.6601,-5.6601,-5.6601,-5.6601,-5.6601,-5.6601,-5.6601,-5.6601,-5.6601,-5.6601,-5.6601,-5.6601,0.0,0.0,0.0,0.0,0.0,0.0,0.0,0.0,0.0,0.0,-2.5164,-2.3163,0.0,0.0,0.0,0.0,0.0,0.0,0.0,0.0,0.0,-2.4795,-2.5709,-2.6357,-2.6704,-2.9003,-3.0699,-3.1797,-3.2187,-3.2884,-3.3776,-3.3527,-3.3351,-3.3226,-3.3275,-3.3293,-3.3295,-3.3365,-3.365,-3.4007,-3.3591,-3.3281,-3.3047,-3.2734,-3.2109,0.0,-3.3242,-3.4414,-3.543,-3.7148,-3.8711,-4.0195,-4.1875,-4.2812,-4.3633,-4.5508,-4.668,-4.7734,-4.9336,-4.9961,-5.0195,-5.0195,-4.9648,-4.875,-4.7305,-4.6641,-4.5937,-4.4648,-4.4023,-4.4062,-4.5234,-4.4843,-4.539,-4.8593,-4.9122,-4.9895,-5.2156,-5.2486,-5.3067,-5.4636,-5.4929,-5.5277,-5.5935,-5.6012,-5.6012,-5.6012,-5.6012,-5.6012,-5.6012,-5.6012,-5.6012,-5.6012,-5.6012,-5.6012,-5.6012,-5.6012,-5.6056,-5.6214,-5.6261,-5.6351,-5.6489,-5.6559,-5.6601,-5.6601,-5.6601,-5.6601,-5.6601,-5.6601,-5.6601,-5.6601,-5.6601,-5.6601,-5.6601,-5.6601,-5.6601,-5.6601,0.0,0.0,0.0,0.0,0.0,0.0,0.0,-2.7928,-2.8736,-3.2545,-3.1275,-2.9006,-2.6356,-2.4889,-2.3581,0.0,0.0,0.0,0.0,0.0,0.0,-2.3466,-2.3952,-2.4625,-2.5541,-2.7261,-2.8376,-2.8816,0.0,-3.0051,-2.9977,-3.0442,-3.0606,-3.0545,-3.058,-3.0595,-3.0598,-3.0646,-3.0671,-3.0684,-3.0695,-3.0779,-3.0859,-3.0859,-3.0859,0.0,-3.2812,-3.3945,-3.4961,-3.6719,-3.8476,-4.0117,-4.1367,-4.2656,-4.4023,-4.5781,-4.7226,-4.8555,-4.9844,-5.0508,-5.0703,-5.0312,-4.9531,-4.8672,-4.7851,-4.625,-4.4961,-4.5039,-4.3281,-4.2266,-4.3984,-4.3594,-4.4023,-4.7031,-4.8193,-4.9284,-5.0934,-5.1813,-5.2589,-5.3367,-5.4233,-5.4967,-5.5354,-5.5741,-5.6012,-5.6012,-5.6012,-5.6012,-5.6012,-5.6012,-5.6012,-5.6012,-5.6012,-5.6012,-5.6012,-5.6064,-5.6142,-5.6236,-5.6375,-5.6441,-5.6555,-5.6601,-5.6601,-5.6601,-5.6601,-5.6601,-5.6601,-5.6601,-5.6601,-5.6601,-5.6601,-5.6601,-5.6601,-5.6601,-5.6601,-5.6601,0.0,0.0,0.0,0.0,0.0,0.0,0.0,-3.1929,-3.2846,-3.7462,-3.7192,-3.5238,-3.1666,-2.8352,-2.5654,0.0,0.0,0.0,0.0,0.0,0.0,0.0,0.0,0.0,-2.4649,0.0,0.0,-2.6321,-2.702,0.0,0.0,0.0,0.0,0.0,-2.7637,-2.7524,-2.7579,-2.7756,-2.7879,0.0,0.0,-2.8785,-2.9609,0.0,0.0,0.0,0.0,-3.3828,-3.4687,-3.6445,-3.8047,-3.9531,-4.0586,-4.2187,-4.4023,-4.5781,-4.7539,-4.9101,-4.9961,-5.0664,-5.0976,-5.0351,-4.9414,-4.8476,-4.7891,-4.5508,-4.3672,-4.4492,-4.1836,-3.9961,-4.1953,-4.1914,-4.2383,-4.4805,-4.6712,-4.8324,-4.9478,-5.0875,-5.1889,-5.2182,-5.3599,-5.4581,-5.4774,-5.5548,-5.6012,-5.6012,-5.6012,-5.6012,-5.6012,-5.6012,-5.6012,-5.6012,-5.6012,-5.6029,-5.6024,-5.616,-5.6253,-5.6336,-5.647,-5.6548,-5.6601,-5.6601,-5.6601,-5.6601,-5.6601,-5.6601,-5.6601,-5.6601,-5.6601,-5.6601,-5.6601,-5.6601,-5.6601,-5.6601,-5.6601,-5.6601,0.0,0.0,0.0,0.0,0.0,0.0,0.0,-3.343,-3.593,-4.1739,-4.1085,-3.9631,-3.8476,-3.3314,-2.8923,0.0,0.0,0.0,0.0,0.0,0.0,0.0,0.0,0.0,0.0,0.0,0.0,-2.4529,-2.4607,0.0,0.0,0.0,0.0,0.0,0.0,-2.5726,-2.578,-2.6634,0.0,0.0,0.0,0.0,0.0,0.0,0.0,0.0,0.0,-3.3437,-3.3789,-3.5547,-3.6758,-3.7812,-3.9492,-4.1719,-4.4023,-4.5781,-4.7539,-4.9101,-4.9961,-5.0234,-5.0273,-5.0234,-4.8945,-4.7109,-4.4726,-4.332,-4.1914,-3.9766,-3.8359,-3.7617,-3.7851,-3.8476,-3.9531,-4.1367,-4.3711,-4.6168,-4.8482,-4.9556,-5.0641,-5.2129,-5.3088,-5.3923,-5.4735,-5.5548,-5.6012,-5.6012,-5.6012,-5.6012,-5.6012,-5.6012,-5.6012,-5.6012,-5.6012,-5.6048,-5.6194,-5.6207,-5.6295,-5.6482,-5.6487,-5.6548,-5.6601,-5.6601,-5.6601,-5.6601,-5.6601,-5.6601,-5.6601,-5.6601,-5.6601,-5.6601,-5.6601,-5.6601,-5.6601,-5.6601,-5.6601,-5.6601,0.0,0.0,0.0,0.0,0.0,0.0,-3.3731,-3.3853,-3.593,-4.2893,-4.1901,-4.0593,-4.0777,-3.7315,-3.2929,-2.7813,0.0,0.0,0.0,0.0,0.0,0.0,0.0,0.0,0.0,0.0,-2.3382,-2.4236,-2.4777,0.0,0.0,0.0,0.0,0.0,0.0,-2.5294,-2.4867,-2.5254,0.0,0.0,0.0,0.0,0.0,0.0,0.0,0.0,0.0,0.0,-3.3672,-3.5391,-3.6562,-3.7422,-3.8125,-4.0117,-4.2734,-4.5508,-4.6797,-4.7656,-4.9023,-4.9414,-4.9297,-4.8789,-4.7305,-4.5625,-4.4062,-4.2266,-4.0469,-3.8906,-3.75,-3.6523,-3.6523,-3.7226,-3.8398,-4.0117,-4.3008,-4.5858,-4.8332,-4.9872,-5.1147,-5.2241,-5.3527,-5.4272,-5.4056,-5.5238,-5.6012,-5.6012,-5.6012,-5.6012,-5.6012,-5.6012,-5.6012,-5.6012,-5.6071,-5.6153,-5.6214,-5.632,-5.6404,-5.6489,-5.655,-5.656,-5.6601,-5.6601,-5.6601,-5.6601,-5.6601,-5.6601,-5.6601,-5.6601,-5.6601,-5.6601,-5.6601,-5.6601,-5.6601,-5.6601,-5.6601,-5.6601,0.0,0.0,0.0,0.0,0.0,-2.9429,-3.4038,-3.4314,-3.6238,-4.2354,-4.1854,-4.1008,-4.1393,-3.8931,-3.5122,-2.9852,-2.6356,0.0,0.0,0.0,0.0,0.0,0.0,0.0,0.0,0.0,-2.3419,-2.4556,-2.4946,-2.5372,0.0,0.0,-2.5829,-2.6375,0.0,0.0,0.0,0.0,0.0,0.0,0.0,0.0,0.0,0.0,0.0,0.0,0.0,0.0,0.0,0.0,0.0,-3.6953,-3.7226,-3.8555,-4.0703,-4.4141,-4.5703,-4.6601,-4.8125,-4.8516,-4.8437,-4.8086,-4.6289,-4.4375,-4.3516,-4.1328,-3.9101,-3.7734,-3.6484,-3.5625,-3.5625,-3.6328,-3.75,-3.9219,-4.2187,-4.5116,-4.7642,-4.9663,-5.1311,-5.2338,-5.4163,-5.495,-5.4018,-5.5194,-5.6012,-5.6012,-5.6012,-5.6012,-5.6012,-5.6012,-5.6012,-5.6012,-5.6139,-5.6194,-5.6236,-5.64,-5.6495,-5.6545,-5.6561,-5.6601,-5.6601,-5.6601,-5.6601,-5.6601,-5.6601,-5.6601,-5.6601,-5.6601,-5.6601,-5.6601,-5.6601,-5.6601,-5.6601,-5.6601,-5.6601,-5.6601,0.0,0.0,0.0,0.0,0.0,0.0,-3.2391,-3.5045,-3.7584,-4.0208,-4.1277,-4.147,-4.0593,-3.7546,-3.4808,-3.3006,-2.8192,0.0,0.0,0.0,0.0,0.0,0.0,0.0,0.0,0.0,-2.3725,-2.5382,-2.459,-2.5062,-2.6687,-2.5852,-2.5496,-2.5487,0.0,0.0,0.0,0.0,0.0,0.0,0.0,0.0,-2.9687,0.0,0.0,0.0,0.0,0.0,0.0,0.0,0.0,0.0,0.0,-3.7305,-3.8008,-4.1445,-4.4258,-4.6484,-4.7383,-4.7617,-4.7812,-4.8672,-4.6289,-4.3476,-4.2617,-4.043,-3.7891,-3.5273,-3.4726,-3.4726,-3.4726,-3.543,-3.6562,-3.832,-4.0742,-4.3359,-4.5976,-4.8465,-5.067,-5.239,-5.4762,-5.5925,-5.4989,-5.5568,-5.6012,-5.6012,-5.6012,-5.6012,-5.6012,-5.6012,-5.6012,-5.6012,-5.6139,-5.6236,-5.6308,-5.6422,-5.6546,-5.6601,-5.6601,-5.6601,-5.6601,-5.6601,-5.6601,-5.6601,-5.6601,-5.6601,0.0,-5.6601,-5.6601,-5.6601,-5.6601,-5.6601,-5.6601,-5.6601,-5.6601,-5.6601,0.0,0.0,0.0,0.0,0.0,0.0,0.0,-3.1885,-3.3731,-3.743,-3.7654,-3.8046,-3.9515,-3.7199,-3.4808,-3.3045,-2.8775,0.0,0.0,0.0,0.0,0.0,0.0,0.0,0.0,-2.4294,-2.5434,-2.7198,-2.7473,-2.8487,-3.0168,-2.8732,-2.877,-2.9863,-2.7857,-2.6535,0.0,0.0,0.0,0.0,0.0,-2.9336,-2.9687,0.0,0.0,0.0,0.0,0.0,0.0,0.0,0.0,0.0,0.0,0.0,0.0,-3.9297,-4.1211,-4.3008,-4.3828,-4.4492,-4.4844,-4.4531,-4.2773,-4.0859,-4.0,-3.8242,-3.625,-3.4219,-3.3828,-3.3828,-3.3828,-3.5,-3.6758,-3.9101,-4.1641,-4.4414,-4.7617,-4.9257,-5.0734,-5.2394,-5.3784,-5.4935,-5.576,-5.6038,-5.6149,-5.6203,-5.6063,-5.6024,-5.6139,-5.604,-5.6012,-5.6012,-5.6155,-5.6281,-5.6312,-5.6497,-5.6561,-5.6601,-5.6601,-5.6601,-5.6601,-5.6601,-5.6601,-5.6601,-5.6601,-5.6601,-5.6601,-5.6601,-5.6601,-5.6601,-5.6601,-5.6601,-5.6601,-5.6601,-5.6601,-5.6601,0.0,0.0,0.0,0.0,0.0,0.0,0.0,-2.9769,-3.1346,-3.3962,-3.4423,-3.5238,-3.7168,-3.5084,-3.3154,-3.2045,-2.8659,0.0,0.0,0.0,0.0,0.0,0.0,0.0,-2.499,-2.589,-2.7677,-3.0325,-3.0853,-3.1839,-3.3207,-3.2179,-3.1786,-3.1903,-3.0358,-2.8994,0.0,0.0,0.0,0.0,-2.832,-2.9297,-2.9687,0.0,0.0,0.0,0.0,0.0,0.0,0.0,0.0,0.0,0.0,0.0,0.0,0.0,-3.8633,-4.0039,-4.1523,-4.2344,-4.2617,-4.207,-4.0664,-3.9258,-3.8711,-3.6992,-3.5117,-3.3672,-3.3164,-3.3047,-3.3359,-3.457,-3.6484,-3.9414,-4.1758,-4.4531,-4.8359,-4.9648,-5.1171,-5.3818,-5.4248,-5.4989,-5.667,-5.6471,-5.6241,-5.6308,-5.6179,-5.6162,-5.6247,-5.6168,-5.6121,-5.6121,-5.6241,-5.6324,-5.6354,-5.6514,-5.6601,-5.6601,-5.6601,-5.6601,-5.6601,-5.6601,-5.6601,-5.6601,-5.6601,-5.6601,0.0,-5.6601,-5.6601,-5.6601,-5.6601,-5.6601,-5.6601,-5.6601,-5.6601,-5.6601,0.0,0.0,0.0,0.0,0.0,0.0,0.0,-2.8654,-3.0231,-3.0231,-3.1621,-3.2929,-3.3744,-3.166,-3.0231,-3.0231,0.0,0.0,0.0,0.0,0.0,0.0,0.0,0.0,-2.6659,-2.7603,-3.0078,-3.4199,-3.4311,-3.488,-3.5879,-3.5931,-3.4654,-3.2356,-3.2348,-3.1255,0.0,0.0,0.0,0.0,-2.7969,-2.8867,0.0,0.0,0.0,0.0,0.0,0.0,0.0,0.0,0.0,0.0,0.0,0.0,0.0,0.0,0.0,0.0,0.0,-4.0937,-4.1016,-4.1016,-3.9766,-3.8476,-3.8437,-3.6523,0.0,-3.3672,-3.2969,-3.2695,-3.3359,-3.4375,-3.6172,-3.9531,-4.1523,-4.4141,-4.8398,-4.9805,-5.1914,-5.6015,-5.5809,-5.5946,-5.7547,-5.6914,-5.6363,-5.6328,-5.6316,-5.6312,-5.632,-5.6312,-5.6312,-5.632,-5.632,-5.6354,-5.6487,-5.6558,-5.6601,-5.6601,-5.6601,-5.6601,-5.6601,-5.6601,-5.6601,-5.6601,-5.6601,-5.6601,-5.6601,-5.6601,-5.6601,-5.6601,-5.6601,-5.6601,-5.6601,-5.6601,-5.6601,-5.6601,0.0,0.0,0.0,0.0,0.0,0.0,0.0,0.0,0.0,0.0,-2.9357,-3.0088,-3.0281,-2.9198,-2.8506,0.0,0.0,0.0,0.0,0.0,0.0,0.0,0.0,0.0,-2.7582,-2.905,-3.1255,-3.4212,-3.4886,-3.6331,-3.8504,-3.8505,-3.7915,-3.6732,-3.5486,-3.2944,0.0,0.0,0.0,0.0,-2.8203,-2.9219,0.0,0.0,0.0,0.0,-3.2812,-3.3398,0.0,0.0,0.0,0.0,0.0,0.0,0.0,0.0,-3.6133,-3.6445,-3.707,0.0,-3.9219,-3.9219,-3.8398,-3.7422,0.0,-3.6133,-3.5469,-3.457,-3.4766,-3.4961,-3.4492,-3.6758,-3.9375,-4.1484,-4.3828,-4.6445,-4.9453,-5.1172,-5.2969,-5.5312,-5.6015,-5.6677,-5.7733,-5.7553,-5.7153,-5.6554,-5.6377,-5.634,-5.6467,-5.6344,-5.634,-5.647,-5.643,-5.6477,-5.6489,-5.6558,-5.6601,-5.6601,-5.6601,-5.6601,-5.6601,-5.6601,-5.6601,-5.6601,-5.6601,-5.6601,-5.6601,-5.6601,-5.6601,-5.6601,-5.6601,-5.6601,-5.6601,-5.6601,-5.6601,-5.6601,0.0,0.0,0.0,0.0,0.0,0.0,0.0,0.0,0.0,0.0,0.0,-2.8396,-2.8005,-2.7544,0.0,0.0,0.0,0.0,0.0,0.0,0.0,0.0,0.0,-2.8121,-3.016,-3.1468,-3.3596,-3.6542,-3.7409,-3.8733,-4.0475,-4.0179,-3.9387,-3.8161,-3.614,-3.3384,0.0,0.0,0.0,-2.7773,-2.8555,0.0,0.0,0.0,0.0,0.0,-3.2383,-3.3086,0.0,-3.5391,-3.6289,-3.6601,0.0,0.0,0.0,0.0,-3.6016,-3.6094,-3.6484,-3.6992,-3.7422,-3.7422,-3.7344,-3.7187,-3.6719,-3.6601,-3.6445,-3.5976,-3.5937,-3.6094,-3.6445,-3.8672,-4.1055,-4.2734,-4.5195,-4.7812,-5.0391,-5.2891,-5.4844,-5.5781,-5.6328,-5.6953,-5.7812,-5.7457,-5.7025,-5.664,-5.6508,-5.6456,-5.6551,-5.6497,-5.6456,-5.6551,-5.6551,-5.6551,-5.6551,-5.6561,-5.6601,-5.6601,-5.6601,-5.6601,-5.6601,-5.6601,-5.6601,-5.6601,-5.6601,-5.6601,-5.6601,-5.6601,-5.6601,-5.6601,-5.6601,-5.6601,-5.6601,-5.6601,-5.6601,-5.6601,0.0,0.0,0.0,0.0,0.0,0.0,0.0,0.0,0.0,0.0,0.0,0.0,0.0,0.0,0.0,0.0,0.0,0.0,0.0,0.0,0.0,0.0,0.0,-3.0121,-3.2852,-3.4282,-3.6514,-3.9662,-4.0823,-4.1832,-4.2741,-4.2176,-4.0742,-3.8473,-3.6093,-3.3563,-3.1091,-3.0935,-2.953,-2.7539,-2.9023,0.0,0.0,0.0,0.0,0.0,0.0,0.0,0.0,-3.5234,-3.6289,-3.6914,-3.6914,0.0,0.0,0.0,0.0,0.0,-3.707,-3.6953,-3.6562,-3.6445,-3.6758,-3.7187,-3.7422,-3.75,-3.7539,-3.7656,-3.7305,-3.7422,-3.8906,-4.0586,-4.2344,-4.4023,-4.6484,-4.8984,-5.1289,-5.4375,-5.6484,-5.6758,-5.6914,-5.7305,-5.8047,-5.7305,-5.6758,-5.6601,-5.6601,-5.6601,-5.6601,-5.6601,-5.6601,-5.6601,-5.6601,-5.6601,-5.6601,-5.6601,-5.6601,-5.6601,-5.6601,-5.6601,-5.6601,-5.6601,-5.6601,-5.6601,-5.6601,0.0,-5.6601,-5.6601,-5.6601,-5.6601,-5.6601,-5.6601,-5.6601,-5.6601,-5.6601,-5.6601,0.0,0.0,0.0,0.0,0.0,0.0,0.0,0.0,0.0,0.0,0.0,0.0,0.0,0.0,0.0,0.0,0.0,0.0,0.0,0.0,0.0,-2.9769,-3.2006,-3.3128,-3.2891,-3.6584,-3.9469,-4.1431,-4.3709,-4.5642,-4.7134,-4.7045,-4.4645,-4.0286,-3.7942,-3.5024,-3.1865,-3.1205,-3.023,-2.9216,-2.9491,0.0,0.0,0.0,0.0,0.0,0.0,0.0,0.0,-3.4336,-3.5,-3.5117,-3.5117,0.0,0.0,0.0,0.0,0.0,-3.707,-3.8281,-3.9101,-3.8398,-3.7187,-3.6601,-3.8047,-3.8398,-3.8594,-3.9336,-4.0508,-4.1484,-4.1758,-4.3242,-4.4961,-4.6719,-4.9141,-5.1211,-5.2344,-5.4219,-5.6055,-5.7539,-5.8359,-5.8867,-5.8984,-5.8203,-5.7383,-5.664,-5.6601,-5.6601,-5.6601,-5.6601,-5.6601,-5.6601,-5.6601,-5.6601,-5.6601,-5.6601,-5.6601,-5.6601,-5.6601,-5.6601,-5.6601,-5.6601,-5.6601,-5.6601,0.0,-5.6601,-5.6601,-5.6601,-5.6601,-5.6601,-5.6601,-5.6601,-5.6601,-5.6601,-5.6601,-5.6601,0.0,0.0,0.0,0.0,0.0,0.0,0.0,0.0,0.0,0.0,0.0,0.0,0.0,0.0,0.0,0.0,0.0,0.0,0.0,0.0,0.0,-3.166,-3.4199,-3.5353,-3.4968,-3.7815,-4.0354,-4.2508,-4.5047,-4.6932,-4.8048,-4.6279,-4.3847,-4.0809,-3.8319,-3.5825,-3.3463,-3.2607,-3.1516,-3.0308,0.0,0.0,0.0,0.0,0.0,0.0,0.0,0.0,0.0,0.0,-3.4297,-3.4766,-3.5234,0.0,0.0,0.0,0.0,0.0,-3.7773,-3.8594,-3.9336,-3.9883,-3.9726,-3.9687,-4.0469,-4.1016,-4.1484,-4.1875,-4.2578,-4.3398,-4.4336,-4.5547,-4.7109,-4.9297,-5.1016,-5.2422,-5.3281,-5.5703,-5.7695,-5.8515,-5.8945,-5.9219,-5.9219,-5.8008,-5.7031,-5.664,-5.6601,-5.6601,-5.6601,-5.6601,-5.6601,-5.6601,-5.6601,-5.6601,-5.6601,-5.6601,-5.6601,-5.6601,-5.6601,-5.6601,-5.6601,-5.6601,-5.6601,-5.6601,0.0,-5.6601,-5.6601,-5.6601,-5.6601,-5.6601,-5.6601,-5.6601,-5.6601,-5.6601,-5.66,-5.6598,0.0,0.0,0.0,0.0,0.0,0.0,0.0,0.0,0.0,0.0,0.0,0.0,0.0,0.0,0.0,0.0,0.0,0.0,0.0,0.0,-3.005,-3.2237,-3.5115,-3.7077,-3.7885,-4.0008,-4.2316,-4.4893,-4.7432,-4.8702,-4.8625,-4.555,-4.3069,-4.1151,-3.8991,-3.6891,-3.4945,-3.4087,-3.2723,-3.1164,0.0,0.0,0.0,0.0,0.0,0.0,0.0,0.0,0.0,0.0,0.0,0.0,0.0,0.0,0.0,-3.6172,-3.6836,-3.75,-3.8359,-3.9023,-3.9922,-4.1641,-4.2109,-4.2266,-4.2851,-4.3672,-4.4375,-4.457,-4.4766,-4.5391,-4.6914,-4.7891,-4.9141,-5.1094,-5.2148,-5.3164,-5.4414,-5.707,-5.9023,-5.9414,-5.9297,-5.9219,-5.9219,-5.7617,-5.6601,-5.6601,-5.6601,-5.6601,-5.6601,-5.6601,-5.6601,-5.6601,-5.6601,-5.6601,-5.6601,-5.6601,-5.6601,-5.6601,-5.6601,-5.6601,-5.6601,-5.6601,-5.6601,-5.6601,-5.6601,-5.6601,-5.6601,-5.6601,-5.6601,-5.6601,-5.6601,-5.6601,-5.6601,-5.6601,-5.6598,-5.6592,0.0,0.0,0.0,0.0,0.0,0.0,0.0,0.0,0.0,0.0,0.0,0.0,0.0,0.0,0.0,0.0,0.0,0.0,0.0,0.0,-2.9544,-3.0538,-3.45,-3.8192,-4.1346,-4.4654,-4.7586,-5.0135,-5.2702,-5.2779,-5.0442,-4.7912,-4.5041,-4.198,-4.1104,-3.8914,-3.5836,-3.4979,-3.3614,-3.2014,-3.2018,0.0,0.0,0.0,0.0,0.0,0.0,0.0,0.0,0.0,0.0,0.0,0.0,0.0,-3.3594,-3.3672,-3.5391,-3.75,-3.8359,-4.0312,-4.2539,-4.4297,-4.3008,-4.1914,-4.4258,-4.5508,-4.6328,-4.7148,-4.7969,-4.8828,-4.9766,-5.0586,-5.1172,-5.1367,-5.2148,-5.3555,-5.6055,-5.7344,-5.8555,-6.0117,-5.9648,-5.9219,-5.9219,-5.7617,-5.6601,-5.6601,-5.6601,-5.6601,-5.6601,-5.6601,-5.6601,-5.6601,-5.6601,-5.6601,-5.6601,-5.6601,-5.6601,-5.6601,-5.6601,-5.6601,-5.6601,-5.6601,-5.6601,-5.6601,-5.6601,-5.6601,-5.6601,-5.6601,-5.6601,-5.6601,-5.6601,-5.6601,-5.6601,-5.6601,-5.66,-5.6593,0.0,0.0,0.0,0.0,0.0,0.0,0.0,0.0,0.0,0.0,0.0,0.0,0.0,0.0,0.0,0.0,0.0,0.0,0.0,-2.8165,-2.9935,-3.1891,-3.5,-3.8777,-4.3278,-4.5163,-4.7855,-5.1471,-5.2933,-5.2933,-5.1356,-4.7812,-4.4916,-4.2679,-4.0832,-3.9047,-3.7303,-3.5356,-3.4169,-3.3577,-3.2454,-3.1887,0.0,0.0,0.0,0.0,0.0,0.0,0.0,0.0,-3.1406,-3.1484,-3.2031,-3.2734,-3.3594,-3.4687,-3.6875,-3.9101,-3.9961,-4.207,-4.418,-4.4844,-4.5508,-4.625,-4.7226,-4.7266,-4.7344,-4.8242,-4.8672,-4.9336,-5.0703,-5.1641,-5.2383,-5.293,-5.4219,-5.5469,-5.6445,-5.8242,-5.9687,-6.0312,-6.0117,-5.9765,-5.9258,-5.8125,-5.7187,-5.664,-5.6601,-5.6601,-5.6601,-5.6601,-5.6601,-5.6601,-5.6601,-5.6601,-5.6601,-5.6601,-5.6601,-5.6601,-5.6601,-5.6601,-5.6601,-5.6601,-5.6601,-5.6601,-5.6601,-5.6601,-5.6601,-5.6601,-5.6601,-5.6601,-5.6601,-5.6601,-5.6601,-5.6599,-5.6596,-5.6592,0.0,0.0,0.0,0.0,0.0,0.0,0.0,0.0,0.0,0.0,0.0,0.0,0.0,0.0,0.0,0.0,0.0,0.0,-2.7313,-2.8472,-3.0242,-3.2776,-3.5584,-3.9008,-4.3008,-4.524,-4.8317,-5.2308,-5.2395,-5.1818,-5.0615,-4.6932,-4.4484,-4.3072,-4.0559,-3.901,-3.8154,-3.5814,-3.4715,-3.4413,-3.2942,-3.2238,0.0,0.0,0.0,0.0,0.0,0.0,0.0,0.0,-3.1094,-3.1367,-3.168,-3.2539,-3.3672,-3.5156,-3.7656,-4.0078,-4.0976,-4.2851,-4.4805,-4.5625,-4.6953,-4.8359,-4.9453,-4.9219,-4.8984,-4.957,-5.0117,-5.0781,-5.1641,-5.2734,-5.3828,-5.4687,-5.582,-5.6875,-5.7695,-5.9297,-6.0508,-6.0781,-6.0586,-6.0195,-5.9648,-5.8555,-5.7656,-5.707,-5.6758,-5.6601,-5.6601,-5.6601,-5.6601,-5.6601,-5.6601,-5.6601,-5.6601,-5.6601,-5.6601,-5.6601,-5.6601,-5.6601,-5.6601,-5.6601,-5.6601,-5.6601,-5.6601,-5.6601,-5.6601,-5.6601,-5.6601,-5.6601,-5.6601,-5.6601,-5.6601,-5.6598,-5.6594,-5.6631,0.0,0.0,0.0,0.0,0.0,0.0,0.0,0.0,0.0,0.0,0.0,0.0,0.0,0.0,0.0,0.0,0.0,0.0,-2.8934,-2.9127,-3.0242,-3.2776,-3.6161,-3.8777,-4.0439,-4.547,-4.974,-5.3203,-5.151,-4.9817,-4.8048,-4.5509,-4.3898,-4.3072,-4.0552,-3.9005,-3.8188,-3.6436,-3.5189,-3.4334,-3.3522,-3.2707,-3.1904,0.0,0.0,0.0,0.0,0.0,0.0,0.0,-3.1484,-3.2031,-3.1172,-3.207,-3.3594,-3.4453,-3.7187,-4.0117,-4.0976,-4.2461,-4.4375,-4.6953,-4.6953,-4.7226,-5.0625,-5.1406,-5.1406,-5.1406,-5.2773,-5.3711,-5.2891,-5.4141,-5.5586,-5.6484,-5.6601,-5.75,-6.0039,-6.039,-6.0742,-6.1601,-6.0937,-6.039,-6.039,-5.8906,-5.789,-5.789,-5.7109,-5.6601,-5.6601,-5.6601,-5.6601,-5.6601,-5.6601,-5.6601,-5.6601,-5.6601,-5.6601,-5.6601,-5.6601,-5.6601,-5.6601,-5.6601,-5.6601,-5.6601,-5.6601,-5.6601,-5.6601,-5.6601,-5.6601,-5.6601,-5.6601,-5.6601,-5.6601,-5.66,-5.6597,-5.6709,0.0,0.0,0.0,0.0,0.0,0.0,0.0,0.0,0.0,0.0,0.0,0.0,0.0,0.0,0.0,0.0,0.0,0.0,-2.8934,-2.966,-3.0891,-3.2814,-3.5584,-3.7315,-3.7815,-4.2816,-4.7663,-5.2269,-5.2395,-5.0664,-4.724,-4.6471,-4.4419,-4.1277,-4.0499,-3.9056,-3.7096,-3.6009,-3.5444,-3.5132,-3.3655,-3.2985,-3.2681,0.0,0.0,0.0,0.0,0.0,0.0,0.0,0.0,0.0,-3.0976,-3.2461,-3.4492,-3.5351,-3.8476,-4.1836,-4.2734,-4.5117,-4.7383,-4.7578,-4.875,-5.0,-5.0469,-5.0547,-5.0898,-5.207,-5.2734,-5.3398,-5.4336,-5.4961,-5.5781,-5.7265,-5.8047,-5.8906,-6.0195,-6.0937,-6.1406,-6.168,-6.1484,-6.1055,-6.0469,-5.9453,-5.8555,-5.7969,-5.7109,-5.6601,-5.6601,-5.6601,-5.6601,-5.6601,-5.6601,-5.6601,-5.6601,-5.6601,-5.6601,-5.6601,-5.6601,-5.6601,-5.6601,-5.6601,-5.6601,-5.6601,-5.6601,-5.6601,-5.6601,-5.6601,-5.6601,-5.6601,-5.6601,-5.6601,-5.6601,-5.6598,-5.6594,-5.6709,0.0,0.0,0.0,0.0,0.0,0.0,0.0,0.0,-2.5308,-2.5308,-2.5308,-2.5308,0.0,0.0,0.0,-2.5308,-2.5308,0.0,-2.8934,-2.9583,-3.0929,-3.3314,-3.4891,-3.6353,-3.77,-4.1739,-4.5316,-4.8385,-4.9933,-4.9048,-4.5855,-4.5855,-4.4316,-4.1516,-4.1162,-3.9777,-3.77,-3.6853,-3.6324,-3.5938,-3.4542,-3.3847,-3.3486,0.0,0.0,0.0,0.0,0.0,0.0,0.0,0.0,0.0,-3.1869,-3.3394,-3.5426,-3.6637,-3.9569,-4.2734,-4.4297,-4.6289,-4.8008,-4.8516,-4.9531,-5.0547,-5.1055,-5.1172,-5.1484,-5.25,-5.3516,-5.4453,-5.5156,-5.5859,-5.6797,-5.8203,-5.8555,-5.9219,-6.0703,-6.1055,-6.1328,-6.164,-6.1719,-6.1484,-6.0976,-6.0156,-5.9336,-5.8476,-5.7617,-5.6953,-5.6601,-5.6601,-5.6601,-5.6601,-5.6601,-5.6601,-5.6601,-5.6601,-5.6601,-5.6601,-5.6601,-5.6601,-5.6601,-5.6601,-5.6601,-5.6601,-5.6601,-5.6601,-5.6601,-5.6601,-5.6601,-5.6601,-5.6601,-5.6601,-5.6601,-5.6597,-5.6593,-5.6747,0.0,0.0,0.0,0.0,0.0,0.0,0.0,-2.5308,-2.5308,-2.5308,-2.5308,-2.5308,0.0,0.0,0.0,-2.5308,-2.5308,-2.6346,-2.8819,-2.905,-3.0589,-3.3936,-3.4167,-3.5745,-3.8977,-4.1393,-4.2701,-4.2854,-4.5586,-4.5932,-4.4085,-4.4316,-4.3855,-4.2816,-4.2047,-4.0777,-3.9246,-3.82,-3.7353,-3.6615,-3.5731,-3.4918,-3.4086,-3.3207,0.0,0.0,0.0,0.0,0.0,0.0,0.0,0.0,-3.3128,-3.4466,-3.6344,-3.7908,-4.0385,-4.3164,-4.5547,-4.6367,-4.7109,-4.9492,-4.9648,-4.9844,-5.2187,-5.2812,-5.293,-5.293,-5.4844,-5.625,-5.5547,-5.6719,-5.8086,-5.8945,-5.8437,-5.875,-6.1133,-6.0781,-6.0625,-6.1484,-6.1562,-6.1562,-6.1562,-6.0781,-5.9961,-5.914,-5.8281,-5.7422,-5.664,-5.6601,-5.6601,-5.6601,-5.6601,-5.6601,-5.6601,-5.6601,-5.6601,-5.6601,-5.6601,-5.6601,-5.6601,-5.6601,-5.6601,-5.6601,-5.6601,-5.6601,-5.6601,-5.6601,-5.6601,-5.6601,-5.6601,-5.664,-5.6719,-5.6714,-5.6749,-5.7059,0.0,0.0,0.0,0.0,0.0,0.0,-2.5308,-2.5308,-2.5308,-2.5308,-2.5308,-2.5308,-2.5308,-2.5308,0.0,-2.5308,-2.5308,-2.6115,-2.8049,-2.8742,-3.0319,-3.3045,-3.3859,-3.5161,-3.7199,-3.8469,-3.9738,-4.1054,-4.497,-4.5308,-4.2393,-4.4393,-4.3786,-4.1054,-4.0862,-4.0246,-3.9169,-3.6969,-3.6269,-3.6577,-3.5084,-3.4,-3.3163,-3.2314,-3.1782,0.0,0.0,0.0,0.0,0.0,0.0,0.0,-3.1265,-3.3867,-3.7009,-3.7364,-4.0777,-4.457,-4.5117,-4.6797,-4.8476,-4.9023,-5.0547,-5.2031,-5.2578,-5.375,-5.4726,-5.4726,-5.5195,-5.5742,-5.6211,-5.664,-5.7148,-5.8047,-5.8008,-5.832,-5.957,-5.957,-5.9765,-6.0586,-6.0664,-6.0664,-6.0664,-5.9922,-5.9101,-5.8242,-5.7383,-5.6797,-5.6601,-5.6601,-5.6601,-5.6601,-5.6601,-5.6601,-5.6601,-5.6601,-5.6601,-5.6601,-5.6601,-5.6601,-5.6601,-5.6601,-5.6601,-5.6601,-5.6601,-5.6601,-5.6601,-5.6601,-5.6601,-5.6601,-5.6601,-5.7031,-5.7617,-5.7615,-5.8003,-5.8701,0.0,0.0,0.0,0.0,0.0,0.0,0.0,0.0,-2.5308,-2.5308,-2.5308,-2.5308,-2.5308,-2.5308,0.0,0.0,-2.5308,-2.5846,-2.7198,-2.8049,-2.966,-3.2199,-3.393,-3.5045,-3.5507,-3.6738,-3.7815,-3.8661,-4.1354,-4.2124,-4.12,-4.2555,-4.2016,-3.9977,-4.0739,-4.0431,-3.9207,-3.7892,-3.7315,-3.7199,-3.593,-3.4905,-3.4148,-3.3686,-3.3035,-3.2215,-3.1404,0.0,0.0,0.0,0.0,0.0,0.0,0.0,-3.6713,-3.7968,-4.0633,-4.3472,-4.5113,-4.66,-4.7969,-4.9219,-5.1445,-5.332,-5.332,-5.4687,-5.5937,-5.5937,-5.5937,-5.6055,-5.6523,-5.6601,-5.6875,-5.7773,-5.7539,-5.7734,-5.9023,-5.8828,-5.8906,-5.9726,-5.9844,-5.9844,-5.9844,-5.9453,-5.8828,-5.7969,-5.7461,-5.7031,-5.6601,-5.6601,-5.6601,-5.6601,-5.6601,-5.6601,-5.6601,-5.6601,-5.6601,-5.6601,-5.6601,-5.6601,-5.6601,-5.6601,-5.6601,-5.6601,-5.6601,-5.6601,-5.6601,-5.6601,-5.6836,-5.7187,-5.6758,-5.7383,-5.8476,-5.8044,-5.8392,-5.9208,0.0,0.0,0.0,0.0,0.0,0.0,0.0,0.0,0.0,-2.5308,-2.5308,-2.5308,-2.5308,-2.5308,-2.5308,0.0,0.0,0.0,-2.6346,-2.7467,-2.9044,-3.116,-3.3692,-3.4661,-3.3782,-3.5545,-3.65,-3.65,-3.7353,-3.8546,-4.0054,-4.0208,-3.9938,-3.9361,-4.0739,-4.0662,-3.9477,-3.9207,-3.8738,-3.8161,-3.7276,-3.6423,-3.5692,-3.5692,-3.4808,-3.3353,-3.1846,-3.2024,-3.2804,-3.156,0.0,0.0,0.0,0.0,-3.616,-3.8473,-4.0058,-4.1766,-4.4891,-4.6122,-4.707,-4.9375,-5.1797,-5.3633,-5.3945,-5.5234,-5.6406,-5.6562,-5.6601,-5.6601,-5.6601,-5.6601,-5.6836,-5.7578,-5.707,-5.7109,-5.8555,-5.8125,-5.8008,-5.8867,-5.8984,-5.8984,-5.8984,-5.8984,-5.8594,-5.7734,-5.7695,-5.7344,-5.664,-5.6601,-5.6601,-5.6601,-5.6601,-5.6601,-5.6601,-5.6601,-5.6601,-5.6601,-5.6601,-5.6601,-5.6601,-5.6601,-5.6601,-5.6601,-5.6601,-5.6601,-5.6601,-5.6758,-5.7265,-5.7851,-5.7265,-5.8008,-5.9336,-5.8589,-5.8859,-5.9637,0.0,0.0,0.0,0.0,0.0,0.0,0.0,0.0,0.0,0.0,-2.5308,-2.5308,-2.5308,-2.5308,-2.5308,-2.5308,-2.6,-2.6154,-2.5538,0.0,0.0,-2.9434,-3.1891,-3.2852,-3.2045,-3.4423,-3.5654,-3.5654,-3.6462,-3.7353,-3.8354,-3.913,-3.94,-3.9323,-3.9515,-3.99,-4.0246,-3.8777,-3.8546,-3.9053,-3.8161,-3.7315,-3.6538,-3.6538,-3.6385,-3.6077,-3.5154,-3.4058,-3.3088,-3.3569,-3.2887,0.0,0.0,0.0,-3.5935,-3.7001,-3.9034,-4.1362,-4.3312,-4.5577,-4.7603,-4.8788,-5.043,-5.2148,-5.3672,-5.4765,-5.5703,-5.6445,-5.6601,-5.6601,-5.6601,-5.6601,-5.664,-5.6758,-5.668,-5.668,-5.6914,-5.6836,-5.7109,-5.7969,-5.8086,-5.8086,-5.8086,-5.8086,-5.7695,-5.6836,-5.6758,-5.6719,-5.6601,-5.6601,-5.6601,-5.6601,-5.6601,-5.6601,-5.6601,-5.6601,-5.6601,-5.6601,-5.6601,-5.6601,-5.6601,-5.6601,-5.6601,-5.6601,-5.6601,-5.6601,-5.664,-5.7422,-5.7773,-5.7969,-5.8594,-5.9414,-6.0232,-6.0115,-6.0617,-6.1387,0.0,0.0,0.0,0.0,0.0,0.0,0.0,0.0,0.0,0.0,0.0,-2.5308,-2.5308,-2.5308,-2.5308,-2.5308,-2.5654,-2.5923,-2.6,-2.7967,-2.9319,-2.9813,-3.1814,-3.2737,-3.2391,-3.3968,-3.4776,-3.4776,-3.5615,-3.6692,-3.8007,-3.8392,-3.8315,-3.7853,-3.7853,-3.8315,-3.9084,-3.8815,-3.9207,-3.9938,-3.9554,-3.9161,-3.883,-3.8929,-3.8923,-3.8769,-3.7501,-3.6812,-3.6271,-3.4173,-3.3647,-3.3737,-3.3184,0.0,0.0,0.0,-3.7763,-3.9512,-4.3256,-4.5512,-4.7093,-4.8554,-5.0156,-5.1601,-5.2383,-5.3984,-5.539,-5.5781,-5.625,-5.6601,-5.6601,-5.6601,-5.6601,-5.6601,-5.6601,-5.6601,-5.6601,-5.6601,-5.6758,-5.7148,-5.7187,-5.7187,-5.7187,-5.7187,-5.6992,-5.664,-5.6601,-5.6601,-5.6601,-5.6601,-5.6601,-5.6601,-5.6601,-5.6601,-5.6601,-5.6601,-5.6601,-5.6601,-5.6601,-5.6601,-5.6601,-5.6601,-5.6601,-5.6601,-5.6601,-5.6601,-5.664,-5.6992,-5.7461,-5.793,-5.832,-5.9257,-6.0388,-6.0386,-6.0966,-6.1697,0.0,0.0,0.0,0.0,0.0,0.0,0.0,0.0,0.0,0.0,0.0,-2.5615,-2.5615,0.0,0.0,0.0,-2.6154,-2.6538,-2.7198,-2.8396,-2.9313,-2.9731,-3.1391,-3.216,-3.1929,-3.3006,-3.3667,-3.3859,-3.4737,-3.6238,-3.8315,-3.8084,-3.8007,-3.7962,-3.7546,-3.7584,-3.8084,-3.9169,-4.0092,-4.0862,-4.1054,-4.117,-4.1185,-4.1272,-4.1435,-4.1403,-3.9745,-3.9539,-3.9457,-3.5797,-3.4963,-3.5283,-3.4031,-3.3184,0.0,0.0,0.0,-3.8524,-4.2751,-4.4532,-4.5675,-4.7733,-4.918,-5.0312,-5.1211,-5.3086,-5.4687,-5.4922,-5.5664,-5.6289,-5.6289,-5.6445,-5.6601,-5.6601,-5.6601,-5.6601,-5.6601,-5.6601,-5.6601,-5.6601,-5.6601,-5.6601,-5.6601,-5.6601,-5.6601,-5.6601,-5.6601,-5.6601,-5.6601,-5.6601,-5.6601,-5.6601,-5.6601,-5.6601,-5.6601,-5.6601,-5.6601,-5.6601,-5.6601,-5.6601,-5.6601,-5.6601,-5.6601,-5.6601,-5.6601,-5.6601,-5.6601,-5.6836,-5.7422,-5.8242,-5.8476,-5.9413,-6.0738,-6.0733,-6.1154,-6.1692,0.0,0.0,0.0,0.0,0.0,0.0,0.0,0.0,0.0,0.0,0.0,-2.6544,-2.6544,-2.7274,-2.778,-2.778,-2.8472,-2.8934,-2.8973,-2.905,-2.878,-2.8049,-2.9654,0.0,-2.9319,-3.0968,-3.2199,-3.2968,-3.3853,-3.5975,-3.9207,-3.8392,-3.9277,-4.1462,-3.9854,-3.8738,-3.8123,-3.9746,-4.0931,-4.1808,-4.2624,-4.297,-4.297,-4.2978,-4.3448,-4.3896,-4.2356,-4.1735,-4.1432,-3.9663,-3.745,-3.5482,-3.5481,-3.3753,-3.2113,0.0,0.0,0.0,-4.0789,-4.1721,-4.3075,-4.5778,-4.6484,-4.7422,-5.0664,-5.2148,-5.3086,-5.3906,-5.4765,-5.5351,-5.5351,-5.6055,-5.6601,-5.6601,-5.6601,-5.6601,-5.6601,-5.6601,-5.6601,-5.6601,-5.6601,-5.6601,-5.6601,-5.6601,-5.6601,-5.6601,-5.6601,-5.6601,-5.6601,-5.6601,-5.6601,-5.6601,-5.6601,-5.6601,-5.6601,-5.6601,-5.6601,-5.6601,-5.6601,-5.6601,-5.6601,-5.6601,-5.6601,-5.6601,-5.6601,-5.6601,-5.664,-5.75,-5.8359,-5.9219,-5.996,-6.0816,-6.163,-6.1623,-6.1653,-6.1681,0.0,0.0,0.0,0.0,0.0,0.0,0.0,0.0,0.0,0.0,0.0,0.0,0.0,-2.9308,-2.9275,-2.8703,-2.8472,-2.8319,-2.8319,-2.8819,-2.8973,-2.8665,-2.9775,-3.0231,-2.9929,-3.1083,-3.1852,-3.2122,-3.3506,-3.5391,-3.7661,-3.8469,-3.9315,-4.0123,-3.8969,-3.8584,-3.8854,-3.9477,-4.0208,-4.1162,-4.3701,-4.4701,-4.4757,-4.5364,-4.6136,-4.6569,-4.4394,-4.3916,-4.3866,-4.0472,-3.9066,-3.8322,-3.6208,-3.4886,-3.4173,-3.4293,-3.5186,-3.6684,-3.9291,-4.0268,-4.1302,-4.4577,-4.6282,-4.746,-4.8671,-5.0898,-5.2617,-5.2383,-5.3906,-5.5312,-5.5312,-5.6015,-5.6601,-5.6601,-5.6601,-5.6601,-5.6601,-5.6601,-5.6601,-5.6601,-5.6601,-5.6601,-5.6601,-5.6599,-5.6598,-5.6598,-5.66,-5.6601,-5.6601,-5.6601,-5.6601,-5.6601,-5.6601,-5.6601,-5.6601,-5.6601,-5.6601,-5.6601,-5.6601,-5.6601,-5.6601,-5.6601,-5.6601,-5.664,-5.7187,-5.7422,-5.7461,-5.7773,-5.8398,-5.9297,-6.0077,-6.0581,-6.0927,-6.1506,-6.169,-6.1718,0.0,0.0,0.0,0.0,0.0,0.0,0.0,0.0,-2.8929,-2.9467,0.0,0.0,0.0,0.0,-3.1006,-3.0435,-2.9621,-2.9159,-2.9159,-2.939,-2.9544,-2.9544,-2.9813,-2.9967,-2.9967,-3.0275,-3.0698,-3.1269,-3.2391,-3.4083,-3.6346,-3.7777,-3.8738,-3.9284,-3.87,-3.8584,-3.8892,-3.9169,-3.9938,-4.1162,-4.3748,-4.5278,-4.6103,-4.6714,-4.802,-4.9186,-4.6668,-4.6653,-4.7256,-4.3235,-4.1832,-4.1247,-3.8166,-3.6446,-3.5406,-3.4854,-3.4892,-3.5669,-3.8357,-3.9068,-3.9879,-4.3146,-4.5549,-4.7098,-4.7098,-4.9996,-5.2382,-5.121,-5.281,-5.4449,-5.4449,-5.5154,-5.5937,-5.6483,-5.6835,-5.6913,-5.664,-5.6601,-5.6601,-5.6601,-5.6599,-5.6597,-5.6597,-5.6595,-5.6593,-5.6593,-5.6597,0.0,-5.6599,-5.6601,-5.6601,-5.6601,-5.6601,-5.6601,-5.6601,-5.6601,-5.6601,-5.6601,-5.6601,-5.6601,-5.6601,-5.6601,-5.6601,-5.664,-5.7539,-5.789,-5.793,-5.8203,-5.8828,-5.9648,-6.0193,-6.058,-6.0927,-6.1502,-6.1688,-6.1718,0.0,0.0,0.0,0.0,0.0,0.0,0.0,0.0,-3.0462,-3.05,0.0,0.0,0.0,0.0,0.0,-3.2929,-3.2199,-3.1698,-3.1698,-3.0885,-3.0385,-3.0385,-2.9583,-2.9088,-2.9088,-2.8319,-2.8736,-3.0346,-3.0423,-3.2154,-3.5423,-3.6231,-3.7546,-3.9169,-3.9207,-3.8738,-3.8007,-3.8931,-4.0277,-4.1808,-4.2854,-4.4739,-4.6923,-4.7,-4.9038,-5.1607,-4.9156,-4.9847,-5.1414,-4.8121,-4.5843,-4.3957,-4.1444,-3.8363,-3.5653,-3.5534,-3.6,-3.6818,0.0,0.0,0.0,-4.1419,-4.4079,-4.6072,-4.6077,-4.9466,-5.2139,-5.0421,-5.1475,-5.2686,-5.2687,-5.3468,-5.4601,-5.624,-5.7257,-5.753,-5.671,-5.6593,-5.6593,-5.6593,-5.6593,-5.6593,-5.6593,-5.6592,-5.6592,-5.6592,-5.6597,-5.6599,-5.6599,-5.6601,-5.6601,-5.6601,-5.6601,-5.6601,-5.6601,-5.6601,-5.6601,-5.6601,-5.6601,-5.6601,-5.6601,-5.664,-5.664,-5.668,-5.7578,-5.7969,-5.8047,-5.8906,-5.9726,-6.043,-6.0424,-6.0967,-6.1707,-6.169,-6.1718,-6.1718,0.0,0.0,0.0,0.0,0.0,-3.0198,-3.1621,-3.1545,-3.1775,0.0,0.0,0.0,-3.4385,-3.4083,-3.3859,-3.3859,-3.2545,-3.1698,-3.1698,-3.0885,-3.0385,-3.0385,-2.9583,-2.9088,-2.9088,-2.8896,-2.9011,-2.9467,-3.0737,-3.1808,-3.2769,-3.4237,-3.5167,-3.5668,-3.6892,-3.7276,-3.7199,-3.9277,-4.0092,-4.0392,-4.4893,-4.7124,-4.7894,-4.9163,-5.0971,-5.2433,-4.9296,-4.9778,-5.1471,-4.8718,-4.7083,-4.5624,-4.2464,-3.9552,-3.7088,-3.586,-3.4769,-3.4135,-3.5078,0.0,0.0,0.0,0.0,0.0,-4.5823,-4.8386,-5.0297,-4.9286,-5.0923,-5.2567,-5.2676,-5.4433,-5.5638,-5.4857,-5.5454,-5.6164,-5.6554,-5.6593,-5.6593,-5.6593,-5.6588,-5.6585,-5.6585,-5.6618,-5.6614,0.0,-5.6589,-5.6593,-5.6588,-5.6597,-5.6601,-5.6601,-5.6601,-5.6601,-5.6601,-5.6601,-5.6601,-5.6601,-5.6601,-5.6601,-5.6601,-5.7265,-5.7539,-5.7617,-5.9062,-5.9726,-5.9726,-5.9961,-6.0586,-6.1327,-6.1325,-6.1476,-6.1701,-6.1696,-6.1688,-6.1718,0.0,0.0,-2.7945,-3.0059,-3.0994,-3.1891,-3.3237,-3.3622,-3.4007,0.0,0.0,0.0,-3.6462,-3.6084,-3.5622,-3.5276,-3.3699,-3.2737,-3.2737,-3.1621,-3.0923,-3.0923,-2.9429,-2.8588,-2.8588,-2.789,-2.7698,-2.8044,-2.9083,-2.9929,-3.0621,-3.2006,-3.2814,-3.3276,-3.5661,-3.65,-3.6423,-4.0046,-4.1085,-4.07,-4.4855,-4.7355,-4.8779,-5.0164,-5.2164,-5.3857,-5.0779,-5.1318,-5.3087,-5.0538,-4.8423,-4.6538,-4.4538,-4.1931,-3.9315,-3.7969,-3.6122,-3.4584,-3.5084,-3.5117,-3.5879,-3.9425,0.0,0.0,-4.5133,-4.7717,-4.9761,-4.9354,-5.0762,-5.2055,-5.212,-5.3409,-5.4225,-5.3561,-5.3884,-5.4633,-5.5882,-5.6077,-5.6193,-5.6545,-5.6618,-5.6614,-5.6614,-5.6608,-5.6606,-5.6606,-5.6582,-5.6589,-5.6591,-5.6597,-5.66,-5.6601,-5.6601,-5.6601,-5.6601,-5.6601,-5.6601,-5.6601,-5.6601,-5.6601,-5.664,-5.75,-5.789,-5.8008,-5.9687,-6.039,-6.043,-6.0781,-6.1249,-6.1718,-6.1716,-6.171,-6.1702,-6.1694,-6.1686,-6.1718,0.0,0.0,-2.7687,-3.0334,-3.2032,-3.3423,-3.4584,-3.5846,-3.65,0.0,-3.6462,-3.7161,-3.793,-3.8007,-3.7661,-3.6769,-3.5276,-3.4359,-3.4359,-3.2776,-3.1814,-3.1814,-2.9506,-2.8082,-2.7895,-2.639,-2.5923,-2.6621,-2.6697,-2.7505,-2.8973,-2.9852,-3.0731,-3.1698,-3.4968,-3.6192,-3.6077,-4.0816,-4.2585,-4.2393,-4.4278,-4.6817,-4.9663,-5.0712,-5.302,-5.5395,-5.2923,-5.3626,-5.5318,-5.2846,-4.9923,-4.7317,-4.7201,-4.4962,-4.2162,-4.0969,-3.8969,-3.7038,-3.6654,-3.5545,-3.509,-3.7546,-3.9998,0.0,-4.4106,-4.7038,-4.9372,-4.9469,-5.026,-5.0925,-5.093,-5.1011,-5.1364,-5.2266,-5.2386,-5.3049,-5.4888,-5.5162,-5.5435,-5.6216,-5.6294,-5.6294,-5.6294,-5.6411,-5.645,-5.645,-5.6536,-5.6588,-5.6598,-5.6598,-5.66,-5.6601,-5.6601,-5.6601,-5.6601,-5.6601,-5.6601,-5.6601,-5.6719,-5.6758,-5.6797,-5.7734,-5.8164,-5.8281,-5.9843,-6.0547,-6.0586,-6.1366,-6.1717,-6.1718,-6.1712,-6.1708,-6.1705,-6.169,-6.1681,-6.1718,-2.8092,-2.8514,-2.955,-3.2805,-3.3639,-3.485,-3.7763,-3.7363,-3.7161,-3.8392,-3.8084,-3.7815,-3.7969,-3.8007,-3.7661,-3.6769,-3.5808,-3.5231,-3.5231,-3.3622,-3.266,-3.266,-3.0885,-2.9275,-2.7934,-2.7582,-2.7121,-2.6621,-2.7313,-2.7818,-2.8165,-2.8973,-2.9813,-3.0769,-3.3468,-3.5738,-3.7661,-4.0008,-4.2516,-4.5133,-4.8211,-4.9865,-5.0712,-5.2895,-5.4549,-5.5472,-5.3626,-5.4126,-5.5434,-5.3587,-5.1625,-4.9817,-4.9125,-4.7548,-4.5308,-4.2393,-4.07,-3.9161,-3.6462,-3.5962,-3.6661,-3.8584,-3.993,0.0,-4.2996,-4.4461,-4.5462,-4.5574,-4.6839,-4.795,-4.801,-4.8574,-4.9378,-5.0368,-5.0537,-5.1414,-5.3908,-5.4264,-5.4303,-5.4498,-5.4498,-5.4498,-5.4498,-5.5123,-5.5552,-5.5552,-5.6218,-5.6618,-5.6594,-5.6589,-5.6592,-5.66,-5.6597,-5.6599,-5.6601,-5.6601,-5.66,-5.66,-5.7303,-5.7653,-5.7689,-5.9213,-5.9917,-5.996,-6.1011,-6.1442,-6.1444,-6.1635,-6.1711,-6.1712,-6.1709,-6.1701,-6.1688,-6.1694,-6.1688,-6.1718,-2.8245,-2.9441,-3.1092,-3.3684,-3.4857,-3.6286,-3.8862,-3.8531,-3.843,-3.9746,-4.0277,-4.0546,-4.0546,-4.0546,-4.0008,-3.87,-3.8238,-3.7623,-3.6815,-3.593,-3.5084,-3.4231,-3.2154,-3.0462,-2.9159,-2.789,-2.7044,-2.6621,-2.6621,-2.6813,-2.7274,-2.8511,-3.0467,-3.3038,-3.5161,-3.7507,-4.0046,-4.217,-4.4017,-4.5825,-4.8394,-4.9933,-5.0943,-5.3049,-5.4357,-5.4972,-5.4164,-5.4395,-5.4895,-5.3626,-5.2087,-5.0558,-4.9663,-4.824,-4.6471,-4.4316,-4.2162,-4.0054,-3.7969,-3.6776,-3.65,-3.82,-3.8931,0.0,0.0,-4.3195,-4.3438,-4.4411,-4.5631,-4.669,-4.7139,-4.7543,-4.8142,-4.9118,-4.9321,-4.952,-4.9976,-5.195,-5.3522,-5.3951,-5.399,-5.399,-5.399,-5.4381,-5.481,-5.5279,-5.5708,-5.6146,-5.6587,-5.6584,-5.6589,-5.6599,-5.6597,-5.6599,-5.6601,-5.6601,-5.6599,-5.6599,-5.7496,-5.7885,-5.796,-5.9639,-6.0384,-6.0466,-6.1321,-6.1712,-6.1716,-6.1708,-6.1704,-6.1704,-6.1704,-6.1699,-6.169,-6.169,-6.1686,-6.1718,-2.852,-2.9946,-3.1994,-3.4057,-3.5685,-3.7346,-3.9231,-3.9662,-4.0123,-4.1077,-4.2462,-4.3393,-4.353,-4.3731,-4.3124,-4.1401,-4.1554,-4.0931,-3.9084,-3.8969,-3.8315,-3.6769,-3.4276,-3.2352,-3.1154,-2.8813,-2.7274,-2.6621,-2.5885,-2.6,-2.689,-2.8396,-3.1314,-3.5346,-3.7507,-3.9738,-4.2,-4.5201,-4.6595,-4.6749,-4.8394,-5.0202,-5.2087,-5.3587,-5.4703,-5.5395,-5.4895,-5.4626,-5.4472,-5.4241,-5.2972,-5.1366,-5.0971,-4.9586,-4.7894,-4.6663,-4.4171,-4.1439,-4.0123,-3.8161,-3.6738,-3.7969,-3.8238,-3.9052,0.0,0.0,0.0,-4.313,-4.4228,-4.5071,-4.5576,-4.5958,-4.6352,-4.6918,-4.7354,-4.7136,-4.5553,-4.8998,-5.1954,-5.2661,-5.321,-5.3444,-5.3288,-5.4303,-5.5083,-5.5279,-5.6059,-5.6532,-5.6618,-5.6618,-5.6587,-5.6597,-5.6597,-5.6598,-5.6601,-5.6599,-5.6597,-5.6597,-5.7647,-5.8114,-5.819,-5.9868,-6.0653,-6.0699,-6.1396,-6.1709,-6.1714,-6.1702,-6.1696,-6.1696,-6.1696,-6.1696,-6.1694,-6.1683,-6.1718,-6.1718,-3.0483,-3.0254,-3.1463,-3.4633,-3.602,-3.7547,-3.9991,-4.1022,-4.2061,-4.3593,-4.4013,-4.4453,-4.513,-4.5973,-4.5778,-4.4008,-4.5278,-4.5124,-4.2662,-4.2508,-4.2085,-4.1115,-3.8623,-3.6161,-3.3821,-3.2045,-2.966,-2.6621,-2.6505,-2.689,-2.7775,-2.8665,-3.0973,-3.4513,-3.8476,-4.0816,-4.2154,-4.774,-5.0135,-5.0289,-5.1933,-5.4087,-5.6385,-5.7357,-5.8204,-5.8627,-5.6357,-5.5126,-5.4818,-5.7011,-5.6088,-5.4318,-5.5703,-5.4462,-5.201,-4.9663,-4.7625,-4.5509,-4.2354,-4.0739,-3.9823,-3.9284,-3.9169,-3.9438,-4.0546,0.0,-3.9437,-3.8881,0.0,-4.093,-4.0314,0.0,0.0,-4.1666,-4.2902,-4.3613,-4.2754,-4.5744,-4.8092,-4.8285,-5.0321,0.0,0.0,-5.5394,-5.7621,-5.5474,-5.8831,-5.969,-5.6764,-5.6608,-5.6612,-5.6584,-5.6616,-5.658,-5.6595,-5.6588,-5.6585,-5.6624,-5.8224,-5.8961,-5.9029,-6.0746,-6.1534,-6.1545,-6.1651,-6.1692,-6.1701,-6.1688,-6.1681,-6.1681,-6.1681,-6.1681,-6.1681,-6.172,-6.1718,-6.1674,-3.0731,-3.1823,-3.3652,-3.5108,-3.6496,-3.827,-4.082,-4.318,-4.4764,-4.4938,-4.629,-4.7385,-4.7751,-4.8577,-4.8625,-4.7355,-4.8394,-4.8009,-4.547,-4.5316,-4.4047,-4.1162,-3.9084,-3.7046,-3.5007,-3.3276,-3.1698,-3.0275,-2.9269,-2.9,-2.939,-3.0698,-3.3122,-3.6584,-4.0816,-4.347,-4.5,-4.9009,-5.2125,-5.4434,-5.5126,-5.7808,-6.1012,-5.7434,-5.6588,-5.7165,-5.6088,-5.5472,-5.528,-5.5895,-5.6357,-5.6588,-5.578,-5.5818,-5.5665,-5.3126,-5.0818,-4.8586,-4.6124,-4.447,-4.3132,-4.1816,-4.1508,-4.147,-4.1277,-3.9469,-3.77,-3.7315,0.0,0.0,0.0,0.0,0.0,0.0,-4.1255,-4.1683,-4.1385,-4.3086,-4.5138,-4.7139,0.0,0.0,0.0,0.0,0.0,0.0,-5.7153,-5.8128,-5.6684,-5.6138,-5.6064,-5.6582,-5.6618,-5.6582,-5.6593,-5.6585,-5.6582,-5.6621,-5.8293,-5.9109,-5.9141,-6.0898,-6.1688,-6.1697,-6.1686,-6.1688,-6.1697,-6.1686,-6.1718,-6.1718,-6.1718,-6.1718,-6.1718,-6.1718,-6.166,-6.158,-3.1697,-3.3264,-3.5055,-3.5345,-3.6788,-3.8851,-4.1626,-4.4755,-4.6752,-4.6551,-4.8404,-4.9933,-5.0375,-5.1202,-5.1395,-5.051,-5.1433,-5.0971,-4.8423,-4.85,-4.7124,-4.3778,-4.1354,-3.9392,-3.7923,-3.5545,-3.3853,-3.2891,-3.1692,-3.0962,-3.0808,-3.2468,-3.4814,-3.7853,-4.2316,-4.5278,-4.7115,-5.0587,-5.3972,-5.7011,-5.7269,-5.9281,-6.1704,-5.7473,-5.578,-5.5703,-5.5703,-5.5703,-5.5665,-5.5588,-5.678,-5.7973,-5.6126,-5.6819,-5.7819,-5.5241,-5.3203,-5.1318,-4.9356,-4.7586,-4.597,-4.4778,-4.3932,-4.3393,-4.3231,-4.0538,-3.8038,-3.7777,-3.7084,0.0,0.0,0.0,-3.913,-3.8515,0.0,-3.8967,-3.8021,-3.9524,-4.2014,-4.5395,0.0,0.0,0.0,0.0,0.0,0.0,0.0,-5.7738,-5.6333,-5.5864,-5.5829,-5.6227,-5.6462,-5.658,-5.6587,-5.658,-5.6696,-5.6969,-5.8404,-5.9222,-5.9495,-6.1015,-6.1686,-6.1694,-6.1683,-6.1686,-6.1692,-6.1683,-6.1718,-6.1718,-6.1718,-6.1718,-6.1718,-6.1663,-6.1584,-6.1481,-3.4165,-3.4037,-3.4395,-3.5155,-3.6726,-3.9051,-4.2441,-4.5213,-4.7443,-4.8971,-5.0057,-5.1269,-5.2822,-5.3825,-5.401,-5.3164,-5.4587,-5.4472,-5.1923,-5.2538,-5.2549,-5.1577,-4.7586,-4.494,-4.4047,-3.9969,-3.6238,-3.2891,-3.2852,-3.2429,-3.1698,-3.3353,-3.5084,-3.6962,-4.2047,-4.5278,-4.7269,-5.3087,-5.6088,-5.706,-5.7934,-5.7357,-5.6242,-5.8473,-5.7819,-5.5703,-5.5703,-5.5703,-5.5934,-5.7627,-5.8242,0.0,0.0,-5.8242,-5.7819,-5.5241,-5.4434,-5.3818,-5.1289,-4.9356,-4.8009,-4.7971,-4.6086,-4.4701,-4.6355,-4.4077,-4.1393,-4.0554,-3.9746,-3.8661,-3.7,-3.8123,-3.7938,-3.3814,-3.4545,0.0,0.0,-3.4389,-3.8345,-4.1845,-4.3845,0.0,0.0,0.0,0.0,0.0,0.0,0.0,-5.5591,-5.6138,-5.6177,-5.5359,-5.6177,-5.6606,-5.6606,-5.6606,-5.6996,-5.7779,-5.8675,-5.9534,-6.0393,-6.1291,-6.1718,-6.172,-6.1718,-6.1718,-6.172,-6.1718,-6.1718,-6.1718,-6.1718,-6.1718,-6.1674,-6.1569,-6.1495,-6.1461,-3.5098,-3.4794,-3.4932,-3.5224,-3.6662,-3.8912,-4.2336,-4.5122,-4.7396,-4.9007,-5.1075,-5.2769,-5.3913,-5.4769,-5.5164,-5.4895,-5.5357,-5.5126,-5.3703,-5.3895,-5.2933,-5.0356,-4.7817,-4.5547,-4.3547,-4.0431,-3.8007,-3.6276,-3.4584,-3.3628,-3.3353,-3.3936,-3.4814,-3.6115,-4.1239,-4.5086,-4.7894,-5.1048,-5.5483,-6.0369,-6.005,-5.9588,-5.8973,-5.8165,-5.6934,-5.5703,-5.5703,-5.5703,0.0,-5.6395,-5.7703,-5.8896,-5.778,-5.8973,-6.0319,-5.7742,-5.7011,-5.6588,0.0,0.0,-5.2049,-5.0885,-4.9962,-4.9356,-4.9394,-4.5893,-4.2585,-4.2277,-3.9315,-3.6622,-3.6,-3.6808,-3.693,-3.4923,-3.416,-3.3583,0.0,-3.3672,-3.4884,-3.6669,-4.0976,-4.4866,-4.7586,0.0,0.0,0.0,0.0,0.0,0.0,-5.4732,-5.5005,-5.5279,-5.6138,-5.6606,-5.6606,-5.7113,-5.7543,-5.7816,-5.9261,-6.0119,-6.0432,-6.1291,-6.1718,-6.1718,-6.1718,-6.1718,-6.1676,-6.1595,-6.1605,-6.1674,-6.1456,-6.1442,-6.1576,-6.1602,-6.1504,-6.1259,-3.5501,-3.519,-3.5313,-3.5682,-3.7861,-4.0376,-4.29,-4.6042,-4.8615,-4.9967,-5.219,-5.3972,-5.4818,-5.5395,-5.5703,-5.5703,-5.5703,-5.5742,-5.5857,-5.528,-5.4357,-5.3049,-5.051,-4.8355,-4.674,-4.3316,-4.0816,-3.9354,-3.6815,-3.509,-3.4205,-3.4814,-3.5391,-3.6115,-4.0315,-4.4739,-4.9086,-5.0202,-5.4752,-6.105,-5.9908,-5.9435,-5.9281,-5.7638,-5.7214,-5.7434,0.0,-5.6626,-5.6588,-5.628,-5.7473,-5.8781,-5.706,-5.8473,-6.0281,-5.805,-5.7819,-5.8011,-5.6549,-5.5357,0.0,-5.3857,-5.2808,-5.1923,-5.201,-4.9048,-4.6163,-4.5855,-4.2239,-3.9277,-3.9885,-3.87,-3.7661,-3.7731,-3.5538,-3.3814,0.0,-3.2737,-3.2429,-3.3583,-3.7783,-4.2211,-4.6497,0.0,0.0,0.0,0.0,0.0,0.0,0.0,-5.4381,-5.5279,-5.5825,-5.6294,-5.6606,-5.7387,-5.7972,-5.8285,-5.9729,-6.0549,-6.0861,-6.1444,-6.1718,-6.1718,-6.1657,-6.166,-6.1674,-6.1495,-6.1495,-6.1598,-6.1316,-6.1285,-6.1401,-6.1427,-6.1272,-6.1018,-3.5576,-3.5395,-3.5709,-3.6596,-4.0127,-4.314,-4.401,-4.7798,-5.0824,-5.1698,-5.3364,-5.4818,-5.5665,-5.5742,-5.578,-5.5818,-5.5818,-5.6511,-5.8204,-5.6742,-5.6896,-5.9281,-5.5511,-5.328,-5.3203,-4.8279,-4.447,-4.1846,-3.9277,-3.6699,-3.4244,-3.5815,-3.6615,-3.6808,-3.9315,-4.4248,-5.0635,-5.0673,-5.4087,-5.9319,-5.7676,-5.7099,-5.7253,-5.7176,-5.8704,-6.0704,-5.8934,-5.8319,-5.8165,-5.7319,-5.7588,-5.8011,-5.6357,-5.6973,-5.7973,-5.6242,-5.6973,-5.8127,-5.7253,-5.5857,-5.5049,-5.6676,-5.4626,0.0,-5.4357,-5.3318,-5.1769,-5.1048,-4.8134,-4.621,-4.774,-4.3393,-4.0046,-4.1538,-3.8231,-3.4846,-3.3083,-3.1423,-3.1,-3.2699,-3.4571,-3.835,-4.5099,0.0,0.0,0.0,0.0,0.0,0.0,-5.4108,-5.4498,-5.5201,-5.5318,-5.5747,-5.6606,-5.7426,-5.8285,-5.918,-6.0039,-6.0898,-6.1718,-6.1674,-6.1674,-6.1674,-6.1526,-6.1573,-6.1663,-6.1328,-6.1298,-6.1471,-6.1266,-6.1165,-6.1189,-6.1027,-6.0913,-6.0804,-3.7502,-3.8115,-3.9021,-4.0053,-4.115,-4.2623,-4.4697,-4.7614,-5.0141,-5.1606,-5.3381,-5.5049,-5.6522,-5.6676,-5.6934,-5.7588,-5.7627,-5.7819,-5.828,-5.7896,-5.7627,-5.7638,-5.5972,-5.4472,-5.3241,-4.9433,-4.5932,-4.2777,-3.9585,-3.6699,-3.4205,-3.4629,-3.5507,-3.6769,-3.8738,-4.3401,-4.9779,-5.0442,-5.3741,-5.8511,-5.7445,-5.8523,-6.0639,0.0,-6.0435,-6.2281,-5.9358,-5.8319,-5.828,-5.805,-5.8127,-5.8204,-5.778,-5.7934,-5.8088,-5.6973,-5.7434,-5.8127,-5.7253,-5.7165,-5.7434,-5.7857,-5.7319,-5.6934,0.0,0.0,0.0,-5.3433,-5.0279,-4.7394,-4.724,-4.4893,-4.2739,-4.1923,-3.77,-3.393,-3.2237,-3.1077,-3.1,-3.2699,-3.5643,0.0,0.0,0.0,0.0,0.0,0.0,0.0,0.0,0.0,0.0,-5.4381,-5.5591,-5.6372,-5.6606,-5.805,-5.9183,-6.008,-6.0854,-6.14,-6.1676,-6.1447,-6.1417,-6.1521,-6.1379,-6.1304,-6.1322,-6.1128,-6.1143,-6.1259,-6.0993,-6.0892,-6.0902,-6.0964,-6.0964,-6.0933,-3.8959,-4.0116,-4.148,-4.243,-4.4182,-4.5809,-4.6859,-4.9273,-5.1687,-5.3777,-5.5264,-5.6665,-5.7934,-5.778,-5.778,-5.828,-5.8319,-5.8627,-5.9358,-5.8704,-5.8588,-5.9215,-5.7703,-5.6549,-5.5972,-5.2279,-4.8663,-4.5278,-4.1893,-3.8546,-3.5276,-3.5276,-3.6392,-3.8392,-3.9008,-4.347,-5.0625,-5.2587,-5.5318,-5.8204,-5.7368,-5.8599,0.0,-5.9858,-6.0627,-6.1973,-6.0089,-5.9396,-5.9319,-5.8934,-5.8819,-5.8781,-5.8396,-5.8319,-5.8204,-5.7703,-5.7665,-5.7703,-5.7588,-5.7357,-5.7357,-5.8127,-5.8011,-5.7934,-5.8781,-5.7396,-5.6011,0.0,-5.3356,-5.1202,-5.2241,-4.8894,-4.5393,-4.3739,-4.0123,-3.693,-3.5276,-3.393,-3.3231,-3.343,-3.6234,0.0,0.0,0.0,0.0,0.0,0.0,0.0,0.0,0.0,-5.524,-5.4576,-5.6216,-5.7113,-5.7113,-5.9156,-6.0194,-6.0311,-6.1042,-6.1412,-6.1465,-6.1298,-6.1272,-6.1373,-6.1189,-6.1167,-6.1172,-6.0993,-6.0993,-6.1095,-6.0888,-6.0781,-6.0804,-6.0899,-6.0902,-6.0882,-4.0579,-4.2036,-4.3718,-4.4656,-4.8018,-5.0473,-5.0101,-5.1952,-5.4205,-5.6433,-5.7555,-5.8473,-5.9396,-5.8896,-5.8511,-5.8627,-5.8627,-5.9242,-6.0704,-5.9319,-5.9435,-6.1678,-5.955,-5.8665,-5.9473,-5.5703,-5.2125,-4.8933,-4.5586,-4.1777,-3.7692,-3.7462,-3.8546,-4.0669,-4.0285,-4.4701,-5.2615,-5.5818,-5.7742,-5.855,-5.755,-5.8165,-5.9665,-5.9665,-6.0127,-6.0781,-6.0781,-6.0781,-6.0666,-5.9935,-5.9665,-5.955,-5.8858,-5.855,-5.8473,-5.8473,-5.7857,-5.7319,-5.8088,-5.7203,-5.6434,-5.805,-5.7896,-5.755,-5.8434,-5.9088,-5.9319,-5.8588,-5.6511,-5.5665,0.0,-5.3395,-4.8163,-4.6402,-4.4124,-4.2008,-4.02,-3.8546,-3.6969,-3.5391,0.0,0.0,0.0,0.0,0.0,0.0,0.0,0.0,0.0,0.0,-5.3914,-5.5083,-5.6755,-5.7729,-5.7921,0.0,-6.1037,-6.0526,-6.0955,-6.1172,-6.1186,-6.115,-6.1182,-6.1189,-6.1048,-6.1018,-6.1143,-6.092,-6.0867,-6.0945,-6.0861,-6.0781,-6.0781,-6.0781,-6.0781,-6.0781,-4.4045,-4.5416,-4.7146,-4.8873,-5.05,-5.2187,-5.4093,-5.4841,-5.5308,-5.5769,-5.6632,-5.7819,-5.9319,-5.9358,-5.9588,-6.0281,-6.0358,-6.0473,-6.0781,-5.9858,-5.9473,-5.9935,-5.8896,-5.8665,-5.9473,-5.7434,-5.5357,-5.3395,-4.9971,-4.6471,-4.2931,-4.1546,-4.1154,-4.1662,-4.3624,-4.8442,-5.5164,-5.7203,-5.8973,-6.0242,-5.8704,-5.9088,-6.055,-6.055,-6.0666,-6.0781,-6.0781,-6.0781,-6.0781,-6.0627,-6.055,-6.055,-6.0396,-5.9858,-5.9281,-5.9281,-5.8704,-5.8127,-5.828,-5.8088,-5.8088,-5.905,-5.9165,-5.9281,-6.0165,-5.9896,-5.9473,-5.9319,-5.7819,-5.6522,-5.6395,0.0,0.0,-4.9125,-4.7778,-4.6163,-4.3739,-4.2585,-4.1585,-4.0585,-4.2816,-4.3849,0.0,0.0,0.0,0.0,0.0,0.0,0.0,0.0,-5.6098,0.0,-5.5734,0.0,0.0,0.0,-6.0864,-6.2101,-6.1367,-6.1095,-6.1179,-6.0964,-6.0933,-6.1039,-6.091,-6.0834,-6.0867,-6.0816,-6.0816,-6.0839,-6.0804,-6.0781,-6.0781,-6.0781,-6.0781,-6.0781,-4.6497,-4.871,-5.0578,-5.0646,-5.3098,-5.5092,-5.5399,-5.6252,-5.709,-5.7582,-5.8423,-5.9435,-6.0704,-6.0858,-6.1012,-6.1435,-6.1858,-6.2089,-6.2089,-6.1704,-6.1281,-6.0858,-6.005,-5.9588,-5.9511,-5.828,-5.6626,-5.4511,-5.2856,-5.0048,-4.624,-4.547,-4.5316,-4.5893,-4.9317,-5.2905,-5.6445,-5.728,0.0,-6.0666,-5.8973,-5.9319,-6.0781,-6.0781,-6.0781,-6.0781,-6.0781,-6.0781,-6.0781,-6.0781,-6.0781,-6.0781,-6.0781,-6.0512,-6.0165,-6.0165,-5.9588,-5.8934,-5.8934,-5.8627,-5.8588,-5.9858,-5.9819,-5.9858,-6.1166,-6.1127,-6.0704,-6.0281,-5.9511,-5.8446,-5.6714,-5.678,0.0,-5.2587,-5.2049,-5.101,-4.8048,-4.6509,-4.5701,-4.574,-4.5717,-4.5549,0.0,0.0,0.0,0.0,0.0,0.0,0.0,0.0,-5.4597,0.0,0.0,0.0,0.0,0.0,0.0,-6.1707,-6.1167,-6.0933,-6.0983,-6.0856,-6.085,-6.091,-6.0839,-6.0781,-6.0781,-6.0781,-6.0781,-6.0781,-6.0781,-6.0781,-6.0781,-6.0781,-6.0781,-6.0781,-4.8865,-5.1533,-5.3442,-5.2361,-5.5388,-5.7609,-5.6384,-5.7429,-5.8704,-5.9607,-6.0334,-6.1192,-6.2231,-6.2358,-6.237,-6.237,-6.2935,-6.3308,-6.3308,-6.3308,-6.3012,-6.2358,-6.1358,-6.0473,-5.9781,-5.8973,-5.7588,-5.5549,-5.5549,-5.301,-4.8125,-4.9048,-4.9817,-5.0625,-5.4318,-5.6472,0.0,0.0,-5.8858,-6.0396,-5.9088,-5.9473,-6.0781,-6.0781,-6.0781,-6.0781,-6.0781,-6.0781,-6.0781,-6.0781,-6.0781,-6.0781,-6.0781,-6.0781,-6.0819,-6.1012,-6.0473,-5.9858,-6.0204,-5.9588,-5.9242,-6.0896,-6.0819,-6.0666,-6.205,-6.237,-6.2089,-6.1243,-6.0781,-5.9896,-5.7907,-5.9165,0.0,0.0,-5.6049,-5.5318,-5.2702,-5.0664,-4.9663,-5.0164,-4.8279,0.0,-4.7394,0.0,0.0,0.0,0.0,0.0,-5.191,0.0,0.0,0.0,0.0,-5.9272,-5.9995,0.0,-6.1717,-6.1244,-6.0949,-6.0781,-6.0781,-6.0781,-6.0781,-6.0781,-6.0781,-6.0781,-6.0781,-6.0781,-6.0781,-6.0781,-6.0781,-6.0781,-6.0781,-6.0781,-6.0781,-6.0781,-5.1926,-5.3413,-5.4971,-5.5897,-5.7123,-5.8183,-5.8744,-5.9039,-5.9498,-6.0367,-6.0622,-6.1312,-6.2925,-6.3168,-6.3205,-6.3205,-6.3281,-6.3308,-6.3308,-6.3308,-6.3281,-6.3205,-6.1666,-6.0742,-6.0666,-5.9819,-5.9281,-5.905,-5.905,-5.528,-4.8202,-5.2087,-5.3933,-5.4126,-5.6022,0.0,0.0,-5.9781,-6.0127,-5.9627,-5.9435,-5.9935,-6.0781,-6.0781,-6.0781,-6.0781,-6.0781,-6.0781,-6.0781,-6.0781,-6.0781,-6.0781,-6.0781,-6.0781,-6.0973,-6.1755,-6.1358,-6.1012,-6.2551,-6.1781,-6.0973,-6.2666,-6.3012,-6.3012,-6.3166,-6.3205,-6.2974,-6.2139,-6.0704,-5.955,-5.9319,-5.9473,-5.9742,0.0,-5.9011,-5.7934,-5.7627,-5.5472,-5.3626,-5.2933,-5.1923,0.0,0.0,0.0,0.0,0.0,-5.0008,0.0,0.0,0.0,0.0,-5.8161,-5.9108,-6.1109,-6.4203,-6.2045,-6.1289,-6.1982,-6.1177,-6.0781,-6.0781,-6.0781,-6.0781,-6.0781,-6.0781,-6.0781,-6.0781,-6.0781,-6.0781,-6.0781,-6.0781,-6.0781,-6.0781,-6.0781,-6.0781,-6.0781,-5.4112,-5.616,-5.7484,-5.6463,-5.8033,-5.9188,-5.8538,-5.9291,-6.0453,-6.1792,-6.171,-6.1914,-6.3066,-6.3744,-6.4089,-6.4089,-6.4551,-6.4859,-6.4859,-6.4859,-6.4628,-6.4089,-6.2935,-6.182,-6.0819,-6.0473,-6.0012,-5.9511,-6.055,-5.8973,-5.5011,-5.7242,-5.8011,-5.7511,0.0,-5.8704,-5.905,-5.9742,-5.9819,-5.9511,-5.9511,-6.0012,-6.0781,-6.0781,-6.0781,-6.0781,-6.0781,-6.0781,-6.0781,-6.0781,-6.0781,-6.0781,-6.0781,-6.0781,-6.0973,-6.1831,-6.187,-6.182,-6.3012,-6.2474,-6.1973,-6.3666,-6.332,-6.282,-6.3858,-6.4089,-6.3705,-6.237,-6.1127,-6.0127,-5.9588,-6.0742,-6.1396,-6.0204,0.0,-6.0204,-5.9165,-5.6819,-5.5472,-5.6165,-5.4126,-5.2433,0.0,0.0,0.0,0.0,0.0,0.0,0.0,0.0,0.0,-5.9872,0.0,-5.9941,-6.3873,-6.1828,-6.0973,-6.132,-6.0973,-6.0781,-6.0781,-6.0781,-6.0781,-6.0781,-6.0781,-6.0781,-6.0781,-6.0781,-6.0781,-6.0781,-6.0781,-6.0781,-6.0781,-6.0781,-6.0781,-6.0781,-5.5453,-5.7314,-5.8325,-5.7027,-5.8699,-5.9865,-5.8817,-5.9876,-6.1329,-6.2758,-6.2847,-6.3015,-6.3809,-6.4539,-6.4974,-6.4974,-6.5551,-6.5897,-6.5897,-6.5897,-6.5628,-6.5013,-6.4166,-6.2897,-6.1204,-6.1166,-6.0512,-5.9165,-6.1127,-6.0331,-5.6934,-5.755,-5.828,0.0,-5.9396,-5.9358,-5.9165,-5.9665,-5.9742,-5.9511,-5.9781,-6.0242,-6.0781,-6.0781,-6.0781,-6.0781,-6.0781,-6.0781,-6.0781,-6.0781,-6.0973,-6.1166,-6.1166,-6.1166,-6.1396,-6.2512,-6.2627,-6.2704,-6.3782,-6.3474,-6.3166,-6.4628,-6.4089,-6.3512,-6.4705,-6.4782,-6.4128,-6.2447,-6.1601,-6.0935,-6.005,-6.1358,-6.2127,-6.0819,0.0,-6.1473,-6.0704,-5.8434,-5.755,-5.955,-5.7627,-5.5895,-5.5126,-5.6088,0.0,0.0,0.0,0.0,0.0,0.0,0.0,0.0,0.0,0.0,-6.3281,-6.1627,-6.0781,-6.0781,-6.0781,-6.0781,-6.0781,-6.0781,-6.0781,-6.0781,-6.0781,-6.0781,-6.0781,-6.0781,-6.0781,-6.0781,-6.0781,-6.0781,-6.0781,-6.0781,-6.0781,-6.0781,-5.5849,-5.6192,-5.6724,-5.8219,-5.9203,-5.9969,-6.0387,-6.122,-6.2076,-6.2987,-6.3911,-6.473,-6.5493,-6.5768,-6.5859,-6.5859,-6.5897,-6.5897,-6.5897,-6.5897,-6.5897,-6.5859,-6.5051,-6.3782,-6.2139,-6.2101,-6.0858,-5.8319,-6.0858,-5.8215,-5.0827,-5.0827,-5.351,-5.8357,-5.9165,-5.905,-5.8434,-6.0089,-6.0281,-5.9588,-6.0435,-6.0781,-6.0781,-6.0781,-6.0781,-6.0781,-6.0781,-6.0781,-6.0781,-6.0781,-6.1358,-6.2101,-6.2101,-6.2101,-6.2409,-6.4089,-6.3974,-6.3666,-6.5397,-6.5243,-6.4782,-6.5667,-6.5859,-6.5859,-6.5859,-6.5205,-6.4128,-6.2447,-6.2101,-6.1831,-6.0935,-6.0819,-6.1358,-6.3012,0.0,0.0,-6.3,-6.105,-6.0396,-6.2935,-6.3192,-6.2204,-5.9665,-6.0973,0.0,0.0,-5.6022,-5.5857,-5.3356,-5.7165,-5.9473,-5.9511,-6.0319,0.0,-6.3269,-6.1627,-6.0781,-6.0781,-6.0781,-6.0781,-6.0781,-6.0781,-6.0781,-6.0781,-6.0781,-6.0781,-6.0781,-6.0781,-6.0781,-6.0781,-6.0781,-6.0781,-6.0781,-6.0781,-6.0781,-6.0781,-5.8018,-5.8628,-5.9048,-5.8925,-5.966,-6.0113,-5.9662,-6.1362,-6.2782,-6.3064,-6.4448,-6.5473,-6.5715,-6.5846,-6.5897,-6.5897,-6.5897,-6.5897,-6.5897,-6.5897,-6.5897,-6.5897,-6.5051,-6.4359,-6.382,-6.2666,-6.1716,-6.0896,0.0,0.0,0.0,-5.7857,-5.8434,-6.0012,-6.0281,-5.9896,-5.9204,-6.0319,-6.0281,-5.9588,-6.0435,-6.0781,-6.0781,-6.0781,-6.0781,-6.0781,-6.0781,-6.0781,-6.0896,-6.1473,-6.187,-6.2293,-6.3435,-6.3397,-6.3128,-6.4282,-6.4397,-6.4436,-6.559,-6.5243,-6.482,-6.5667,-6.5436,-6.5166,-6.5743,-6.5243,-6.4282,-6.3166,-6.2474,-6.1831,-6.0973,-6.0781,-6.0973,-6.1512,-6.1166,0.0,-6.1512,-6.0396,-5.9819,-6.0627,-5.9704,-5.8434,0.0,-5.8473,0.0,0.0,-6.1435,-6.0935,-5.6049,-5.706,0.0,0.0,-5.9858,0.0,-6.3281,-6.1627,-6.0781,-6.0781,-6.0781,-6.0781,-6.0781,-6.0781,-6.0781,-6.0781,-6.0781,-6.0781,-6.0781,-6.0781,-6.0781,-6.0781,-6.0781,-6.0781,-6.0781,-6.0781,-6.0781,-6.0781,-5.9023,-5.933,-5.9452,-5.9367,-5.986,-6.0099,-5.9739,-6.1592,-6.3088,-6.3142,-6.4692,-6.5807,-6.5833,-6.5872,0.0,-6.5897,-6.5897,-6.5897,-6.5897,-6.5897,-6.5897,-6.5897,-6.5397,-6.4936,-6.4628,-6.3551,0.0,-6.2101,-6.2101,-6.2101,-6.2101,-6.1562,-6.1089,-6.0819,-6.1127,-6.0973,-6.0512,-6.1396,-6.1243,-6.0512,-6.105,-6.1089,-6.0781,-6.0781,-6.0781,-6.0819,-6.1166,-6.1281,-6.1396,-6.2281,-6.2781,-6.3205,-6.4282,-6.4436,-6.4397,-6.4936,-6.5089,-6.5205,-6.5743,-6.5513,-6.5205,-6.5743,-6.5474,-6.5243,-6.5782,-6.5474,-6.4859,-6.3974,-6.3128,-6.2281,-6.1435,-6.1012,-6.0781,-6.0781,-6.0781,-6.0781,-6.0781,-6.0319,-6.0358,-6.132,0.0,0.0,0.0,-5.955,-6.0089,0.0,0.0,-6.1435,-5.7703,0.0,-5.9781,-6.0627,-5.9127,0.0,-6.1858,-6.1166,-6.0781,-6.0781,-6.0781,-6.0781,-6.0781,-6.0781,-6.0781,-6.0781,-6.0781,-6.0781,-6.0781,-6.0781,-6.0781,-6.0781,-6.0781,-6.0781,-6.0781,-6.0781,-6.0781,-6.0781,-5.9028,-5.8631,-5.851,-5.9642,-5.9896,-6.0098,-6.0578,-6.2101,-6.3267,-6.3438,-6.4872,-6.5897,-6.5974,-6.5936,-6.5897,-6.5897,0.0,0.0,-6.5897,-6.5897,-6.5897,-6.5897,-6.5897,-6.5513,-6.4705,-6.4628,-6.382,-6.2178,-6.2178,-6.2178,-6.2178,-6.2178,-6.1755,-6.1012,-6.182,-6.2178,-6.2216,-6.2974,-6.2858,-6.2178,-6.2139,-6.1589,-6.0858,-6.0819,-6.0781,-6.0896,-6.1793,-6.2101,-6.2216,-6.3089,-6.3935,-6.4628,-6.4666,-6.5243,-6.5897,-6.5897,-6.5897,-6.5897,-6.5897,-6.5897,-6.5897,-6.5897,-6.5897,-6.5897,-6.5897,-6.5897,-6.5628,-6.4782,-6.3897,-6.3051,-6.2255,-6.1408,-6.0781,-6.0781,-6.0781,-6.0781,-6.0781,-6.0781,-6.1666,-6.4051,0.0,0.0,0.0,-6.3012,-6.1769,0.0,0.0,-5.8704,-5.8819,0.0,-6.1781,-5.8396,-5.8357,-5.8742,-5.9473,-6.0358,-6.0781,-6.0781,-6.0781,-6.0781,-6.0781,-6.0781,-6.0781,-6.0781,-6.0781,-6.0781,-6.0781,-6.0781,-6.0781,-6.0781,-6.0781,-6.0781,-6.0781,-6.0781,-6.0781,-6.0781,0.0,0.0,-5.9544,-6.0135,-6.081,-6.1516,-6.2303,-6.3907,-6.5293,-6.601,-6.6486,-6.6808,-6.6821,-6.6282,-6.5897,-6.5897,-6.5897,-6.5897,-6.5897,-6.5897,-6.5897,-6.5897,-6.5897,-6.5782,-6.559,-6.4936,-6.4089,-6.3012,-6.3012,-6.3012,-6.3012,-6.3012,-6.2897,-6.2704,-6.2935,-6.3012,-6.3051,-6.3243,-6.3205,-6.2974,-6.2358,-6.1985,-6.1716,-6.105,-6.0781,-6.0896,-6.1793,-6.2101,-6.2332,-6.3782,-6.4436,-6.4705,-6.5397,-6.5743,-6.5897,-6.5897,-6.5897,-6.5897,-6.5897,-6.5897,-6.5897,-6.5897,-6.5897,-6.5897,-6.5897,-6.5897,-6.5628,-6.4782,-6.3897,-6.3051,-6.2255,-6.1408,-6.0781,-6.0781,-6.0781,-6.0781,-6.0781,-6.0781,-6.1012,0.0,-6.1127,-6.0627,-6.0435,-5.9858,-6.0512,0.0,0.0,-6.2704,-6.4012,-6.3589,-6.1781,-5.8396,-5.8896,-5.9319,-5.9511,-6.0358,-6.0781,-6.0781,-6.0781,-6.0781,-6.0781,-6.0781,-6.0781,-6.0781,-6.0781,-6.0781,-6.0781,-6.0781,-6.0781,-6.0781,-6.0781,-6.0781,-6.0781,-6.0781,-6.0781,-6.0781,-6.0015,-6.037,-6.0757,-6.1194,-6.1972,-6.2734,-6.3432,-6.5039,-6.6389,-6.6877,-6.7343,-6.7679,-6.7705,-6.6936,-6.6436,-6.6436,-6.609,-6.5897,-6.5897,-6.5897,-6.5897,-6.5897,-6.5897,-6.5897,-6.5897,-6.5436,-6.4974,-6.4474,-6.4474,-6.4282,-6.3897,-6.3897,-6.3897,-6.3897,-6.3897,-6.4128,-6.4474,-6.4474,-6.4282,-6.3858,-6.3435,-6.3012,-6.2589,-6.2127,-6.1935,-6.205,-6.2935,-6.3243,-6.3435,-6.4743,-6.5205,-6.5282,-6.5743,-6.5897,-6.5897,-6.5897,-6.5897,-6.5897,-6.5897,-6.5897,-6.5897,-6.5897,-6.5897,-6.5897,-6.5897,-6.5897,-6.5782,-6.5282,-6.4166,-6.3166,-6.2743,-6.1627,-6.0781,-6.0781,-6.0781,-6.0781,-6.0781,-6.0781,-6.0781,-6.0781,-6.0396,-6.0089,-6.0089,-5.9704,-6.0396,-6.2704,-6.2435,0.0,-6.3512,-6.2666,-6.132,-5.9511,-5.9473,-5.9704,-6.0089,-6.055,-6.0781,-6.0781,-6.0781,-6.0781,-6.0781,-6.0781,-6.0781,-6.0781,-6.0781,-6.0781,-6.0781,-6.0781,-6.0781,-6.0781,-6.0781,-6.0781,-6.0781,-6.0781,-6.0781,-6.0781,-6.0411,-6.1032,-6.1636,-6.21,-6.2965,-6.3751,-6.4311,-6.5871,-6.7072,-6.7308,-6.7947,-6.8416,-6.8564,-6.7808,-6.7282,-6.7282,-6.6551,-6.6013,-6.5897,-6.5897,-6.5897,-6.5897,-6.5897,-6.5897,-6.5897,-6.5897,-6.5897,-6.5897,-6.5897,-6.5513,-6.4782,-6.4782,-6.4782,-6.4782,-6.4782,-6.5205,-6.5897,-6.5897,-6.5474,-6.4782,-6.4666,-6.4166,-6.3462,-6.3346,-6.3308,-6.3423,-6.4282,-6.4589,-6.4743,-6.559,-6.5897,-6.5897,-6.5897,-6.5897,-6.5897,-6.5897,-6.5897,-6.5897,-6.5897,-6.5897,-6.5897,-6.5897,-6.5897,-6.5897,-6.5897,-6.5897,-6.5897,-6.5897,-6.4512,-6.3308,-6.3308,-6.1935,-6.1012,-6.1627,-6.1204,-6.1012,-6.1666,-6.1204,-6.0781,-6.0781,-6.0781,-6.0781,-6.0781,-6.0781,-6.0781,-6.0781,-6.0781,-6.0781,-6.0781,-6.0781,-6.0781,-6.0781,-6.0089,-6.005,-6.0781,-6.0781,-6.0781,-6.0781,-6.0781,-6.0781,-6.0781,-6.0781,-6.0781,-6.0781,-6.0781,-6.0781,-6.0781,-6.0781,-6.0781,-6.0781,-6.0781,-6.0781,-6.0781,-6.0781,-6.0781,-6.0781,-6.0853,-6.1013,-6.1214,-6.1636,-6.2972,-6.4251,-6.5007,-6.6632,-6.8148,-6.9259,-6.9032,-6.8877,-6.9275,-6.8666,-6.8205,-6.8205,-6.7398,-6.6628,-6.5936,-6.5897,-6.5897,-6.5897,-6.5897,-6.5897,-6.5897,-6.5897,-6.5897,-6.5897,-6.5897,-6.582,-6.5705,-6.5705,-6.5705,-6.5705,-6.5705,-6.5782,-6.5897,-6.5897,-6.582,-6.5628,-6.4897,-6.4512,-6.432,-6.3589,-6.3308,-6.3423,-6.4282,-6.4589,-6.4743,-6.559,-6.5897,-6.5897,-6.5897,-6.5897,-6.5897,-6.5897,-6.5897,-6.5897,-6.5897,-6.5897,-6.5897,-6.5897,-6.5897,-6.5897,-6.5897,-6.5897,-6.5897,-6.5897,-6.4512,-6.3308,-6.3308,-6.1935,-6.1973,-6.5551,-6.3128,-6.205,-6.5628,-6.3051,-6.0781,-6.0781,-6.0781,-6.0781,-6.0781,-6.0781,-6.0781,-6.0781,-6.0781,-6.0781,-6.0781,-6.0781,-6.0781,-6.0781,-6.0666,-6.0666,-6.0781,-6.0781,-6.0781,-6.0781,-6.0781,-6.0781,-6.0781,-6.0781,-6.0781,-6.0781,-6.0781,-6.0781,-6.0781,-6.0781,-6.0781,-6.0781,-6.0781,-6.0781,-6.0781,-6.0781,-6.0781,-6.0781,-6.1292,-6.1671,-6.2253,-6.3131,-6.4299,-6.5453,-6.6474,-6.7748,-6.8833,-6.9451,-6.9266,-6.9241,-6.9731,-6.9077,-6.8737,-6.8971,-6.8256,-6.7436,-6.659,-6.6128,-6.5897,-6.5897,-6.5897,-6.5897,-6.5897,-6.5897,-6.5897,-6.5897,-6.5897,-6.5897,-6.5897,-6.5897,-6.5897,-6.5897,-6.5897,-6.5897,-6.5897,-6.5897,-6.6128,-6.6474,-6.5628,-6.5551,-6.5859,-6.5013,-6.4705,-6.4743,-6.5166,-6.5282,-6.5359,-6.5743,-6.5897,-6.5897,-6.5897,-6.5897,-6.5897,-6.5897,-6.5897,-6.5897,-6.5897,-6.5897,-6.5897,-6.5897,-6.5897,-6.5897,-6.5897,-6.5897,-6.5897,-6.5897,-6.4897,-6.3858,-6.3397,-6.232,-6.1973,-6.3474,-6.205,-6.1473,-6.3435,-6.2012,-6.0781,-6.0781,-6.0781,-6.0781,-6.0781,-6.0781,-6.0781,-6.0781,-6.0781,-6.0781,-6.0781,-6.0781,-6.0781,-6.0781,-6.0781,-6.0781,-6.0781,-6.0781,-6.0781,-6.0781,-6.0781,-6.0781,-6.0781,-6.0781,-6.0781,-6.0781,-6.0781,-6.0781,-6.0781,-6.0781,-6.0781,-6.0781,-6.0781,-6.0781,-6.0781,-6.0781,-6.0781,-6.0781,-6.2181,-6.2842,-6.3701,-6.4681,-6.5554,-6.6439,-6.7344,-6.8264,-6.89,-6.901,-6.908,-6.9292,-6.9777,-6.9315,-6.9158,-6.9604,-6.8977,-6.8241,-6.7436,-6.6628,-6.609,-6.5897,-6.5897,-6.5897,-6.5897,-6.5897,-6.5897,-6.5897,-6.5897,-6.5897,-6.5897,-6.5897,-6.5897,-6.5897,-6.5897,-6.6013,-6.6167,-6.5974,-6.6474,-6.7321,-6.6513,-6.6667,-6.7321,-6.6474,-6.6167,-6.6128,-6.5974,-6.5897,-6.5897,-6.5897,-6.5897,-6.5897,-6.5897,-6.5897,-6.5897,-6.5897,-6.5897,-6.5897,-6.5897,-6.5897,-6.5897,-6.5897,-6.5897,-6.5897,-6.5897,-6.5897,-6.5897,-6.5897,-6.5205,-6.4397,-6.3743,-6.2781,-6.2216,-6.2512,-6.155,-6.1127,-6.2127,-6.1435,-6.0781,-6.0781,-6.0781,-6.0781,-6.0781,-6.0781,-6.0781,-6.0781,-6.0781,-6.0781,-6.0781,-6.0781,-6.0781,-6.0781,-6.0781,-6.0781,-6.0781,-6.0781,-6.0781,-6.0781,-6.0781,-6.0781,-6.0781,-6.0781,-6.0781,-6.0781,-6.0781,-6.0781,-6.0781,-6.0781,-6.0781,-6.0781,-6.0781,-6.0781,-6.0781,-6.0781,-6.0666,-6.0512,-6.3906,-6.4567,-6.5154,-6.5243,-6.5904,-6.6481,-6.6581,-6.7269,-6.7993,-6.8418,-6.8511,-6.8728,-6.9206,-6.9355,-6.9607,-7.0035,-6.9447,-6.8816,-6.8333,-6.7475,-6.6667,-6.5936,-6.5897,-6.5897,-6.5897,-6.5897,-6.5897,-6.5897,-6.5897,-6.5897,-6.5897,-6.5897,-6.5897,-6.5897,-6.5897,-6.632,-6.6974,-6.6205,-6.6821,-6.8244,-6.7359,-6.7513,-6.8205,-6.7321,-6.7013,-6.6898,-6.6167,-6.5897,-6.5897,-6.5897,-6.5897,-6.5897,-6.5897,-6.5897,-6.5897,-6.5897,-6.5897,-6.5897,-6.5897,-6.5897,-6.5897,-6.5897,-6.5897,-6.5897,-6.5897,-6.5897,-6.5897,-6.5897,-6.5205,-6.4589,-6.4512,-6.3205,-6.3358,-6.7205,-6.3897,-6.2166,-6.609,-6.3281,-6.0781,-6.0781,-6.0781,-6.0781,-6.0781,-6.0781,-6.0781,-6.0781,-6.0781,-6.0781,-6.0781,-6.0781,-6.0781,-6.0781,-6.0781,-6.0781,-6.0781,-6.0781,-6.0781,-6.0781,-6.0781,-6.0781,-6.0781,-6.0781,-6.0781,-6.0781,-6.0781,-6.0781,-6.0781,-6.0781,-6.0781,-6.0781,-6.0781,-6.0781,-6.0781,-6.0781,-6.0281,-5.9588,-6.464,-6.4677,-6.4861,-6.5888,-6.6292,-6.6659,-6.7173,-6.7504,-6.7767,-6.7941,-6.7982,-6.8198,-6.8665,-6.8833,-6.908,-6.951,-6.9601,-6.9365,-6.8679,-6.8143,-6.7268,-6.5974,-6.5897,-6.5897,-6.5897,-6.5897,-6.5897,-6.5897,-6.5897,-6.5897,-6.5897,-6.5897,-6.5897,-6.5897,-6.5897,-6.6359,-6.709,-6.6782,-6.7628,-6.9129,-6.8244,-6.8436,-6.9129,-6.8244,-6.7552,-6.7051,-6.6744,-6.632,-6.5897,-6.5897,-6.5897,-6.5897,-6.5897,-6.5897,-6.5897,-6.5897,-6.5897,-6.5897,-6.5897,-6.5897,-6.5897,-6.5897,-6.5897,-6.5897,-6.5897,-6.5897,-6.5897,-6.5897,-6.5628,-6.5243,-6.4705,-6.3628,-6.3205,-6.432,-6.2435,-6.1358,-6.2974,-6.182,-6.0781,-6.0781,-6.0781,-6.0781,-6.0781,-6.0781,-6.0781,-6.0781,-6.0781,-6.0781,-6.0781,-6.0781,-6.0781,-6.0781,-6.0781,-6.0781,-6.0781,-6.0781,-6.0781,-6.0781,-6.0781,-6.0781,-6.0781,-6.0781,-6.0781,-6.0781,-6.0781,-6.0781,-6.0781,-6.0781,-6.0781,-6.0781,-6.0781,-6.0781,-6.0781,-6.0781,-6.0242,-5.9511,-6.5081,-6.5264,-6.5558,-6.6659,-6.688,-6.7063,-6.7614,-6.7687,-6.7687,-6.7687,-6.7687,-6.781,-6.816,-6.8272,-6.8487,-6.8928,-6.935,-6.9285,-6.8595,-6.8012,-6.7146,-6.5936,-6.5897,-6.5897,-6.5897,-6.5781,-6.569,-6.569,-6.5594,-6.5608,-6.569,-6.569,-6.5781,-6.5897,-6.5897,-6.6513,-6.7475,-6.7205,-6.8244,-7.0014,-6.9167,-6.9321,-6.9975,-6.9129,-6.8282,-6.7475,-6.7205,-6.659,-6.5897,-6.5897,-6.5897,-6.5897,-6.5897,-6.5897,-6.5897,-6.5897,-6.5897,-6.5897,-6.5897,-6.5897,-6.5897,-6.5897,-6.5897,-6.5897,-6.5897,-6.5897,-6.5897,-6.5897,-6.5897,-6.5705,-6.5128,-6.432,-6.3551,-6.2974,-6.2166,-6.1512,-6.1243,-6.1204,-6.1089,-6.0819,-6.0781,-6.0781,-6.0781,-6.0781,-6.0781,-6.0781,-6.0781,-6.0781,-6.0781,-6.0781,-6.0781,-6.0781,-6.0781,-6.0781,-6.0781,-6.0781,-6.0781,-6.0781,-6.0781,-6.0781,-6.0781,-6.0781,-6.0781,-6.0781,-6.0781,-6.0781,-6.0781,-6.0781,-6.0781,-6.0781,-6.0781,-6.0781,-6.0781,-6.0781,-6.0089,-5.9127,-6.5338,-6.6586,-6.7687,-6.7687,-6.7687,-6.7687,-6.7687,-6.7687,-6.7687,-6.7687,-6.7687,-6.7687,-6.7687,-6.782,-6.8058,-6.8464,-6.8628,-6.8525,-6.8027,-6.6947,-6.617,-6.591,-6.5897,-6.5897,-6.5897,-6.5499,-6.5299,-6.5299,-6.4888,-6.4888,-6.5284,-6.5284,-6.5499,-6.5897,-6.5897,-6.6821,-6.8346,-6.7475,-6.859,-7.0821,-7.0014,-7.0206,-7.0821,-7.0014,-6.9167,-6.8282,-6.7398,-6.659,-6.5897,-6.5897,-6.5897,-6.5897,-6.5897,-6.5897,-6.5897,-6.5897,-6.5897,-6.5897,-6.5897,-6.5897,-6.5897,-6.5897,-6.5897,-6.5897,-6.5897,-6.5897,-6.5897,-6.5897,-6.5897,-6.5897,-6.5897,-6.5205,-6.4589,-6.4589,-6.3858,-6.3012,-6.2216,-6.2101,-6.1793,-6.0896,-6.0781,-6.0781,-6.0781,-6.0781,-6.0781,-6.0781,-6.0781,-6.0781,-6.0781,-6.0781,-6.0781,-6.0781,-6.0781,-6.0781,-6.0781,-6.0781,-6.0781,-6.0781,-6.0781,-6.0781,-6.0781,-6.0781,-6.0781,-6.0781,-6.0781,-6.0781,-6.0781,-6.0781,-6.0781,-6.0781,-6.0781,-6.0781,-6.0781,-6.0781,-5.9742,-5.8319,-6.6769,-6.6916,-6.7026,-6.7577,-6.7687,-6.7687,-6.7687,-6.7687,-6.7687,-6.7687,-6.7687,-6.7687,-6.7687,-6.7741,-6.7784,-6.793,-6.8272,-6.8076,-6.7153,-6.69,-6.6248,-6.4959,-6.5542,-6.5768,-6.5485,-6.5635,-6.5594,-6.5299,-6.5191,-6.5041,-6.4871,-6.4871,-6.4921,-6.5112,-6.5994,-6.6978,-6.8027,-6.8663,-6.9706,-7.0898,-7.0629,-7.0706,-7.086,-7.0629,-6.9667,-6.8359,-6.8129,-6.709,-6.5897,-6.5897,-6.5897,-6.5872,-6.558,-6.5485,-6.5441,-6.5137,-6.5057,-6.5057,-6.4954,-6.4921,-6.5067,-6.5755,-6.5897,-6.5897,-6.5897,-6.5897,-6.5897,-6.5897,-6.5897,-6.5897,-6.5897,-6.5205,-6.4589,-6.4589,-6.3858,-6.3012,-6.2216,-6.2101,-6.1793,-6.0896,-6.0781,-6.0781,-6.0781,-6.0781,-6.0781,-6.0781,-6.0781,-6.0781,-6.0781,-6.0781,-6.0781,-6.0781,-6.0781,-6.0781,-6.0781,-6.0781,-6.0781,-6.0781,-6.0781,-6.0781,-6.0781,-6.0781,-6.0781,-6.0781,-6.0781,-6.0781,-6.0781,-6.0781,-6.0781,-6.0781,-6.0781,-6.0781,-6.0742,-6.0127,-5.9204,-5.8204,-6.7026,-6.71,-6.7136,-6.7614,-6.7687,-6.7687,-6.7687,-6.7687,-6.7687,-6.7687,-6.7687,-6.7687,-6.7687,-6.7687,-6.7687,-6.7687,-6.7967,-6.7752,-6.693,-6.6687,-6.6039,-6.4744,-6.509,-6.5329,-6.5299,-6.5238,-6.5175,-6.5057,-6.4772,-6.4593,-6.452,-6.4841,-6.5047,-6.5285,-6.6532,-6.7436,-6.81,-6.9218,-7.006,-7.069,-7.0857,-7.0898,-7.0898,-7.0898,-7.009,-6.8859,-6.8513,-6.7513,-6.632,-6.6013,-6.5897,-6.5808,-6.5441,-6.5299,-6.5238,-6.482,-6.4699,-6.4681,-6.4536,-6.4518,-6.4626,-6.5168,-6.5441,-6.5608,-6.5833,-6.5833,-6.5781,-6.5859,-6.5859,-6.5846,-6.5781,-6.5372,-6.5077,-6.5013,-6.4539,-6.3937,-6.3168,-6.2745,-6.2219,-6.1396,-6.1012,-6.0781,-6.0781,-6.0781,-6.0781,-6.0781,-6.0781,-6.0781,-6.0781,-6.0781,-6.0781,-6.0781,-6.0781,-6.0781,-6.0781,-6.0781,-6.0781,-6.0781,-6.0781,-6.0781,-6.0781,-6.0781,-6.0781,-6.0781,-6.0781,-6.0781,-6.0781,-6.0781,-6.0781,-6.0781,-6.0781,-6.0589,-6.0204,-5.9704,-5.9011,-5.8204,-6.6623,-6.7173,-6.7687,-6.7687,-6.7687,-6.7687,-6.7687,-6.7687,-6.7687,-6.7687,-6.7687,-6.7687,-6.7687,-6.7687,-6.7687,-6.7687,-6.7687,-6.7546,-6.7155,-6.6384,-6.5634,-6.4949,-6.459,-6.4626,-6.5137,-6.4538,-6.435,-6.4646,-6.4004,-6.3867,-6.4261,-6.5011,-6.559,-6.6086,-6.7254,-6.8019,-6.8414,-6.9322,-6.9873,-7.0233,-7.0608,-7.0762,-7.0762,-7.0762,-7.0263,-6.9418,-6.8573,-6.7689,-6.6844,-6.6077,-6.5821,-6.5768,-6.5427,-6.5268,-6.5137,-6.4751,-6.461,-6.4574,-6.4407,-6.4389,-6.4389,-6.4313,-6.461,-6.5009,-6.5537,-6.5594,-6.558,-6.5688,-6.5767,-6.5715,-6.5608,-6.5701,-6.5715,-6.5608,-6.5594,-6.5339,-6.4537,-6.3732,-6.2925,-6.2117,-6.1308,-6.0781,-6.0781,-6.0781,-6.0781,-6.0781,-6.0781,-6.0781,-6.0781,-6.0781,-6.0781,-6.0781,-6.0781,-6.0781,-6.0781,-6.0781,-6.0781,-6.0781,-6.0781,-6.0781,-6.0781,-6.0781,-6.0781,-6.0781,-6.0781,-6.0781,-6.0781,-6.0781,-6.0781,-6.0781,-6.0781,-6.0319,-5.9627,-5.9511,-5.905,-5.8396,-6.743,-6.7577,-6.7687,-6.7687,-6.7687,-6.7687,-6.7687,-6.7687,-6.7687,-6.7687,-6.7687,-6.7687,-6.7687,-6.7687,-6.7687,-6.7687,-6.7687,-6.74,-6.6721,-6.6012,-6.5238,-6.4413,-6.3799,-6.3674,-6.4116,-6.4426,-6.4464,-6.4134,-6.4108,-6.4278,-6.4666,-6.4853,-6.533,-6.6112,-6.7334,-6.7851,-6.7931,-6.9058,-6.9512,-6.953,-6.9607,-6.9645,-6.9645,-6.9645,-6.9114,-6.828,-6.7446,-6.6612,-6.5869,-6.5436,-6.5276,-6.5276,-6.5299,-6.4987,-6.459,-6.4273,-6.3946,-6.3624,-6.34,-6.34,-6.3513,-6.3653,-6.3761,-6.3975,-6.4574,-6.4904,-6.5121,-6.5191,-6.5427,-6.5622,-6.5608,-6.5608,-6.5622,-6.5594,-6.5594,-6.5217,-6.4024,-6.3493,-6.2758,-6.1607,-6.1071,-6.0781,-6.0781,-6.0781,-6.0781,-6.0781,-6.0781,-6.0781,-6.0781,-6.0781,-6.0781,-6.0781,-6.0781,-6.0781,-6.0781,-6.0781,-6.0781,-6.0781,-6.0781,-6.0781,-6.0781,-6.0781,-6.0781,-6.0781,-6.0781,-6.0781,-6.0781,-6.0781,-6.0781,-6.0781,-6.0781,-6.0666,-6.0435,-5.9742,-5.9396,-5.9165,-6.7687,-6.7687,-6.7687,-6.7687,-6.7687,-6.7687,-6.7687,-6.7687,-6.7687,-6.7687,-6.7687,-6.7687,-6.7687,-6.7687,-6.7687,-6.7687,-6.7687,-6.7504,-6.71,-6.604,-6.522,-6.4742,-6.369,-6.3158,-6.3331,-6.3761,-6.3971,-6.3888,-6.3776,-6.4041,-6.4604,-6.5012,-6.5679,-6.6518,-6.774,-6.8144,-6.7966,-6.8976,-6.9231,-6.9037,-6.9231,-6.9313,-6.9313,-6.9313,-6.9011,-6.85,-6.767,-6.6614,-6.5521,-6.4964,-6.4904,-6.4987,-6.4681,-6.4537,-6.4313,-6.3798,-6.346,-6.3242,-6.3051,-6.3051,-6.3123,-6.3158,-6.3181,-6.3377,-6.4119,-6.4426,-6.4592,-6.459,-6.4803,-6.5009,-6.5175,-6.5222,-6.5322,-6.5479,-6.5494,-6.5297,-6.4627,-6.3565,-6.2653,-6.2233,-6.1169,-6.0533,-6.0769,-6.0781,-6.0781,-6.0781,-6.0781,-6.0781,-6.0781,-6.0781,-6.0781,-6.0781,-6.0781,-6.0781,-6.0781,-6.0781,-6.0781,-6.0781,-6.0781,-6.0781,-6.0781,-6.0781,-6.0781,-6.0781,-6.0781,-6.0781,-6.0781,-6.0781,-6.0781,-6.0781,-6.0781,-6.055,-6.0127,-5.9665,-5.9511,-5.9511,-6.7687,-6.7687,-6.7687,-6.7687,-6.7687,-6.7687,-6.7687,-6.7687,-6.7687,-6.7687,-6.7687,-6.7687,-6.7687,-6.7687,-6.7687,-6.7687,-6.7687,-6.7687,-6.7687,-6.6182,-6.5301,-6.5301,-6.3787,-6.2904,-6.2805,-6.3149,-6.3447,-6.3653,-6.3493,-6.3822,-6.4635,-6.5484,-6.6334,-6.7135,-6.8169,-6.8394,-6.8095,-6.875,-6.8862,-6.8535,-6.8906,-6.9021,-6.9021,-6.9021,-6.9021,-6.8908,-6.8044,-6.6708,-6.5264,-6.4668,-6.4614,-6.4664,-6.4076,-6.4056,-6.4136,-6.3445,-6.3218,-6.3123,-6.3002,-6.2978,-6.2978,-6.283,-6.278,-6.3014,-6.3771,-6.3995,-6.4016,-6.4059,-6.4138,-6.4275,-6.4612,-6.4739,-6.4896,-6.5252,-6.5298,-6.5314,-6.539,-6.3762,-6.2671,-6.2868,-6.1229,-6.0255,-6.0622,-6.0734,-6.0769,-6.0769,-6.0781,-6.0781,-6.0781,-6.0781,-6.0781,-6.0781,-6.0781,-6.0781,-6.0781,-6.0781,-6.0781,-6.0781,-6.0781,-6.0781,-6.0781,-6.0781,-6.0781,-6.0781,-6.0781,-6.0781,-6.0819,-6.0973,-6.0935,-6.0819,-6.0973,-6.0473,-5.9704,-5.9704,-5.9704,-5.9819,-6.7687,-6.7687,-6.7687,-6.7687,-6.7687,-6.7687,-6.7687,-6.7687,-6.7687,-6.7687,-6.7687,-6.7687,-6.7687,-6.7687,-6.7687,-6.7687,-6.7687,-6.7687,-6.7687,-6.6182,-6.5301,-6.5301,-6.3686,-6.2805,-6.278,-6.3564,-6.3689,-6.311,-6.3872,-6.4672,-6.5521,-6.6334,-6.7146,-6.7948,-6.8134,-6.8095,-6.7915,-6.8033,-6.7982,-6.7836,-6.7878,-6.7904,-6.7904,-6.7904,-6.7904,-6.7793,-6.6982,-6.5692,-6.4328,-6.4644,-6.4342,-6.385,-6.4235,-6.4056,-6.368,-6.3587,-6.3285,-6.3002,-6.2855,-6.2904,-6.2978,-6.283,-6.278,-6.283,-6.2965,-6.3285,-6.3602,-6.3587,-6.385,-6.4136,-6.4176,-6.4196,-6.4369,-6.481,-6.4862,-6.4862,-6.4879,-6.4044,-6.3048,-6.2084,-6.0823,-6.003,-6.0089,-6.0494,-6.071,-6.071,-6.0757,-6.0781,-6.0781,-6.0781,-6.0781,-6.0781,-6.0781,-6.0781,-6.0781,-6.0781,-6.0781,-6.0781,-6.0781,-6.0781,-6.0781,-6.0781,-6.0781,-6.0781,-6.0781,-6.0781,-6.0858,-6.1589,-6.1485,-6.0858,-6.1639,-6.1408,-6.0627,-6.0627,-6.0627,-6.0627,-6.7687,-6.7687,-6.7687,-6.7687,-6.7687,-6.7687,-6.7687,-6.7687,-6.7687,-6.7687,-6.7687,-6.7687,-6.7687,-6.7687,-6.7687,-6.7687,-6.7687,-6.7687,-6.7687,-6.6182,-6.5301,-6.5301,-6.4163,-6.3539,-6.3539,-6.4347,-6.4593,-6.4276,-6.4719,-6.5333,-6.6143,-6.6511,-6.71,-6.7899,-6.7899,-6.7847,-6.7794,-6.7794,-6.7767,-6.7687,-6.7687,-6.7687,-6.7687,-6.7687,-6.7687,-6.7577,-6.6769,-6.6035,-6.5316,-6.4636,-6.4331,-6.4153,-6.3669,-6.352,-6.3476,-6.3238,-6.3014,-6.288,-6.2805,-6.283,-6.288,-6.2805,-6.278,-6.278,-6.278,-6.2941,-6.311,-6.311,-6.3238,-6.3453,-6.3718,-6.3761,-6.3909,-6.435,-6.4407,-6.4501,-6.4757,-6.3691,-6.2348,-6.0898,-6.0055,-5.9696,-5.9969,-6.0199,-6.0416,-6.0685,-6.0722,-6.0746,-6.0781,-6.0781,-6.0781,-6.0781,-6.0781,-6.0781,-6.0781,-6.0781,-6.0781,-6.0781,-6.0781,-6.0781,-6.0781,-6.0781,-6.0781,-6.0781,-6.0781,-6.0512,-6.0127,-6.1012,-6.0858,-6.0165,-6.1012,-6.1127,-6.0781,-6.0781,-6.0781,-6.0781]},{"header":{"parameterUnit":"m.s-1","parameterCategory":1,"la1":30.6,"la2":28.766,"lo1":-90.7593,"lo2":-88.6598,"dx":0.0162,"dy":0.0183,"nx":116,"ny":114,"refTime":"2022-12-03T06:00:00:Z","depth":0,"parameterNumber":3,"parameterNumberName":"V-component_of_WINDS"},"data":[0.0,0.0,0.0,0.0,0.0,0.0,0.0,0.0,0.0,0.0,0.0,0.0,0.0,0.0,0.0,0.0,0.0,0.0,0.0,0.0,0.0,0.0,0.0,0.0,0.0,0.0,0.0,0.0,0.0,0.0,0.0,0.0,0.0,0.0,0.0,0.0,0.0,0.0,0.0,0.0,0.0,0.0,0.0,0.0,0.0,0.0,0.0,0.0,0.0,0.0,0.0,0.0,0.0,0.0,0.0,0.0,0.0,0.0,0.0,0.0,0.0,0.0,0.0,0.0,0.0,0.0,0.0,0.0,0.0,0.0,0.0,0.0,0.0,0.0,0.0,0.0,0.0,0.0,0.0,0.0,0.0,0.0,0.0,0.0,0.0,0.0,0.0,0.0,0.0,0.0,0.0,0.0,0.0,0.0,0.0,0.0,0.0,0.0,0.0,0.0,0.0,0.0,0.0,0.0,0.0,0.0,0.0,0.0,0.0,0.0,0.0,0.0,0.0,0.0,0.0,0.0,0.0,0.0,0.0,0.0,0.0,0.0,0.0,0.0,0.0,0.0,0.0,0.0,0.0,0.0,0.0,0.0,0.0,0.0,0.0,0.0,0.0,0.0,0.0,0.0,0.0,0.0,0.0,0.0,0.0,0.0,0.0,0.0,0.0,0.0,0.0,0.0,0.0,0.0,0.0,0.0,0.0,0.0,0.0,0.0,0.0,0.0,0.0,0.0,0.0,0.0,0.0,0.0,0.0,0.0,0.0,0.0,0.0,0.0,0.0,0.0,0.0,0.0,0.0,0.0,0.0,0.0,0.0,0.0,0.0,0.0,0.0,0.0,0.0,0.0,0.0,0.0,0.0,0.0,0.0,0.0,0.0,0.0,0.0,0.0,0.0,0.0,0.0,0.0,0.0,0.0,0.0,0.0,0.0,0.0,0.0,0.0,0.0,0.0,0.0,0.0,0.0,0.0,0.0,0.0,0.0,0.0,0.0,0.0,0.0,0.0,0.0,0.0,0.0,0.0,0.0,0.0,0.0,0.0,0.0,0.0,0.0,0.0,0.0,0.0,0.0,0.0,0.0,0.0,0.0,0.0,0.0,0.0,0.0,0.0,0.0,0.0,0.0,0.0,0.0,0.0,0.0,0.0,0.0,0.0,0.0,0.0,0.0,0.0,0.0,0.0,0.0,0.0,0.0,0.0,0.0,0.0,0.0,0.0,0.0,0.0,0.0,0.0,0.0,0.0,0.0,0.0,0.0,0.0,0.0,0.0,0.0,0.0,0.0,0.0,0.0,0.0,0.0,0.0,0.0,0.0,0.0,0.0,0.0,0.0,0.0,0.0,0.0,0.0,0.0,0.0,0.0,0.0,0.0,0.0,0.0,0.0,0.0,0.0,0.0,0.0,0.0,0.0,0.0,0.0,0.0,0.0,0.0,0.0,0.0,0.0,0.0,0.0,0.0,0.0,0.0,0.0,0.0,0.0,0.0,0.0,0.0,0.0,0.0,0.0,0.0,0.0,0.0,0.0,0.0,0.0,0.0,0.0,0.0,0.0,0.0,0.0,0.0,0.0,0.0,0.0,0.0,0.0,0.0,0.0,0.0,0.0,0.0,0.0,0.0,0.0,0.0,0.0,0.0,0.0,0.0,0.0,0.0,0.0,0.0,0.0,0.0,0.0,0.0,0.0,0.0,0.0,0.0,0.0,0.0,0.0,0.0,0.0,0.0,0.0,0.0,0.0,0.0,0.0,0.0,0.0,0.0,0.0,0.0,0.0,0.0,0.0,0.0,0.0,0.0,0.0,0.0,0.0,0.0,0.0,0.0,0.0,0.0,0.0,0.0,0.0,0.0,0.0,0.0,0.0,0.0,0.0,0.0,0.0,0.0,0.0,0.0,0.0,0.0,0.0,0.0,0.0,0.0,0.0,0.0,0.0,0.0,0.0,0.0,0.0,0.0,0.0,0.0,0.0,0.0,0.0,0.0,0.0,0.0,0.0,0.0,0.0,0.0,0.0,0.0,0.0,0.0,0.0,0.0,0.0,0.0,0.0,0.0,0.0,0.0,0.0,0.0,0.0,0.0,0.0,0.0,0.0,0.0,0.0,0.0,0.0,0.0,0.0,0.0,0.0,0.0,0.0,0.0,0.0,0.0,0.0,0.0,0.0,0.0,0.0,0.0,0.0,0.0,0.0,0.0,0.0,0.0,0.0,0.0,0.0,0.0,0.0,0.0,0.0,0.0,0.0,0.0,0.0,0.0,0.0,0.0,0.0,0.0,0.0,0.0,0.0,0.0,0.0,0.0,0.0,0.0,0.0,0.0,0.0,0.0,0.0,0.0,0.0,0.0,0.0,0.0,0.0,0.0,0.0,0.0,0.0,0.0,0.0,0.0,0.0,0.0,0.0,0.0,0.0,0.0,0.0,0.0,0.0,0.0,0.0,0.0,0.0,0.0,0.0,0.0,0.0,0.0,0.0,0.0,0.0,0.0,0.0,0.0,0.0,0.0,0.0,0.0,0.0,0.0,0.0,0.0,0.0,0.0,0.0,0.0,0.0,0.0,0.0,0.0,0.0,0.0,0.0,0.0,0.0,0.0,0.0,0.0,0.0,0.0,0.0,0.0,0.0,0.0,0.0,0.0,0.0,0.0,0.0,0.0,0.0,0.0,0.0,0.0,0.0,0.0,0.0,0.0,0.0,0.0,0.0,0.0,0.0,0.0,0.0,0.0,0.0,0.0,0.0,0.0,0.0,0.0,0.0,0.0,0.0,0.0,0.0,0.0,0.0,0.0,0.0,0.0,0.0,0.0,0.0,0.0,0.0,0.0,0.0,0.0,0.0,0.0,0.0,0.0,0.0,0.0,0.0,0.0,0.0,0.0,0.0,0.0,0.0,0.0,0.0,0.0,0.0,0.0,0.0,0.0,0.0,0.0,0.0,0.0,0.0,0.0,0.0,0.0,0.0,0.0,0.0,0.0,0.0,0.0,0.0,0.0,0.0,0.0,0.0,0.0,0.0,0.0,0.0,0.0,0.0,0.0,0.0,0.0,0.0,0.0,0.0,0.0,0.0,0.0,0.0,0.0,0.0,0.0,0.0,0.0,0.0,0.0,0.0,0.0,0.0,0.0,0.0,0.0,0.0,0.0,0.0,0.0,0.0,0.0,0.0,0.0,0.0,0.0,0.0,0.0,0.0,0.0,0.0,0.0,0.0,0.0,0.0,0.0,0.0,0.0,0.0,0.0,0.0,0.0,0.0,0.0,0.0,0.0,0.0,0.0,0.0,0.0,0.0,0.0,0.0,0.0,0.0,0.0,0.0,0.0,0.0,0.0,0.0,0.0,0.0,0.0,0.0,0.0,0.0,0.0,0.0,0.0,0.0,0.0,0.0,0.0,0.0,0.0,0.0,0.0,0.0,0.0,0.0,0.0,0.0,0.0,0.0,0.0,0.0,0.0,0.0,0.0,0.0,0.0,0.0,0.0,0.0,0.0,0.0,0.0,0.0,0.0,0.0,0.0,0.0,0.0,0.0,0.0,0.0,0.0,0.0,0.0,0.0,0.0,0.0,0.0,0.0,0.0,0.0,0.0,0.0,0.0,0.0,0.0,0.0,0.0,0.0,0.0,0.0,0.0,0.0,0.0,0.0,0.0,0.0,0.0,0.0,0.0,0.0,0.0,0.0,0.0,0.0,0.0,0.0,0.0,0.0,0.0,0.0,0.0,0.0,0.0,0.0,0.0,0.0,0.0,0.0,0.0,0.0,0.0,0.0,0.0,0.0,0.0,0.0,0.0,0.0,0.0,0.0,0.0,0.0,0.0,0.0,0.0,0.0,0.0,0.0,0.0,0.0,0.0,0.0,0.0,0.0,0.0,0.0,0.0,0.0,0.0,0.0,0.0,0.0,0.0,0.0,0.0,0.0,0.0,0.0,0.0,0.0,0.0,0.0,0.0,0.0,0.0,0.0,0.0,0.0,0.0,0.0,0.0,0.0,0.0,0.0,0.0,0.0,0.0,0.0,0.0,0.0,0.0,0.0,0.0,0.0,0.0,0.0,0.0,0.0,0.0,0.0,0.0,0.0,0.0,0.0,0.0,0.0,0.0,0.0,0.0,0.0,0.0,0.0,0.0,0.0,0.0,0.0,0.0,0.0,0.0,0.0,0.0,0.0,0.0,0.0,0.0,0.0,0.0,0.0,0.0,0.0,0.0,0.0,0.0,0.0,0.0,0.0,0.0,0.0,0.0,0.0,0.0,0.0,0.0,0.0,0.0,0.0,0.0,0.0,0.0,0.0,0.0,0.0,0.0,0.0,0.0,0.0,0.0,0.0,0.0,0.0,0.0,0.0,0.0,0.0,0.0,0.0,0.0,0.0,0.0,0.0,0.0,0.0,0.0,0.0,0.0,0.0,0.0,0.0,0.0,0.0,0.0,0.0,0.0,0.0,0.0,0.0,0.0,0.0,0.0,0.0,0.0,0.0,0.0,0.0,0.0,0.0,0.0,0.0,0.0,0.0,0.0,0.0,0.0,0.0,0.0,0.0,0.0,0.0,0.0,0.0,0.0,0.0,0.0,0.0,0.0,0.0,0.0,0.0,0.0,0.0,0.0,0.0,0.0,0.0,0.0,0.0,0.0,0.0,0.0,0.0,0.0,0.0,0.0,0.0,0.0,0.0,0.0,0.0,0.0,0.0,0.0,0.0,0.0,0.0,0.0,0.0,0.0,0.0,0.0,0.0,0.0,0.0,0.0,0.0,0.0,0.0,0.0,0.0,0.0,0.0,0.0,0.0,0.0,0.0,0.0,0.0,0.0,0.0,0.0,0.0,0.0,0.0,0.0,0.0,0.0,0.0,0.0,0.0,0.0,0.0,0.0,0.0,0.0,0.0,0.0,0.0,0.0,0.0,0.0,0.0,0.0,0.0,0.0,0.0,0.0,0.0,0.0,0.0,0.0,0.0,0.0,0.0,0.0,0.0,0.0,0.0,0.0,0.0,0.0,0.0,0.0,0.0,0.0,0.0,0.0,0.0,0.0,0.0,0.0,0.0,0.0,0.0,0.0,0.0,0.0,0.0,0.0,0.0,0.0,0.0,0.0,0.0,0.0,0.0,0.0,0.0,0.0,0.0,0.0,0.0,0.0,0.0,0.0,0.0,0.0,0.0,0.0,0.0,0.0,0.0,0.0,0.0,0.0,0.0,0.0,0.0,0.0,0.0,0.0,0.0,0.0,0.0,0.0,0.0,0.0,0.0,0.0,0.0,0.0,0.0,0.0,0.0,0.0,0.0,0.0,0.0,0.0,0.0,0.0,0.0,0.0,0.0,0.0,0.0,0.0,0.0,0.0,0.0,0.0,0.0,0.0,0.0,0.0,0.0,0.0,0.0,0.0,0.0,0.0,0.0,0.0,0.0,0.0,0.0,0.0,0.0,0.0,0.0,0.0,0.0,0.0,0.0,0.0,0.0,0.0,0.0,0.0,0.0,0.0,0.0,0.0,0.0,0.0,0.0,0.0,0.0,0.0,0.0,0.0,0.0,0.0,0.0,0.0,0.0,0.0,0.0,0.0,0.0,0.0,0.0,0.0,0.0,0.0,0.0,0.0,0.0,0.0,0.0,0.0,0.0,0.0,0.0,0.0,0.0,0.0,0.0,0.0,0.0,0.0,0.0,0.0,0.0,0.0,0.0,0.0,0.0,0.0,0.0,0.0,0.0,0.0,0.0,0.0,0.0,0.0,0.0,0.0,0.0,0.0,0.0,0.0,0.0,0.0,0.0,0.0,0.0,0.0,0.0,0.0,0.0,0.0,0.0,0.0,0.0,0.0,0.0,0.0,0.0,0.0,0.0,0.0,0.0,0.0,0.0,0.0,0.0,0.0,0.0,0.0,0.0,0.0,0.0,0.0,0.0,0.0,0.0,0.0,0.0,0.0,0.0,0.0,0.0,0.0,0.0,0.0,0.0,0.0,0.0,0.0,0.0,0.0,0.0,0.0,0.0,0.0,0.0,0.0,0.0,0.0,0.0,0.0,0.0,0.0,0.0,0.0,0.0,0.0,0.0,0.0,0.0,0.0,0.0,0.0,0.0,0.0,0.0,0.0,0.0,0.0,0.0,0.0,0.0,-0.4577,-0.4043,0.0,0.0,0.0,0.0,0.0,0.0,0.0,0.0,0.0,0.0,0.0,0.0,0.0,0.0,0.0,0.0,0.0,0.0,0.0,0.0,0.0,0.0,0.0,0.2405,0.2317,0.2203,0.213,0.0,0.0,0.0,0.0,0.0,0.0,0.0,0.0,0.0,0.2212,0.2522,0.2735,0.2847,0.2844,0.2094,0.2029,0.2537,0.0,0.0,0.0,0.0,0.0,0.0,0.0,0.0,0.0,0.0,0.0,0.0,0.0,0.0,0.0,0.0,0.0,0.0,0.0,0.0,0.0,0.0,0.0,0.0,0.0,0.0,0.0,0.0,0.0,0.0,0.0,0.0,0.0,0.0,0.0,0.0,0.0,0.0,0.0,0.0,0.0,0.0,0.0,0.0,0.0,0.0,0.0,0.0,0.0,0.0,0.0,0.0,0.0,0.0,0.0,0.0,0.0,0.0,0.0,0.0,0.0,0.0,0.0,0.0,0.0,0.0,0.0,0.0,0.0,0.0,-0.5056,-0.4679,0.0,0.0,0.0,0.0,0.0,0.0,0.0,0.0,0.0,0.0,0.0,0.0,0.0,0.0,0.0,0.0,0.0,0.0,0.0,0.0,0.0,0.2493,0.2543,0.2473,0.2412,0.2379,0.2344,0.2281,0.2131,0.2103,0.0,0.0,0.0,0.0,0.2205,0.2205,0.2489,0.3061,0.3146,0.3004,0.2589,0.1845,0.1982,0.2824,0.2859,0.0,0.0,0.0,0.0,0.0,0.0,0.0,0.0,0.0,0.0,0.0,0.0,0.0,0.0,0.0,0.0,0.0,0.0,0.0,0.0,0.0,0.0,0.0,0.0,0.0,0.0,0.0,0.0,0.0,0.0,0.0,0.0,0.0,0.0,0.0,0.0,0.0,0.0,0.0,0.0,0.0,0.0,0.0,0.0,0.0,0.0,0.0,0.0,0.0,0.0,0.0,0.0,0.0,0.0,0.0,0.0,0.0,0.0,0.0,0.0,0.0,0.0,0.0,-0.5591,-0.5548,-0.5633,-0.5466,-0.5453,-0.5588,-0.5431,-0.523,-0.4956,-0.4132,0.0,0.0,0.0,0.0,0.0,0.0,0.0,0.0,0.0,0.0,0.0,0.0,0.0,0.0,0.0,0.0,0.0,0.0,0.0,0.2499,0.2738,0.2603,0.2553,0.272,0.2576,0.2515,0.2602,0.249,0.0,0.0,0.0,0.2474,0.2609,0.2615,0.286,0.3354,0.3246,0.2847,0.2173,0.2053,0.2058,0.2136,0.2557,0.3045,0.3578,0.0,0.0,0.0,0.0,0.0,0.0,0.0,0.0,0.0,0.0,0.0,0.0,0.0,0.0,0.0,0.0,0.0,0.0,0.0,0.0,0.0,0.0,0.0,0.0,0.0,0.0,0.0,0.0,0.0,0.0,0.0,0.0,0.0,0.0,0.0,0.0,0.0,0.0,0.0,0.0,0.0,-0.4369,-0.4575,0.0,0.0,0.0,0.0,0.0,0.0,0.0,0.0,0.0,0.0,0.0,0.0,0.0,-0.5848,-0.5803,-0.5682,-0.5616,-0.564,-0.5764,-0.5833,-0.5879,-0.5926,-0.5986,-0.6013,-0.598,0.0,-0.5186,-0.5342,0.0,0.0,0.0,0.0,0.0,0.0,0.0,0.0,0.0,0.0,0.0,0.0,0.0,0.0,0.0,0.0,0.0,0.0,0.0,0.0,0.0,0.2869,0.2898,0.3213,0.3101,0.3001,0.2985,0.2854,0.0,0.0,0.2789,0.2875,0.3082,0.2687,0.2512,0.2627,0.2226,0.1898,0.1658,0.1145,0.117,0.1603,0.1838,0.209,0.2404,0.2322,0.0,0.0,0.0,0.0,0.0,0.0,0.0,0.0,0.0,0.0,0.0,0.0,0.0,0.0,0.0,0.0,0.0,0.0,0.0,0.0,0.0,0.0,0.0,0.0,0.0,0.0,0.0,0.0,0.0,0.0,0.0,0.0,0.0,0.0,0.0,0.0,0.0,0.0,0.0,-0.4222,-0.4671,-0.5139,-0.5338,-0.5447,0.0,0.0,0.0,0.0,0.0,0.0,0.0,0.0,0.0,-0.6136,-0.6097,-0.6002,-0.5892,-0.5907,-0.5863,-0.5869,-0.6048,-0.6111,-0.6111,-0.623,-0.6285,-0.6279,-0.6214,-0.6087,-0.579,-0.525,-0.4346,-0.3237,0.0,0.0,0.0,0.0,-0.0285,0.0,0.0,0.0,0.0,0.0,0.0,0.0,0.0,0.0,0.0,0.0,0.0,0.0,0.3163,0.3194,0.3323,0.3648,0.3588,0.3512,0.3425,0.3312,0.3222,0.3222,0.3222,0.3344,0.3577,0.2909,0.2292,0.1662,0.1311,0.1092,0.0958,0.056,0.0719,0.1357,0.1597,0.166,0.1595,0.1586,0.1772,0.2066,0.0,0.0,0.0,0.0,0.0,0.0,0.0,0.0,0.0,0.0,0.0,0.0,0.0,0.0,0.0,0.0,0.0,0.0,0.0,0.0,0.0,0.0,0.0,0.0,0.0,0.0,0.0,0.0,0.0,0.0,0.0,0.0,0.0,0.0,0.0,0.0,0.0,-0.4919,-0.5217,-0.5754,-0.5958,-0.6051,0.0,0.0,0.0,0.0,0.0,0.0,-0.6265,-0.6311,-0.6292,-0.619,-0.6286,-0.6223,-0.6084,-0.6163,-0.6176,-0.6176,-0.6301,-0.6361,-0.6361,-0.6475,-0.6478,-0.6524,-0.6442,-0.6388,-0.6279,-0.5032,-0.386,-0.282,-0.1809,-0.0844,0.0,0.0,0.0,0.0,0.0,0.0,0.0,0.0,0.0,0.0,0.0,0.0,0.0,0.0,0.0,0.3037,0.3197,0.3539,0.3802,0.3873,0.3878,0.3922,0.4035,0.3927,0.3857,0.3857,0.3857,0.3922,0.4046,0.3591,0.2488,0.0763,0.1134,0.0861,0.0084,0.0921,0.134,0.1424,0.2384,0.2683,0.243,0.2153,0.2034,0.1993,0.1729,0.0,0.0,0.0,0.0,0.0,0.0,0.0,0.0,0.0,0.0,0.0,0.0,0.0,0.0,0.0,0.0,0.0,0.0,0.0,0.0,0.0,0.0,0.0,0.0,0.0,0.0,0.0,0.0,0.0,0.0,0.0,0.0,0.0,0.0,0.0,0.0,0.0,0.0,-0.6627,-0.6741,0.0,0.0,0.0,0.0,-0.6091,-0.6226,-0.6277,-0.6202,-0.6331,-0.6526,-0.6748,-0.6643,-0.6568,-0.658,-0.6459,-0.6371,-0.6371,-0.6545,-0.66,-0.6605,-0.6725,-0.6785,-0.6785,-0.6779,-0.6709,-0.6471,-0.5094,-0.3885,-0.2897,-0.184,-0.0821,0.0,0.0,0.0,0.0,0.0,0.0,0.0,0.2524,0.249,0.2489,0.2472,0.249,0.2575,0.2765,0.2919,0.319,0.3711,0.3979,0.4246,0.4564,0.4526,0.4252,0.3695,0.3508,0.3496,0.3573,0.3491,0.3291,0.2935,0.2278,0.1363,0.0235,0.0402,0.0617,0.0925,0.126,0.1764,0.2393,0.2729,0.2828,0.2697,0.196,0.1527,0.1293,0.1184,0.1294,0.0,0.0,0.0,0.0,0.0,0.0,0.0,0.0,0.0,0.0,0.0,0.0,0.0,0.0,0.0,0.0,0.0,0.0,0.0,0.0,0.0,0.0,0.0,0.0,0.0,0.0,0.0,0.0,0.0,0.0,0.0,0.0,0.0,0.0,0.0,0.0,0.0,-0.6695,-0.6877,0.0,-0.6949,-0.6802,-0.6662,-0.6573,-0.6571,-0.662,-0.6578,-0.6627,-0.6643,-0.6672,-0.6709,-0.6664,-0.6592,-0.6662,-0.6671,-0.6671,-0.6796,-0.6855,-0.6861,-0.6975,-0.7084,-0.7078,-0.6953,-0.6893,-0.6786,-0.5489,-0.4218,-0.3033,-0.1833,-0.0844,0.0,0.0,0.0,0.0,0.0,0.0,0.0,0.249,0.2457,0.2469,0.2506,0.2532,0.2688,0.3019,0.3231,0.3576,0.4121,0.4398,0.4545,0.4548,0.4495,0.4058,0.3172,0.3294,0.3298,0.3097,0.303,0.2638,0.1989,0.1426,0.0944,0.0488,0.0454,0.0963,0.1911,0.2226,0.2747,0.3389,0.3688,0.3674,0.3349,0.2673,0.1884,0.106,0.1031,0.1051,0.1055,0.0,0.0,0.0,0.0,0.0,0.0,0.0,0.0,0.0,0.0,0.0,0.0,0.0,0.0,0.0,0.0,0.0,0.0,0.0,0.0,0.0,0.0,0.0,0.0,0.0,0.0,0.0,0.0,0.0,0.0,0.0,0.0,0.0,0.0,-0.6258,-0.664,-0.6704,-0.6936,-0.7052,-0.701,-0.6867,-0.6744,-0.6649,-0.6691,-0.6739,-0.6684,-0.6731,-0.6715,-0.6692,-0.6816,-0.682,-0.6741,-0.6861,-0.6921,-0.6921,-0.7002,-0.704,-0.7046,-0.7177,-0.721,-0.7204,-0.7128,-0.704,-0.698,-0.576,-0.4482,-0.3239,-0.1986,-0.0889,0.0,0.0,0.0,0.0,0.0,0.0,0.263,0.2441,0.2408,0.243,0.2506,0.263,0.2882,0.3343,0.3816,0.4159,0.4295,0.4693,0.4578,0.3676,0.3703,0.3402,0.2504,0.3249,0.3331,0.251,0.2468,0.2116,0.1334,0.1284,0.1341,0.1383,0.1446,0.1955,0.2953,0.3861,0.43,0.4389,0.5285,0.5181,0.4342,0.4338,0.3215,0.1462,0.1348,0.0774,0.0,0.0,0.0,0.0,0.0,0.0,0.0,0.0,0.0,0.0,0.0,0.0,0.0,0.0,0.0,0.0,0.0,0.0,0.0,0.0,0.0,0.0,0.0,0.0,0.0,0.0,0.0,0.0,0.0,0.0,0.0,0.0,0.0,0.0,-0.6128,-0.654,-0.6864,-0.6694,-0.7001,-0.7136,-0.6991,-0.6888,-0.6667,-0.6431,-0.6546,-0.6573,-0.6442,-0.6562,-0.6681,-0.6801,-0.6921,-0.6986,-0.6991,-0.7155,-0.721,-0.721,-0.721,-0.721,-0.721,-0.721,-0.721,-0.721,-0.721,-0.721,-0.7099,-0.5926,-0.47,-0.3458,-0.2265,-0.1066,0.0,0.0,0.0,0.0,0.2696,0.2696,0.2646,0.249,0.2424,0.2512,0.2817,0.2762,0.2932,0.3613,0.3854,0.4067,0.4427,0.4186,0.3908,0.3754,0.3196,0.2504,0.1683,0.1859,0.1895,0.1649,0.1663,0.1567,0.1287,0.1336,0.1362,0.1407,0.2114,0.2973,0.3905,0.4198,0.4656,0.5329,0.5597,0.5536,0.5323,0.5198,0.4522,0.3359,0.1956,0.0837,0.0,0.0,0.0,0.0,0.0,0.0,0.0,0.0,0.0,0.0,0.0,0.0,0.0,0.0,0.0,0.0,0.0,0.0,0.0,0.0,0.0,0.0,0.0,0.0,0.0,0.0,0.0,0.0,0.0,0.0,0.0,0.0,-0.5598,-0.5995,-0.5966,-0.6536,-0.6905,-0.6666,-0.6726,-0.6791,-0.6828,-0.6742,-0.6659,-0.6697,-0.6735,-0.6717,-0.6698,-0.6736,-0.6806,-0.6931,-0.697,-0.7024,-0.7161,-0.7193,-0.721,-0.721,-0.721,-0.721,-0.721,-0.721,-0.721,-0.721,-0.721,-0.721,-0.7154,-0.6821,-0.5477,-0.3466,-0.2272,-0.105,0.0,0.0,0.0,0.0,0.2696,0.2696,0.2663,0.2524,0.2541,0.2682,0.3037,0.2995,0.3202,0.3989,0.4094,0.4246,0.4654,0.4105,0.3584,0.3281,0.2504,0.1651,0.0796,0.0742,0.0921,0.1285,0.0991,0.0784,0.0742,0.1164,0.1607,0.204,0.302,0.3982,0.4879,0.4879,0.5196,0.5691,0.5691,0.5691,0.5686,0.5615,0.5073,0.4161,0.2653,0.1448,0.0553,0.0155,0.0,0.0,0.0,0.0,0.0,0.0,0.0,0.0,0.0,0.0,0.0,0.0,0.0,0.0,0.0,0.0,0.0,0.0,0.0,0.0,0.0,0.0,0.0,0.0,0.0,0.0,0.0,0.0,0.0,0.0,-0.579,-0.6121,-0.6087,-0.6607,-0.6926,-0.6697,-0.6781,-0.6816,-0.6793,-0.6706,-0.6725,-0.6796,-0.685,-0.6877,-0.6877,-0.6921,-0.698,-0.7056,-0.7111,-0.7144,-0.721,-0.721,-0.721,-0.721,-0.721,-0.721,-0.721,-0.721,-0.721,-0.721,-0.721,-0.721,-0.721,-0.721,-0.6093,0.0,0.0,0.0,0.0,0.0,0.0,0.0,0.2696,0.2696,0.2663,0.2547,0.268,0.2901,0.3178,0.3227,0.3539,0.4368,0.4378,0.448,0.4947,0.4258,0.3441,0.2582,0.1844,0.1072,0.0203,0.0041,0.0332,0.1138,0.0415,0.0,0.0,0.1033,0.1998,0.2918,0.3949,0.4879,0.5691,0.5691,0.5691,0.5691,0.5691,0.5691,0.5691,0.5691,0.523,0.435,0.3309,0.2318,0.1297,0.0362,0.0,0.0,0.0,0.0,0.0,0.0,0.0,0.0,0.0,0.0,0.0,0.0,0.0,0.0,0.0,0.0,0.0,0.0,0.0,0.0,0.0,0.0,0.0,0.0,0.0,0.0,0.0,0.0,0.0,0.0,-0.6108,-0.639,-0.6426,-0.674,-0.6927,-0.6826,-0.7033,-0.7065,-0.6823,-0.6823,-0.6828,-0.6839,-0.6942,-0.7008,-0.7008,-0.7155,0.0,0.0,0.0,-0.721,-0.721,-0.7226,-0.7232,-0.7232,-0.7243,-0.7248,-0.7248,-0.7248,-0.7248,-0.7248,-0.7237,-0.7232,-0.7232,-0.7215,-0.6427,-0.5091,-0.386,-0.2015,0.0,0.0,0.0,0.0,0.2696,0.2696,0.2696,0.2663,0.2739,0.2906,0.3241,0.3331,0.3609,0.426,0.4402,0.4545,0.4828,0.4217,0.3441,0.2582,0.2468,0.2059,0.1177,0.0408,0.0082,0.0244,0.0083,0.0,0.0,0.1733,0.2714,0.2895,0.4603,0.5508,0.5691,0.5691,0.5691,0.5691,0.5691,0.5691,0.5691,0.5691,0.5586,0.5299,0.3561,0.2307,0.1301,0.0375,0.0,0.0,0.0,0.0,0.0,0.0,0.0,0.0,0.0,0.0,0.0,0.0,0.0,0.0,0.0,0.0,0.0,0.0,0.0,0.0,0.0,0.0,0.0,0.0,0.0,0.0,0.0,0.0,0.0,-0.5882,-0.6214,-0.6415,-0.6562,-0.684,-0.6923,-0.6794,-0.6826,-0.6892,-0.6942,-0.6948,-0.6986,-0.7133,-0.7161,-0.7177,-0.7177,-0.7199,-0.721,-0.721,-0.721,-0.721,-0.721,-0.7252,-0.7301,-0.7301,-0.7399,0.0,-0.7448,-0.7448,-0.7448,-0.7442,-0.7345,-0.7301,-0.729,-0.7192,-0.5926,-0.3804,-0.263,-0.1288,0.0,0.0,0.0,0.0,0.2696,0.2696,0.2696,0.2696,0.2845,0.3029,0.3276,0.3408,0.3742,0.4368,0.4411,0.4512,0.4818,0.4208,0.3636,0.3207,0.2467,0.184,0.1399,0.0495,0.0,0.0,0.0,0.0,0.0,0.1898,0.2881,0.2911,0.479,0.5691,0.5691,0.5691,0.5691,0.5691,0.5691,0.5691,0.5691,0.5691,0.5691,0.5552,0.3671,0.261,0.1995,0.0558,0.0,0.0,0.0,0.0,0.0,0.0,0.0,0.0,0.0,0.0,0.0,0.0,0.0,0.0,0.0,0.0,0.0,0.0,0.0,0.0,0.0,0.0,0.0,0.0,0.0,-0.3858,-0.4726,0.0,-0.5516,-0.6123,-0.6464,-0.6665,-0.6785,-0.6959,-0.7024,-0.691,-0.6942,-0.7002,-0.7117,-0.7122,-0.715,-0.7204,-0.721,-0.721,-0.721,-0.7214,-0.7247,-0.7247,-0.7307,-0.7339,-0.7339,-0.7399,-0.7426,-0.7426,-0.7491,-0.7519,-0.7519,-0.7519,-0.7105,-0.6511,-0.6401,-0.6032,-0.545,-0.5406,-0.4357,-0.2639,-0.2008,-0.108,0.0,0.0,0.0,0.0,0.2696,0.2696,0.2696,0.2696,0.2924,0.3141,0.3242,0.3477,0.3836,0.4403,0.4387,0.4446,0.4833,0.4343,0.4033,0.4051,0.2448,0.1439,0.1581,0.0586,0.0,0.0,0.0,0.009,0.0269,0.1792,0.2777,0.3179,0.4701,0.5508,0.5691,0.5691,0.5691,0.5691,0.5508,0.5419,0.5419,0.524,0.5151,0.5018,0.3314,0.2598,0.2415,0.0661,0.0,0.0,0.0,0.0,0.0,0.0,0.0,0.0,0.0,0.0,0.0,0.0,0.0,0.0,0.0,0.0,0.0,0.0,0.0,0.0,0.0,-0.1015,-0.1969,-0.2821,-0.3894,-0.4922,-0.5657,-0.6029,-0.6268,-0.6502,-0.6709,-0.6877,-0.7002,-0.715,-0.7177,-0.7029,-0.7155,-0.721,-0.721,-0.721,-0.7221,-0.7243,-0.7243,-0.7254,-0.7281,-0.7317,-0.7315,-0.7315,-0.7464,-0.7519,-0.7519,-0.754,-0.7551,-0.7551,-0.7578,-0.7589,-0.7589,-0.7589,-0.6872,-0.5566,-0.5311,-0.4591,-0.3584,-0.335,-0.2704,-0.1765,-0.153,-0.0869,0.0,0.0,0.0,0.0,0.2696,0.2696,0.2696,0.2696,0.2924,0.3108,0.3121,0.3492,0.3824,0.3949,0.4219,0.4479,0.4694,0.4762,0.486,0.5018,0.2799,0.1707,0.2505,0.0955,0.0,0.0,0.0,0.0404,0.1211,0.1436,0.2419,0.4166,0.4344,0.4879,0.5691,0.5691,0.5691,0.5641,0.4835,0.4478,0.4389,0.3582,0.3224,0.3135,0.2016,0.157,0.1436,0.0403,0.0,0.0,0.0,0.0,0.0,0.0,0.0,0.0,0.0,0.0,0.0,0.0,0.0,0.0,0.0,0.0,0.0,0.0,0.0,-0.0217,0.0,-0.2051,-0.3058,-0.3923,-0.5186,-0.6112,-0.6208,-0.6399,-0.6638,-0.6883,-0.6948,-0.7008,-0.7177,-0.7199,-0.7204,-0.7193,-0.7204,-0.721,-0.721,-0.721,-0.7198,-0.7307,-0.7312,-0.7361,-0.747,-0.7491,-0.7497,-0.7497,-0.7513,-0.7519,-0.7519,-0.7627,-0.7682,-0.7682,-0.7785,-0.7834,-0.7834,-0.7834,-0.7099,-0.5811,-0.4523,-0.3866,-0.3526,-0.2469,-0.194,-0.1706,-0.0648,-0.0118,0.0,0.0,0.0,0.0,0.2815,0.2757,0.2696,0.2696,0.2924,0.3101,0.3101,0.3432,0.3748,0.3944,0.4054,0.4226,0.4497,0.4691,0.4853,0.5011,0.3671,0.2923,0.3196,0.2097,0.1244,0.0756,0.0737,0.0975,0.1391,0.1391,0.2106,0.3492,0.4032,0.4523,0.4884,0.5463,0.5691,0.5691,0.5285,0.479,0.4255,0.3898,0.3403,0.2822,0.1792,0.1391,0.1299,0.0355,0.0,0.0,0.0,0.0,0.0,0.0,0.0,0.0,0.0,0.0,0.0,0.0,0.0,0.0,0.0,0.0,0.0,0.0,0.0,-0.0089,-0.0505,-0.1909,-0.3202,-0.3572,-0.517,-0.6469,-0.6469,-0.6671,-0.6866,-0.697,-0.704,-0.7155,-0.7204,-0.721,-0.7237,-0.7252,-0.7258,-0.7258,-0.7258,-0.7258,-0.7312,-0.7432,-0.7442,-0.7464,-0.7513,-0.7584,-0.7627,-0.7627,-0.7687,-0.7725,-0.7725,-0.7774,-0.7801,-0.7801,-0.785,-0.7872,-0.7872,-0.7872,-0.6761,-0.4613,-0.2508,-0.1582,-0.1452,-0.0968,-0.0726,-0.0726,-0.0182,0.0,0.0,0.0,0.0,0.0,0.2946,0.2849,0.2764,0.2764,0.2917,0.3054,0.3094,0.3385,0.3679,0.3873,0.3873,0.3996,0.4352,0.4636,0.4775,0.4797,0.4227,0.3784,0.3556,0.2874,0.2124,0.1331,0.1318,0.1348,0.1377,0.1156,0.1649,0.2911,0.3314,0.3626,0.3942,0.4612,0.4928,0.4928,0.4656,0.4121,0.3492,0.3224,0.2732,0.2016,0.1292,0.1023,0.0932,0.0263,0.0,0.0,0.0,0.0,0.0,0.0,0.0,0.0,0.0,0.0,0.0,0.0,0.0,0.0,0.0,0.0,0.0,0.0,0.0,0.0,0.0,-0.1682,-0.3231,-0.3243,-0.5086,-0.6719,-0.6719,-0.6893,-0.7029,-0.7029,-0.7155,-0.7221,-0.7198,-0.7203,-0.7247,-0.7372,-0.7331,-0.7342,-0.7432,-0.7347,-0.7437,-0.7562,-0.7568,-0.7584,-0.7616,-0.7698,-0.7747,-0.7747,-0.7828,-0.7872,-0.7872,-0.7872,-0.7872,-0.7872,-0.7872,-0.7872,-0.7872,-0.7133,-0.5533,-0.3262,-0.0986,0.0,0.0,0.0,0.0,0.0,0.0,0.0,0.0,0.0,0.0,0.0,0.3094,0.298,0.2903,0.2903,0.291,0.2946,0.3081,0.3385,0.3604,0.3617,0.3717,0.3954,0.4362,0.4747,0.4873,0.4534,0.4178,0.3832,0.3431,0.2846,0.2149,0.1341,0.1288,0.1318,0.1391,0.0523,0.0967,0.2911,0.1972,0.1972,0.2956,0.2956,0.3001,0.2956,0.1972,0.1525,0.1436,0.0539,0.0135,0.009,0.0044,0.0044,0.0044,0.0,0.0,0.0,0.0,0.0,0.0,0.0,0.0,0.0,0.0,0.0,0.0,0.0,0.0,0.0,0.0,0.0,0.0,0.0,0.0,0.0,0.0,-0.1783,-0.3368,-0.3379,-0.5322,-0.6975,-0.6975,-0.7122,-0.7204,-0.7204,-0.7204,-0.7198,-0.7312,-0.7271,-0.732,-0.7497,-0.7513,-0.7562,-0.7682,-0.7584,-0.7562,-0.7687,-0.7698,-0.7741,-0.7856,-0.7861,-0.7867,-0.7867,-0.7872,-0.7872,-0.7872,-0.7872,-0.7872,-0.7872,-0.7872,-0.7872,-0.7811,-0.5226,-0.3325,-0.1973,-0.0617,0.0,0.0,0.0,0.0,0.0,0.0,0.0,0.0,0.0,0.0,0.0,0.3229,0.3135,0.3034,0.3034,0.3114,0.3175,0.3222,0.3316,0.3445,0.359,0.3726,0.0,0.0,0.0,0.0,0.0,0.4367,0.4318,0.4247,0.3597,0.2904,0.2146,0.1595,0.1329,0.1402,0.0468,0.064,0.1889,0.1546,0.1589,0.1932,0.2575,0.2918,0.2875,0.2532,0.2018,0.1376,0.1075,0.0559,0.0,0.0,0.0,0.0,0.0,0.0,0.0,0.0,0.0,0.0,0.0,0.0,0.0,0.0,0.0,0.0,0.0,0.0,0.0,0.0,0.0,0.0,0.0,0.0,0.0,0.0,-0.1784,-0.3373,-0.3395,-0.4695,-0.6003,-0.6754,-0.6418,-0.6215,-0.6931,-0.7161,-0.7198,-0.7317,-0.7277,-0.741,-0.7616,-0.7638,-0.7687,-0.7801,-0.7709,-0.7687,-0.7807,-0.7812,-0.7828,-0.7872,-0.7872,-0.7872,-0.7872,-0.7872,-0.7872,-0.7872,-0.7872,-0.7872,-0.7872,-0.7872,-0.7439,-0.6521,-0.4735,-0.32,-0.1911,-0.0555,0.0,0.0,0.0,0.0,0.0,0.0,0.0,0.0,0.0,0.0,0.0,0.3411,0.329,0.3182,0.3202,0.3216,0.0,0.0,0.0,0.0,0.0,0.0,0.0,0.0,0.0,0.0,0.0,0.0,0.4486,0.4415,0.4136,0.3626,0.2846,0.2088,0.1567,0.1369,0.0457,0.0294,0.0904,0.089,0.089,0.0904,0.1567,0.1848,0.1848,0.1848,0.1512,0.0883,0.0883,0.0554,0.0,0.0,0.0,0.0,0.0,0.0,0.0,0.0,0.0,0.0,0.0,0.0,0.0,0.0,0.0,0.0,0.0,0.0,0.0,0.0,0.0,0.0,0.0,0.0,0.0,0.0,-0.1444,-0.2944,-0.3297,-0.4037,-0.4941,-0.6056,-0.5442,-0.5126,-0.6221,-0.6528,-0.6761,-0.732,-0.7342,-0.7491,-0.7731,-0.7763,-0.779,-0.7861,-0.7807,-0.779,-0.7867,-0.7872,-0.7872,-0.7872,-0.7872,-0.7872,-0.7872,-0.7872,-0.7872,-0.7872,-0.7872,-0.7872,-0.7872,-0.7439,-0.6455,-0.5168,-0.3815,-0.2525,-0.1234,-0.037,0.0,0.0,0.0,0.0,0.0,0.0,0.0,0.0,0.0,0.0,0.0,0.3604,0.3438,0.3344,0.0,0.0,0.0,0.0,0.0,0.0,0.0,0.0,0.0,0.0,0.0,0.0,0.0,0.0,0.0,0.3954,0.4339,0.4231,0.3411,0.2638,0.1925,0.1288,0.0445,0.0,0.0,0.0,0.0043,0.0045,0.0,0.0042,0.0084,0.0,0.0,0.0,0.0,0.0,0.0,0.0,0.0,0.0,0.0,0.0,0.0,0.0,0.0,0.0,0.0,0.0,0.0,0.0,0.0,0.0,0.0,0.0,0.0,0.0,0.0,0.0,0.0,0.0,0.0,0.0,-0.0918,-0.2061,-0.3087,-0.3395,-0.3819,-0.4884,-0.4253,-0.3923,-0.5076,-0.5371,-0.5886,-0.719,-0.746,-0.7606,-0.7845,-0.7872,-0.7872,-0.7872,-0.7872,-0.7872,-0.7872,-0.7872,-0.7872,-0.7872,-0.7872,-0.7872,-0.7872,-0.7872,-0.7872,-0.7872,-0.7872,-0.7872,-0.7872,-0.6521,-0.5168,-0.3876,-0.2587,-0.1296,0.0,0.0,0.0,0.0,0.0,0.0,0.0,0.0,0.0,0.0,0.0,0.0,0.0,0.0,0.0,0.0,0.0,0.0,0.0,0.0,0.0,0.0,0.0,0.0,0.0,0.0,0.0,0.0,0.0,0.0,0.0,0.4189,0.3668,0.3318,0.324,0.1956,0.1187,0.102,0.0341,0.0,0.0,0.0,0.0322,0.0935,0.0321,0.036,0.0958,0.028,0.0,0.0,0.0,0.0,0.0,0.0,0.0,0.0,0.0,0.0,0.0,0.0,0.0,0.0,0.0,0.0,0.0,0.0,0.0,0.0,0.0,0.0,0.0,0.0,0.0,0.0,0.0,0.0,0.0,0.0,-0.0864,-0.1705,-0.1989,-0.2086,-0.246,-0.3495,-0.2932,-0.2644,-0.3708,-0.4741,-0.5604,-0.6076,-0.693,-0.7606,-0.7845,-0.7872,-0.7872,-0.7872,-0.7872,-0.7872,-0.7872,-0.7872,-0.7872,-0.7872,-0.7872,-0.7872,-0.7872,-0.7872,-0.7872,-0.7872,-0.7872,-0.7872,-0.7872,-0.6521,-0.5168,-0.3876,-0.2587,-0.1296,0.0,0.0,0.0,0.0,0.0,0.0,0.0,0.0,0.0,0.0,0.0,0.0,0.0,0.0,0.0,0.0,0.0,0.0,0.0,0.0,0.0,0.0,0.0,0.0,0.0,0.0,0.0,0.0,0.0,0.0,0.0,0.0,0.3549,0.3361,0.3497,0.2078,0.1332,0.1434,0.0474,0.0,0.0,0.0,0.0269,0.0745,0.0576,0.076,0.1215,0.1026,0.0912,0.0912,0.0912,0.0735,0.0,0.0,0.0271,0.0,0.0,0.0,0.0,0.0,0.0,0.0,0.0,0.0,0.0,0.0,0.0,0.0,0.0,0.0,0.0,0.0,0.0,0.0,0.0,0.0,0.0,0.0,-0.048,-0.104,-0.1504,-0.1221,-0.1213,-0.2298,-0.1682,-0.1384,-0.2531,-0.3786,-0.4856,-0.5495,-0.672,-0.7589,-0.7774,-0.7839,-0.7872,-0.7872,-0.7872,-0.7872,-0.7872,-0.7872,-0.7872,-0.7872,-0.7872,-0.7872,-0.7872,-0.7872,-0.7872,-0.7872,-0.7872,-0.7627,-0.7011,-0.5659,-0.4306,-0.3018,-0.1726,-0.074,0.0,0.0,0.0,0.0,0.0,0.0,0.0,0.0,0.0,0.0,0.0,0.0,0.0,0.0,0.0,0.0,0.0,0.0,0.0,0.0,0.0,0.0,0.3812,0.374,0.3686,0.3665,0.3658,0.0,0.0,0.0,0.0,0.0,0.0,0.3767,0.3825,0.2582,0.1944,0.2039,0.0775,0.0073,0.0,0.0,0.0111,0.0311,0.0855,0.1202,0.142,0.1891,0.2109,0.2109,0.2,0.1625,0.1076,0.101,0.0568,0.0,0.0,0.0,0.0,0.0,0.0,0.0,0.0,0.0,0.0,0.0,0.0,0.0,0.0,0.0,0.0,0.0,0.0,0.0,0.0,0.0,0.0,0.0,0.0,-0.0253,-0.1177,-0.0641,-0.0291,-0.1224,-0.0617,-0.0364,-0.1406,-0.2586,-0.3807,-0.5081,-0.6378,-0.737,-0.7682,-0.779,-0.7856,-0.7872,-0.7872,-0.7872,-0.7872,-0.7872,-0.7872,-0.7872,-0.7872,-0.7872,-0.7872,-0.7872,-0.7872,-0.7872,-0.7872,-0.7255,-0.5908,-0.4551,-0.3262,-0.1973,-0.0617,0.0,0.0,0.0,0.0,0.0,0.0,0.0,0.0,0.0,0.0,0.0,0.0,0.0,0.0,0.0,0.0,0.0,0.0,0.0,0.0,0.0,0.0,0.0,0.0,0.4409,0.4058,0.0,0.0,0.0,0.0,0.0,0.0,0.0,0.0,0.0,0.3485,0.2787,0.2161,0.1692,0.1076,0.0502,0.0,0.0,0.0646,0.1881,0.1354,0.1784,0.298,0.2363,0.2109,0.2073,0.1493,0.1212,0.1039,0.044,0.0109,0.0,0.0,0.0,0.0,0.0,0.0,0.0,0.0,0.0,0.0,0.0,0.0,0.0,0.0,0.0,0.0,0.0,0.0,0.0,0.0,0.0,0.0,0.0,0.0,-0.005,-0.0244,-0.0144,-0.0048,-0.0247,-0.0147,-0.005,-0.0265,-0.134,-0.256,-0.3933,-0.5112,-0.6281,-0.7557,-0.772,-0.7769,-0.7861,-0.7872,-0.7872,-0.7872,-0.7872,-0.7872,-0.7872,-0.7872,-0.7872,-0.7872,-0.7872,-0.7872,-0.7872,-0.7872,-0.7255,-0.5908,-0.4551,-0.3262,-0.1973,-0.0617,0.0,0.0,0.0,0.0,0.0,0.0,0.0,0.0,0.0,0.0,0.0,0.0,0.0,0.0,0.0,0.0,0.0,0.0,0.0,0.0,0.0,0.4925,0.5067,0.5739,0.5515,0.5114,0.4618,0.4389,0.4158,0.0,0.0,0.0,0.0,0.0,0.0,0.3402,0.2676,0.2236,0.2066,0.1548,0.1115,0.0818,0.0,0.1279,0.1932,0.1995,0.2442,0.3109,0.2743,0.2576,0.2542,0.1874,0.1406,0.1072,0.0703,0.0336,0.0,0.0,0.0,0.0,0.0,0.0,0.0,0.0,0.0,0.0,0.0,0.0,0.0,0.0,0.0,0.0,0.0,0.0,0.0,0.0,0.0,0.0,0.0,0.0,0.0,0.0,0.0,0.0,0.0,0.0,0.0,0.0,-0.0999,-0.226,-0.3506,-0.4761,-0.5992,-0.7322,-0.7622,-0.7725,-0.778,-0.7834,-0.7872,-0.7872,-0.7872,-0.7872,-0.7872,-0.7872,-0.7872,-0.7872,-0.7872,-0.7872,-0.7872,-0.7194,-0.6211,-0.4858,-0.351,-0.2218,-0.0925,-0.0309,0.0,0.0,0.0,0.0,0.0,0.0,0.0,0.0,0.0,0.0,0.0,0.0,0.0,0.0,0.0,0.0,0.0,0.0,0.0,0.0,0.0,0.563,0.5829,0.6648,0.66,0.6213,0.5548,0.4999,0.4552,0.0,0.0,0.0,0.0,0.0,0.0,0.0,0.0,0.0,0.2401,0.0,0.0,0.1552,0.1653,0.0,0.0,0.0,0.0,0.0,0.3118,0.3075,0.2929,0.2306,0.1675,0.0,0.0,0.0502,0.0,0.0,0.0,0.0,0.0,0.0,0.0,0.0,0.0,0.0,0.0,0.0,0.0,0.0,0.0,0.0,0.0,0.0,0.0,0.0,0.0,0.0,0.0,0.0,0.0,0.0,0.0,0.0,0.0,0.0,0.0,0.0,-0.0815,-0.1846,-0.3026,-0.4283,-0.5568,-0.6754,-0.7354,-0.7671,-0.7698,-0.7807,-0.7872,-0.7872,-0.7872,-0.7872,-0.7872,-0.7872,-0.7872,-0.7872,-0.7872,-0.775,-0.75,-0.6399,-0.5107,-0.3507,-0.2466,-0.1296,0.0,0.0,0.0,0.0,0.0,0.0,0.0,0.0,0.0,0.0,0.0,0.0,0.0,0.0,0.0,0.0,0.0,0.0,0.0,0.0,0.0,0.0,0.0,0.5895,0.6335,0.736,0.7244,0.6943,0.6741,0.5874,0.5132,0.0,0.0,0.0,0.0,0.0,0.0,0.0,0.0,0.0,0.0,0.0,0.0,0.142,0.1424,0.0,0.0,0.0,0.0,0.0,0.0,0.3301,0.2852,0.2125,0.0,0.0,0.0,0.0,0.0,0.0,0.0,0.0,0.0,0.0,0.0,0.0,0.0,0.0,0.0,0.0,0.0,0.0,0.0,0.0,0.0,0.0,0.0,0.0,0.0,0.0,0.0,0.0,0.0,0.0,0.0,0.0,0.0,0.0,0.0,0.0,-0.0095,-0.0604,-0.1799,-0.3031,-0.4264,-0.5536,-0.6754,-0.7578,-0.7693,-0.7807,-0.7872,-0.7872,-0.7872,-0.7872,-0.7872,-0.7872,-0.7872,-0.7872,-0.7872,-0.7317,-0.6092,-0.597,-0.4616,-0.2157,-0.2034,-0.1296,0.0,0.0,0.0,0.0,0.0,0.0,0.0,0.0,0.0,0.0,0.0,0.0,0.0,0.0,0.0,0.0,0.0,0.0,0.0,0.0,0.0,0.0,0.5986,0.5969,0.6335,0.7563,0.7341,0.7112,0.719,0.658,0.5806,0.4904,0.0,0.0,0.0,0.0,0.0,0.0,0.0,0.0,0.0,0.0,0.2845,0.2601,0.2686,0.0,0.0,0.0,0.0,0.0,0.0,0.2213,0.1657,0.0992,0.0,0.0,0.0,0.0,0.0,0.0,0.0,0.0,0.0,0.0,0.0,0.0,0.0,0.0,0.0,0.0,0.0,0.0,0.0,0.0,0.0,0.0,0.0,0.0,0.0,0.0,0.0,0.0,0.0,0.0,0.0,0.0,0.0,0.0,0.0,0.0,0.0,-0.04,-0.1635,-0.2232,-0.324,-0.5203,-0.604,-0.6724,-0.7477,-0.7763,-0.7872,-0.7872,-0.7872,-0.7872,-0.7872,-0.7872,-0.7872,-0.7872,-0.7133,-0.646,-0.5908,-0.4309,-0.3018,-0.1973,-0.1172,-0.0494,0.0,0.0,0.0,0.0,0.0,0.0,0.0,0.0,0.0,0.0,0.0,0.0,0.0,0.0,0.0,0.0,0.0,0.0,0.0,0.0,0.0,0.5189,0.604,0.6051,0.639,0.7468,0.738,0.7231,0.7299,0.6865,0.6193,0.5264,0.4618,0.0,0.0,0.0,0.0,0.0,0.0,0.0,0.0,0.0,0.3448,0.3506,0.3534,0.3594,0.0,0.0,0.3114,0.2801,0.0,0.0,0.0,0.0,0.0,0.0,0.0,0.0,0.0,0.0,0.0,0.0,0.0,0.0,0.0,0.0,0.0,0.0,0.0,0.0,0.0,0.0,0.0,0.0,0.0,0.0,0.0,0.0,0.0,0.0,0.0,0.0,0.0,0.0,0.0,0.0,0.0,0.0,0.0,0.0,0.0,-0.0295,-0.1144,-0.1572,-0.2409,-0.4119,-0.4798,-0.5594,-0.6872,-0.7512,-0.7872,-0.7872,-0.7872,-0.7872,-0.7872,-0.7872,-0.7872,-0.7872,-0.6582,-0.572,-0.5291,-0.3079,-0.1788,-0.1419,-0.0432,0.0,0.0,0.0,0.0,0.0,0.0,0.0,0.0,0.0,0.0,0.0,0.0,0.0,0.0,0.0,0.0,0.0,0.0,0.0,0.0,0.0,0.0,0.0,0.5711,0.6179,0.6627,0.7045,0.7278,0.7312,0.7112,0.662,0.6177,0.582,0.5003,0.0,0.0,0.0,0.0,0.0,0.0,0.0,0.0,0.0,0.3519,0.3793,0.3538,0.355,0.378,0.2917,0.2567,0.2651,0.0,0.0,0.0,0.0,0.0,0.0,0.0,0.0,0.0,0.0,0.0,0.0,0.0,0.0,0.0,0.0,0.0,0.0,0.0,0.0,0.0,0.0,0.0,0.0,0.0,0.0,0.0,0.0,0.0,0.0,0.0,0.0,0.0,0.0,0.0,0.0,0.0,0.0,0.0,0.0,0.0,0.0,0.0,-0.1058,-0.1825,-0.1829,-0.299,-0.434,-0.5598,-0.7069,-0.7872,-0.7872,-0.7872,-0.7872,-0.7872,-0.7872,-0.7872,-0.7872,-0.6582,-0.5291,-0.3937,-0.2648,-0.1357,0.0,0.0,0.0,0.0,0.0,0.0,0.0,0.0,0.0,0.0,0.0,0.0,0.0,0.0,0.0,0.0,0.0,0.0,0.0,0.0,0.0,0.0,0.0,0.0,0.0,0.0,0.5658,0.5986,0.66,0.6682,0.6709,0.6923,0.6559,0.6177,0.5827,0.5074,0.0,0.0,0.0,0.0,0.0,0.0,0.0,0.0,0.3929,0.3971,0.4065,0.4075,0.4162,0.4273,0.3815,0.3183,0.2416,0.2009,0.1217,0.0,0.0,0.0,0.0,0.0,0.0,0.0,0.0,0.0,0.0,0.0,0.0,0.0,0.0,0.0,0.0,0.0,0.0,0.0,0.0,0.0,0.0,0.0,0.0,0.0,0.0,0.0,0.0,0.0,0.0,0.0,0.0,0.0,0.0,0.0,0.0,0.0,0.0,0.0,0.0,0.0,-0.0322,-0.0886,-0.1715,-0.2995,-0.3962,-0.445,-0.5705,-0.6149,-0.5226,-0.6884,-0.75,-0.6582,-0.7378,-0.7872,-0.7872,-0.5716,-0.4306,-0.3876,-0.1726,-0.0432,0.0,0.0,0.0,0.0,0.0,0.0,0.0,0.0,0.0,0.0,0.0,0.0,0.0,0.0,0.0,0.0,0.0,0.0,0.0,0.0,0.0,0.0,0.0,0.0,0.0,0.0,0.5283,0.5562,0.6027,0.6108,0.6213,0.6512,0.6186,0.5883,0.565,0.5053,0.0,0.0,0.0,0.0,0.0,0.0,0.0,0.4266,0.4332,0.4539,0.4803,0.4714,0.4723,0.4815,0.4272,0.3622,0.2861,0.209,0.1298,0.0,0.0,0.0,0.0,0.0,0.0,0.0,0.0,0.0,0.0,0.0,0.0,0.0,0.0,0.0,0.0,0.0,0.0,0.0,0.0,0.0,0.0,0.0,0.0,0.0,0.0,0.0,0.0,0.0,0.0,0.0,0.0,0.0,0.0,0.0,0.0,0.0,0.0,0.0,0.0,0.0,0.0,-0.0279,-0.1057,-0.2309,-0.3123,-0.3156,-0.4382,-0.4797,-0.3937,-0.5471,-0.6027,-0.5168,-0.5965,-0.6394,-0.6394,-0.4797,-0.3692,-0.32,-0.1048,0.0,0.0,0.0,0.0,0.0,0.0,0.0,0.0,0.0,0.0,0.0,0.0,0.0,0.0,0.0,0.0,0.0,0.0,0.0,0.0,0.0,0.0,0.0,0.0,0.0,0.0,0.0,0.5085,0.5365,0.5365,0.5576,0.5806,0.5912,0.5583,0.5365,0.5365,0.0,0.0,0.0,0.0,0.0,0.0,0.0,0.0,0.4701,0.4743,0.5101,0.58,0.5358,0.5252,0.5442,0.4491,0.3987,0.3794,0.2191,0.1467,0.0,0.0,0.0,0.0,0.0,0.0,0.0,0.0,0.0,0.0,0.0,0.0,0.0,0.0,0.0,0.0,0.0,0.0,0.0,0.0,0.0,0.0,0.0,0.0,0.0,0.0,0.0,0.0,0.0,0.0,0.0,0.0,0.0,0.0,0.0,0.0,0.0,0.0,0.0,0.0,0.0,0.0,0.0,0.0,-0.1096,-0.1831,-0.1884,-0.2983,-0.3694,-0.363,-0.3815,-0.3876,-0.3753,-0.3876,-0.3876,-0.3753,-0.3753,-0.32,-0.2034,-0.0679,0.0,0.0,0.0,0.0,0.0,0.0,0.0,0.0,0.0,0.0,0.0,0.0,0.0,0.0,0.0,0.0,0.0,0.0,0.0,0.0,0.0,0.0,0.0,0.0,0.0,0.0,0.0,0.0,0.0,0.0,0.5143,0.5272,0.5305,0.5148,0.5026,0.0,0.0,0.0,0.0,0.0,0.0,0.0,0.0,0.0,0.4863,0.509,0.5406,0.5725,0.5721,0.5836,0.6098,0.584,0.4992,0.3658,0.3144,0.2051,0.0,0.0,0.0,0.0,0.0,0.0,0.0,0.0,0.0,0.0,0.0,0.0,0.0,0.0,0.0,0.0,0.0,0.0,0.0,0.0,0.0,0.0,0.0,0.0,0.0,0.0,0.0,0.0,0.0,0.0,0.0,0.0,0.0,0.0,0.0,0.0,0.0,0.0,0.0,0.0,0.0,0.0,0.0,0.0,-0.0306,-0.0495,-0.0441,-0.1696,-0.1996,-0.0987,-0.277,-0.3446,-0.2527,-0.3384,-0.3446,-0.2466,-0.2464,-0.2281,-0.1973,-0.0679,0.0,0.0,0.0,0.0,0.0,0.0,0.0,0.0,0.0,0.0,0.0,0.0,0.0,0.0,0.0,0.0,0.0,0.0,0.0,0.0062,0.0,0.0,0.0,0.0,0.0,0.0,0.0,0.0,0.0,0.0,0.0,0.4975,0.4938,0.4857,0.0,0.0,0.0,0.0,0.0,0.0,0.0,0.0,0.0,0.4958,0.5318,0.5549,0.5848,0.6238,0.626,0.6395,0.6637,0.6005,0.5185,0.4264,0.3281,0.1896,0.0,0.0,0.0,0.0,0.0,0.0,0.0,0.0,0.0,0.0,0.0,0.0,0.0,0.0,0.0,0.0,0.0,0.0,0.0,0.0,0.0,0.0,0.0,0.0,0.0,0.0,0.0,0.0,0.0,0.0,0.0,0.0,0.0,0.0,0.0,0.0,0.0,0.0,0.0,0.0,0.0,0.0,0.0,0.0,0.0,0.0,0.0,-0.0627,-0.0809,-0.0062,-0.1295,-0.1787,-0.1111,-0.1726,-0.1787,-0.1111,-0.1111,-0.1111,-0.1111,-0.037,0.0,0.0,0.0,0.0,0.0,0.0,0.0,0.0,0.0,0.0,0.0,0.0,0.0,0.0,0.0,0.0,0.0,0.0,0.0,0.0062,0.0,0.0,0.0,0.0,0.0,0.0,0.0,0.0,0.0,0.0,0.0,0.0,0.0,0.0,0.0,0.0,0.0,0.0,0.0,0.0,0.0,0.0,0.0,0.5311,0.5793,0.6006,0.6397,0.6993,0.6923,0.7047,0.7296,0.6115,0.5364,0.4937,0.292,0.1429,0.0373,0.0371,0.0225,0.006,0.0063,0.0,0.0,0.0,0.0,0.0,0.0,0.0,0.0,0.0,0.0,0.0,0.0,0.0,0.0,0.0,0.0,0.0,0.0,0.0,0.0,0.0,0.0,0.0,0.0,0.0,0.0,0.0,0.0,0.0,0.0,0.0,0.0,0.0,0.0,0.0,0.0,0.0,0.0,0.0,0.0,0.0,0.0,0.0,0.0,0.0,0.0,0.0,0.0,0.0,0.0,0.0,0.0,0.0,0.0,0.0,0.0,0.0,0.0,0.0,0.0,0.0,0.0,0.0,0.0,0.0,0.0,0.0,0.0,0.0,0.0,0.0,0.0,0.0,0.0,0.0062,0.0,0.0,0.0,0.0,0.0,0.0,0.0,0.0,0.0,0.0,0.0,0.0,0.0,0.0,0.0,0.0,0.0,0.0,0.0,0.0,0.0,0.5283,0.5644,0.5804,0.58,0.6451,0.6959,0.7305,0.7658,0.7945,0.8258,0.8084,0.6772,0.459,0.2238,0.1032,0.08,0.0613,0.0495,0.0414,0.029,0.0,0.0,0.0,0.0,0.0,0.0,0.0,0.0,0.0,0.0,0.0,0.0,0.0,0.0,0.0,0.0,0.0,0.0,0.0,0.0,0.0,0.0,0.0,0.0,0.0,0.0,0.0,0.0,0.0,0.0,0.0,0.0,0.0,0.0,0.0,0.0,0.0,0.0,0.0,0.0,0.0,0.0,0.0,0.0,0.0,0.0,0.0,0.0,0.0,0.0,0.0,0.0,0.0,0.0,0.0,0.0,0.0,0.0,0.0,0.0,0.0,0.0,0.0,0.0,0.0,0.0,0.0,0.0,0.0,0.0,0.0,0.0,0.0,0.0,0.0062,0.0,0.0,0.0,0.0,0.0,0.0,0.0,0.0,0.0,0.0,0.0,0.0,0.0,0.0,0.0,0.0,0.0,0.0,0.0,0.0,0.0,0.5583,0.603,0.6234,0.6166,0.6668,0.7115,0.7495,0.7943,0.8275,0.8472,0.7693,0.6016,0.3705,0.247,0.1564,0.0949,0.0818,0.0688,0.0529,0.0,0.0,0.0,0.0,0.0,0.0,0.0,0.0,0.0,0.0,0.0,0.0,0.0,0.0,0.0,0.0,0.0,0.0,0.0,0.0,0.0,0.0,0.0,0.0,0.0,0.0,0.0,0.0,0.0,0.0,0.0,0.0,0.0,0.0,0.0,0.0,0.0,0.0,0.0,0.0,0.0,0.0,0.0,0.0,0.0,0.0,0.0,0.0,0.0,0.0,0.0,0.0,0.0,0.0,0.0,0.0,0.0,0.0,0.0,0.0,0.0,0.0,0.0,0.0,0.0,0.0,0.0,0.0,0.0,0.0,0.0,0.0,0.0,0.0185,0.037,0.0617,0.0,0.0,0.0,0.0,0.0,0.0,0.0,0.0,0.0,0.0,0.0,0.0,0.0,0.0,0.0,0.0,0.0,0.0,0.0,0.0,0.5265,0.5684,0.6231,0.6579,0.6723,0.7054,0.7461,0.7916,0.8364,0.8587,0.8574,0.7062,0.5336,0.3374,0.294,0.2135,0.1068,0.1004,0.0857,0.0714,0.0,0.0,0.0,0.0,0.0,0.0,0.0,0.0,0.0,0.0,0.0,0.0,0.0,0.0,0.0,0.0,0.0,0.0,0.0,0.0,0.0,0.0,0.0,0.0,0.0,0.0,0.0,0.0,0.0,0.0,0.0,0.0,0.0,0.0,0.0,0.0,0.0,0.0,0.0,0.0,0.0,0.0,0.0,0.0,0.0,0.0,0.0,0.0,0.0,0.0,0.0,0.0,0.0,0.0,0.0,0.0,0.0,0.0,0.0,0.0,0.0,0.0,0.0,0.0,0.0,0.0,0.0,0.0,0.0,0.0,0.0,0.0,0.0062,0.0309,0.0617,0.105,0.0,0.0,0.0,0.0,0.0,0.0,0.0,0.0,0.0,0.0,0.0,0.0,0.0,0.0,0.0,0.0,0.0,0.0,0.0,0.0,0.5209,0.5419,0.6122,0.6777,0.7337,0.7924,0.8391,0.8784,0.9293,0.9306,0.8838,0.7374,0.593,0.4551,0.3461,0.2337,0.1291,0.1221,0.1137,0.1048,0.0908,0.0,0.0,0.0,0.0,0.0,0.0,0.0,0.0,0.0,0.0,0.0,0.0,0.0,0.0,0.0,0.0,0.0,0.0,0.0,0.0,0.0,0.0,0.0,0.0,0.0,0.0,0.0,0.0,0.0,0.0,0.0,0.0,0.0,0.0,0.0,0.0,0.0,0.0,0.0,0.0,0.0,0.0,0.0,0.0,0.0,0.0,0.0,0.0,0.0,0.0,0.0,0.0,0.0,0.0,0.0,0.0,0.0,0.0,0.0,0.0,0.0,0.0,0.0,0.0,0.0,0.0,0.0,0.0,0.0,0.0,0.0,0.0,0.0,0.0432,0.0988,0.0,0.0,0.0,0.0,0.0,0.0,0.0,0.0,0.0,0.0,0.0,0.0,0.0,0.0,0.0,0.0,0.0,0.0,0.0,0.4935,0.5245,0.5623,0.6211,0.6837,0.7631,0.7963,0.8438,0.9076,0.9334,0.9334,0.9055,0.8001,0.6813,0.5619,0.4968,0.4061,0.2977,0.2821,0.2464,0.1943,0.1736,0.1323,0.0,0.0,0.0,0.0,0.0,0.0,0.0,0.0,0.0,0.0,0.0,0.0,0.0,0.0,0.0,0.0,0.0,0.0,0.0,0.0,0.0,0.0,0.0,0.0,0.0,0.0,0.0,0.0,0.0,0.0,0.0,0.0,0.0,0.0,0.0,0.0,0.0,0.0,0.0,0.0,0.0,0.0,0.0,0.0,0.0,0.0,0.0,0.0,0.0,0.0,0.0,0.0,0.0,0.0,0.0,0.0,0.0,0.0,0.0,0.0,0.0,0.0,0.0,0.0,0.0,0.0,0.0,0.0,0.0,0.0,0.0062,0.0494,0.0803,0.105,0.0,0.0,0.0,0.0,0.0,0.0,0.0,0.0,0.0,0.0,0.0,0.0,0.0,0.0,0.0,0.0,0.0,0.0,0.4816,0.4988,0.5299,0.5779,0.6274,0.6878,0.7584,0.7977,0.852,0.9282,0.9239,0.9137,0.8982,0.8275,0.7294,0.6197,0.5836,0.5049,0.3968,0.3804,0.3419,0.2859,0.2629,0.2078,0.0,0.0,0.0,0.0,0.0,0.0,0.0,0.0,0.0,0.0,0.0,0.0,0.0,0.0,0.0,0.0,0.0,0.0,0.0,0.0,0.0,0.0,0.0,0.0,0.0,0.0,0.0,0.0,0.0,0.0,0.0,0.0,0.0,0.0,0.0,0.0,0.0,0.0,0.0,0.0,0.0,0.0,0.0,0.0,0.0,0.0,0.0,0.0,0.0,0.0,0.0,0.0,0.0,0.0,0.0,0.0,0.0,0.0,0.0,0.0,0.0,0.0,0.0,0.0,0.0,0.0,0.0,0.0,0.0,0.0,0.0062,0.0617,0.0926,0.105,0.0,0.0,0.0,0.0,0.0,0.0,0.0,0.0,0.0,0.0,0.0,0.0,0.0,0.0,0.0,0.0,0.0,0.0,0.5069,0.5103,0.5299,0.5779,0.6376,0.6837,0.7085,0.8018,0.8771,0.9381,0.9083,0.8784,0.8472,0.8024,0.7248,0.6197,0.588,0.5092,0.4014,0.387,0.3776,0.3684,0.356,0.3077,0.2371,0.0,0.0,0.0,0.0,0.0,0.0,0.0,0.0,0.0,0.0,0.0,0.0,0.0,0.0,0.0,0.0,0.0,0.0,0.0,0.0,0.0,0.0,0.0,0.0,0.0,0.0,0.0,0.0,0.0,0.0,0.0,0.0,0.0,0.0,0.0,0.0,0.0,0.0,0.0,0.0,0.0,0.0,0.0,0.0,0.0,0.0,0.0,0.0,0.0,0.0,0.0,0.0,0.0,0.0,0.0,0.0,0.0,0.0,0.0,0.0,0.0,0.0,0.0,0.0,0.0,0.0,0.0,0.0,0.0,0.0062,0.037,0.0741,0.1052,0.0,0.0,0.0,0.0,0.0,0.0,0.0,0.0,0.0,0.0,0.0,0.0,0.0,0.0,0.0,0.0,0.0,0.0,0.5069,0.523,0.5447,0.5786,0.6274,0.658,0.6668,0.755,0.8404,0.9275,0.9239,0.8933,0.833,0.8194,0.7682,0.6815,0.6732,0.6361,0.5751,0.5623,0.5179,0.4586,0.4431,0.3795,0.2931,0.0,0.0,0.0,0.0,0.0,0.0,0.0,0.0,0.0,0.0,0.0,0.0,0.0,0.0,0.0,0.0,0.0,0.0,0.0,0.0,0.0,0.0,0.0,0.0,0.0,0.0,0.0,0.0,0.0,0.0,0.0,0.0,0.0,0.0,0.0,0.0,0.0,0.0,0.0,0.0,0.0,0.0,0.0,0.0,0.0,0.0,0.0,0.0,0.0,0.0,0.0,0.0,0.0,0.0,0.0,0.0,0.0,0.0,0.0,0.0,0.0,0.0,0.0,0.0,0.0,0.0,0.0,0.0,0.0,0.0062,0.0617,0.0926,0.1052,0.0,0.0,0.0,0.0,0.0,0.0,0.0,0.0,0.4491,0.4491,0.4491,0.4491,0.0,0.0,0.0,0.4491,0.4491,0.0,0.5069,0.5216,0.5454,0.5874,0.6152,0.641,0.6647,0.736,0.7991,0.8586,0.8804,0.8648,0.8085,0.8085,0.7814,0.7274,0.7258,0.7014,0.6647,0.6498,0.6119,0.5571,0.5394,0.4757,0.3889,0.0,0.0,0.0,0.0,0.0,0.0,0.0,0.0,0.0,0.0591,0.051,0.0502,0.052,0.0259,0.0,0.0,0.0,0.0,0.0,0.0,0.0,0.0,0.0,0.0,0.0,0.0,0.0,0.0,0.0,0.0,0.0,0.0,0.0,0.0,0.0,0.0,0.0,0.0,0.0,0.0,0.0,0.0,0.0,0.0,0.0,0.0,0.0,0.0,0.0,0.0,0.0,0.0,0.0,0.0,0.0,0.0,0.0,0.0,0.0,0.0,0.0,0.0,0.0,0.0,0.0,0.0,0.0,0.0,0.0,0.0062,0.0741,0.0988,0.1114,0.0,0.0,0.0,0.0,0.0,0.0,0.0,0.4491,0.4491,0.4491,0.4491,0.4491,0.0,0.0,0.0,0.4491,0.4491,0.4675,0.5049,0.509,0.5359,0.5946,0.5986,0.6263,0.6829,0.7299,0.7529,0.7556,0.8038,0.8099,0.7773,0.7814,0.7733,0.755,0.7414,0.719,0.6876,0.6736,0.6586,0.6497,0.634,0.5765,0.5018,0.4815,0.0,0.0,0.0,0.0,0.0,0.0,0.0,0.0,0.1555,0.1354,0.1309,0.1282,0.0661,0.0,0.0,0.0,0.0,0.0,0.0,0.0,0.0,0.0,0.0,0.0,0.0,0.0,0.0,0.0,0.0,0.0,0.0,0.0,0.0,0.0,0.0,0.0,0.0,0.0,0.0,0.0,0.0,0.0,0.0,0.0,0.0,0.0,0.0,0.0,0.0,0.0,0.0,0.0,0.0,0.0,0.0,0.0,0.0,0.0,0.0,0.0,0.0,0.0,0.0,0.0,0.0,0.0,0.0,0.0,0.0062,0.0742,0.0991,0.112,0.0,0.0,0.0,0.0,0.0,0.0,0.4491,0.4491,0.4491,0.4491,0.4491,0.4491,0.4491,0.4491,0.0,0.4491,0.4491,0.4634,0.4914,0.5036,0.5312,0.5827,0.5932,0.62,0.6559,0.6783,0.7007,0.7193,0.7929,0.804,0.7475,0.7828,0.7671,0.7193,0.7159,0.7051,0.6862,0.6519,0.6436,0.6491,0.6186,0.5804,0.5364,0.5227,0.4573,0.0,0.0,0.0,0.0,0.0,0.0,0.0,0.1981,0.1627,0.1292,0.1182,0.0578,0.0,0.0,0.0,0.0,0.0,0.0,0.0,0.0,0.0,0.0,0.0,0.0,0.0,0.0,0.0,0.0,0.0,0.0,0.0,0.0,0.0,0.0,0.0,0.0,0.0,0.0,0.0,0.0,0.0,0.0,0.0,0.0,0.0,0.0,0.0,0.0,0.0,0.0,0.0,0.0,0.0,0.0,0.0,0.0,0.0,0.0,0.0,0.0,0.0,0.0,0.0,0.0,0.0,0.0,0.0,0.0063,0.044,0.0759,0.1089,0.0,0.0,0.0,0.0,0.0,0.0,0.0,0.0,0.4491,0.4491,0.4491,0.4491,0.4491,0.4491,0.0,0.0,0.4491,0.4586,0.4796,0.4914,0.523,0.5677,0.5983,0.6179,0.6261,0.6478,0.6668,0.6817,0.7292,0.7428,0.7265,0.7456,0.7361,0.7004,0.7183,0.7129,0.6869,0.6681,0.658,0.6559,0.6335,0.6076,0.5868,0.5788,0.5417,0.485,0.4728,0.0,0.0,0.0,0.0,0.0,0.0,0.0,0.2487,0.2447,0.1596,0.0617,0.064,0.0356,0.0,0.0,0.0,0.0,0.0,0.0,0.0,0.0,0.0,0.0,0.0,0.0,0.0,0.0,0.0,0.0,0.0,0.0,0.0,0.0,0.0,0.0,0.0,0.0,0.0,0.0,0.0,0.0,0.0,0.0,0.0,0.0,0.0,0.0,0.0,0.0,0.0,0.0,0.0,0.0,0.0,0.0,0.0,0.0,0.0,0.0,0.0,0.0,0.0,0.0,0.0,0.0,0.0064,0.057,0.0828,0.1098,0.0,0.0,0.0,0.0,0.0,0.0,0.0,0.0,0.0,0.4491,0.4491,0.4491,0.4491,0.4491,0.4491,0.0,0.0,0.0,0.4675,0.4843,0.5121,0.5494,0.5979,0.6112,0.5919,0.6268,0.6477,0.6477,0.6586,0.6797,0.7018,0.7045,0.6997,0.6896,0.7183,0.717,0.6916,0.6869,0.6831,0.6729,0.6573,0.6463,0.6334,0.6334,0.6177,0.5881,0.5651,0.5539,0.5379,0.4471,0.0,0.0,0.0,0.0,0.388,0.3916,0.2801,0.1595,0.1666,0.1006,0.0257,0.0054,0.0,0.0,0.0,0.0,0.0,0.0,0.0,0.0,0.0,0.0,0.0,0.0,0.0,0.0,0.0,0.0,0.0,0.0,0.0,0.0,0.0,0.0,0.0,0.0,0.0,0.0,0.0,0.0,0.0,0.0,0.0,0.0,0.0,0.0,0.0,0.0,0.0,0.0,0.0,0.0,0.0,0.0,0.0,0.0,0.0,0.0,0.0,0.0,0.0,0.0063,0.0129,0.0703,0.0963,0.1171,0.0,0.0,0.0,0.0,0.0,0.0,0.0,0.0,0.0,0.0,0.4491,0.4491,0.4491,0.4491,0.4491,0.4491,0.4614,0.4641,0.4532,0.0,0.0,0.5157,0.5623,0.5793,0.565,0.6108,0.6327,0.6327,0.647,0.6586,0.6763,0.6856,0.6903,0.6889,0.6923,0.6991,0.7051,0.6837,0.6797,0.6842,0.6729,0.658,0.6484,0.6484,0.6457,0.6402,0.6238,0.5929,0.5574,0.5542,0.5356,0.0,0.0,0.0,0.4134,0.4093,0.3372,0.262,0.2744,0.209,0.1143,0.0213,0.0,0.0,0.0,0.0,0.0,0.0,0.0,0.0,0.0,0.0,0.0,0.0,0.0,0.0,0.0,0.0,0.0,0.0,0.0,0.0,0.0,0.0,0.0,0.0,0.0,0.0,0.0,0.0,0.0,0.0,0.0,0.0,0.0,0.0,0.0,0.0,0.0,0.0,0.0,0.0,0.0,0.0,0.0,0.0,0.0,0.0,0.0,0.0,0.0,0.0194,0.046,0.0525,0.0992,0.154,0.0,0.0,0.0,0.0,0.0,0.0,0.0,0.0,0.0,0.0,0.0,0.4491,0.4491,0.4491,0.4491,0.4491,0.4552,0.46,0.4614,0.4931,0.5137,0.5257,0.561,0.5772,0.5711,0.5989,0.6132,0.6132,0.632,0.6511,0.6702,0.677,0.6756,0.6675,0.6675,0.6756,0.6892,0.6844,0.6869,0.6997,0.693,0.6905,0.6759,0.6166,0.5947,0.5924,0.5688,0.5543,0.5461,0.5719,0.5782,0.5721,0.5479,0.0,0.0,0.0,0.4303,0.3283,0.2362,0.1788,0.1233,0.0265,0.0,0.0,0.0,0.0,0.0,0.0,0.0,0.0,0.0,0.0,0.0,0.0,0.0,0.0,0.0,0.0,0.0,0.0,0.0,0.0,0.0,0.0,0.0,0.0,0.0,0.0,0.0,0.0,0.0,0.0,0.0,0.0,0.0,0.0,0.0,0.0,0.0,0.0,0.0,0.0,0.0,0.0,0.0,0.0,0.0,0.0,0.0,0.0,0.0,0.0194,0.0527,0.0725,0.1131,0.1616,0.0,0.0,0.0,0.0,0.0,0.0,0.0,0.0,0.0,0.0,0.0,0.4545,0.4545,0.0,0.0,0.0,0.4641,0.4709,0.4796,0.4975,0.5169,0.5276,0.5535,0.5671,0.563,0.582,0.5899,0.5932,0.6125,0.639,0.6756,0.6715,0.6702,0.6736,0.662,0.6627,0.6715,0.6862,0.7024,0.7159,0.7193,0.7213,0.7123,0.6352,0.6054,0.6003,0.5453,0.5513,0.5809,0.571,0.5968,0.6182,0.5619,0.5479,0.0,0.0,0.0,0.4177,0.2287,0.1847,0.1595,0.0312,0.0,0.0,0.0,0.0,0.0,0.0,0.0,0.0,0.0,0.0,0.0,0.0,0.0,0.0,0.0,0.0,0.0,0.0,0.0,0.0,0.0,0.0,0.0,0.0,0.0,0.0,0.0,0.0,0.0,0.0,0.0,0.0,0.0,0.0,0.0,0.0,0.0,0.0,0.0,0.0,0.0,0.0,0.0,0.0,0.0,0.0,0.0,0.0,0.0064,0.0324,0.0729,0.106,0.1468,0.1818,0.0,0.0,0.0,0.0,0.0,0.0,0.0,0.0,0.0,0.0,0.0,0.468,0.468,0.4809,0.4867,0.4867,0.4988,0.5069,0.5076,0.509,0.5042,0.4914,0.5262,0.0,0.5137,0.546,0.5677,0.5813,0.5969,0.6303,0.6869,0.677,0.6926,0.7357,0.7027,0.6831,0.6722,0.6964,0.7217,0.7419,0.7516,0.7577,0.7577,0.753,0.7563,0.7493,0.6236,0.6424,0.7073,0.5751,0.5764,0.6177,0.5461,0.5384,0.5482,0.0,0.0,0.0,0.3479,0.31,0.2776,0.0549,0.0,0.0,0.0,0.0,0.0,0.0,0.0,0.0,0.0,0.0,0.0,0.0,0.0,0.0,0.0,0.0,0.0,0.0,0.0,0.0,0.0,0.0,0.0,0.0,0.0,0.0,0.0,0.0,0.0,0.0,0.0,0.0,0.0,0.0,0.0,0.0,0.0,0.0,0.0,0.0,0.0,0.0,0.0,0.0,0.0,0.0,0.0,0.0,0.0327,0.073,0.1143,0.1479,0.1816,0.2154,0.0,0.0,0.0,0.0,0.0,0.0,0.0,0.0,0.0,0.0,0.0,0.0,0.0,0.5201,0.5162,0.5029,0.4988,0.4961,0.4961,0.5049,0.5076,0.5022,0.525,0.5365,0.5277,0.5481,0.5616,0.5664,0.5908,0.624,0.6641,0.6783,0.6932,0.7075,0.6871,0.6803,0.6851,0.6916,0.7045,0.7258,0.7706,0.7882,0.7791,0.7236,0.7101,0.7116,0.6338,0.6367,0.6703,0.641,0.6537,0.6714,0.61,0.5955,0.5949,0.547,0.5573,0.5605,0.4346,0.3612,0.2933,0.1703,0.0808,0.0259,0.0265,0.0111,0.0,0.0,0.0176,0.0302,0.0302,0.0122,0.0,0.0,0.0,0.0,0.0,0.0,0.0,0.0,0.0185,0.0309,0.0309,0.0494,0.0617,0.0617,0.0432,0.0309,0.0309,0.0123,0.0,0.0,0.0,0.0,0.0,0.0,0.0,0.0,0.0,0.0,0.0,0.0,0.0,0.0,0.0,0.0,0.0,0.0,0.0,0.0065,0.0393,0.0727,0.113,0.1476,0.1885,0.2223,0.0,0.0,0.0,0.0,0.0,0.0,0.0,0.0,0.5101,0.5196,0.0,0.0,0.0,0.0,0.5467,0.5332,0.5223,0.5142,0.5142,0.5182,0.5209,0.5209,0.5257,0.5284,0.5284,0.5338,0.5413,0.5549,0.5711,0.601,0.645,0.6661,0.6831,0.6883,0.6824,0.6803,0.6858,0.6862,0.6997,0.7258,0.7665,0.7984,0.8026,0.7451,0.7445,0.757,0.6715,0.6816,0.7273,0.6944,0.7047,0.7227,0.6472,0.6099,0.5925,0.5911,0.5917,0.5769,0.4922,0.4236,0.3577,0.2875,0.1839,0.1028,0.1028,0.0654,0.0286,0.0279,0.0461,0.0653,0.0653,0.0481,0.0305,0.0308,0.031,0.031,0.0309,0.0309,0.0309,0.0309,0.0556,0.0679,0.0679,0.0864,0.0988,0.0988,0.0679,0.0,0.0494,0.0185,0.0,0.0,0.0,0.0,0.0,0.0,0.0,0.0,0.0,0.0,0.0,0.0,0.0,0.0,0.0,0.0,0.0,0.0,0.0,0.0065,0.0525,0.0859,0.113,0.161,0.1952,0.2223,0.0,0.0,0.0,0.0,0.0,0.0,0.0,0.0,0.5405,0.5412,0.0,0.0,0.0,0.0,0.0,0.5806,0.5677,0.5589,0.5589,0.5481,0.5392,0.5392,0.5216,0.5096,0.5096,0.4961,0.5067,0.5385,0.5399,0.5706,0.6286,0.6429,0.662,0.6862,0.6869,0.6831,0.6702,0.6865,0.7102,0.7419,0.7556,0.7889,0.8327,0.834,0.8702,0.8984,0.7511,0.7895,0.895,0.7299,0.721,0.7603,0.6518,0.5733,0.5368,0.6106,0.6388,0.6244,0.0,0.0,0.0,0.3897,0.2986,0.2364,0.2264,0.1619,0.0967,0.0935,0.0955,0.0977,0.092,0.0933,0.0953,0.1043,0.0999,0.1004,0.099,0.0988,0.0988,0.0988,0.0988,0.0988,0.0988,0.105,0.105,0.105,0.0679,0.0494,0.0556,0.0185,0.0,0.0,0.0,0.0,0.0,0.0,0.0,0.0,0.0,0.0,0.0,0.0,0.0,0.0,0.0,0.0,0.0,0.0,0.0,0.0066,0.0791,0.1064,0.1212,0.1885,0.2223,0.2223,0.0,0.0,0.0,0.0,0.0,0.5325,0.5576,0.5562,0.5603,0.0,0.0,0.0,0.6102,0.601,0.5932,0.5932,0.5739,0.5589,0.5589,0.5481,0.5392,0.5392,0.5216,0.5096,0.5096,0.5063,0.5083,0.5196,0.542,0.5644,0.5815,0.6037,0.6161,0.6249,0.6505,0.6573,0.6559,0.6926,0.7024,0.7122,0.7916,0.8309,0.8445,0.8669,0.8988,0.9245,0.836,0.8553,0.9076,0.8262,0.809,0.8045,0.7297,0.6708,0.629,0.6283,0.617,0.5942,0.5752,0.0,0.0,0.0,0.0,0.0,0.3757,0.3543,0.3076,0.2206,0.2335,0.2295,0.1437,0.1485,0.17,0.1676,0.1271,0.0919,0.0987,0.0988,0.0988,0.0988,0.1235,0.1358,0.1358,0.1606,0.173,0.0,0.1173,0.0988,0.1235,0.0679,0.0247,0.0,0.0,0.0,0.0,0.0,0.0,0.0,0.0,0.0,0.0,0.0,0.0,0.0,0.0,0.0,0.0,0.0,0.0132,0.0401,0.0602,0.1006,0.1481,0.1683,0.1952,0.2223,0.0,0.0,0.5053,0.5436,0.5535,0.5623,0.5861,0.5928,0.5996,0.0,0.0,0.0,0.647,0.6363,0.6281,0.622,0.5942,0.5772,0.5772,0.5576,0.5487,0.5487,0.5189,0.5009,0.5009,0.4918,0.4884,0.4945,0.5128,0.5277,0.5399,0.5644,0.5786,0.5867,0.6288,0.6477,0.6463,0.7061,0.7244,0.7177,0.7909,0.835,0.8601,0.8845,0.9198,0.9496,0.8954,0.9049,0.9361,0.8968,0.8593,0.8258,0.7903,0.7394,0.6932,0.6695,0.6369,0.6098,0.6186,0.5758,0.5442,0.6024,0.0,0.0,0.4445,0.407,0.348,0.2425,0.2438,0.2387,0.1706,0.1748,0.1894,0.187,0.1529,0.1311,0.1341,0.1346,0.141,0.1419,0.1606,0.173,0.173,0.1915,0.1977,0.1977,0.1482,0.1173,0.1111,0.0741,0.037,0.0,0.0,0.0,0.0,0.0,0.0,0.0,0.0,0.0,0.0,0.0,0.0,0.0,0.0,0.0,0.0,0.0133,0.0267,0.0337,0.0606,0.101,0.1414,0.175,0.2019,0.2223,0.0,0.0,0.4944,0.5451,0.572,0.5931,0.6098,0.6361,0.6477,0.0,0.647,0.6552,0.6688,0.6702,0.6641,0.6525,0.622,0.602,0.602,0.5779,0.561,0.561,0.5203,0.4952,0.4887,0.4653,0.46,0.4694,0.4707,0.485,0.5076,0.5264,0.5453,0.5589,0.6166,0.6422,0.6402,0.7197,0.7509,0.7475,0.7807,0.8255,0.8757,0.8885,0.9289,0.9768,0.9391,0.9456,0.9754,0.9378,0.8859,0.8343,0.8323,0.7979,0.7434,0.7224,0.6871,0.6573,0.6504,0.6268,0.6148,0.662,0.6156,0.0,0.4879,0.4219,0.3452,0.2484,0.2304,0.2279,0.2168,0.2116,0.2074,0.1996,0.1944,0.1968,0.1917,0.1926,0.1936,0.1963,0.1966,0.1966,0.1966,0.197,0.1971,0.1971,0.1727,0.1235,0.0617,0.0617,0.0432,0.0062,0.0062,0.0062,0.0,0.0062,0.0062,0.0062,0.0062,0.0062,0.0124,0.0126,0.0127,0.0064,0.0131,0.0066,0.0066,0.0402,0.0404,0.0202,0.0875,0.1144,0.1279,0.1885,0.2154,0.2223,0.5333,0.5414,0.561,0.6265,0.6273,0.6381,0.6956,0.6756,0.6552,0.677,0.6715,0.6668,0.6695,0.6702,0.6641,0.6525,0.6354,0.6252,0.6252,0.5928,0.5759,0.5759,0.5481,0.5162,0.4894,0.4863,0.4782,0.4694,0.4816,0.4874,0.4935,0.5076,0.5257,0.546,0.5901,0.6302,0.6641,0.7054,0.7449,0.7907,0.8447,0.8737,0.8885,0.9327,0.9618,0.9781,0.9456,0.9544,0.9774,0.9449,0.9103,0.8784,0.8662,0.8384,0.804,0.7475,0.7177,0.6905,0.647,0.6381,0.6464,0.6803,0.6816,0.0,0.6954,0.6943,0.6592,0.5444,0.5388,0.5304,0.4306,0.4143,0.3886,0.3191,0.298,0.2694,0.2,0.1895,0.1896,0.1903,0.1903,0.1903,0.1903,0.1925,0.194,0.194,0.1902,0.1606,0.0926,0.1173,0.105,0.0432,0.0679,0.0556,0.0,0.0247,0.0432,0.0432,0.0375,0.0566,0.0818,0.084,0.0719,0.0392,0.0732,0.067,0.0402,0.0807,0.0943,0.0875,0.1077,0.1481,0.1952,0.175,0.1952,0.2223,0.5363,0.5556,0.5868,0.6243,0.6342,0.6562,0.7027,0.6881,0.6776,0.6964,0.7102,0.7149,0.7149,0.7149,0.7054,0.6824,0.6742,0.6634,0.6491,0.6335,0.6186,0.6074,0.5706,0.5405,0.5142,0.4918,0.4769,0.4694,0.4694,0.4728,0.4809,0.4995,0.5372,0.5863,0.62,0.6614,0.7061,0.7388,0.7712,0.8029,0.8533,0.8804,0.8925,0.9354,0.9585,0.9693,0.9551,0.9591,0.968,0.9456,0.9184,0.8858,0.8757,0.8506,0.8194,0.7814,0.7434,0.7018,0.6695,0.6485,0.6477,0.6736,0.6865,0.0,0.0,0.6697,0.6395,0.5305,0.53,0.532,0.4799,0.4683,0.4583,0.4189,0.3611,0.2975,0.251,0.2098,0.1869,0.1884,0.1885,0.1885,0.1885,0.1899,0.1914,0.193,0.1945,0.1715,0.1296,0.142,0.1173,0.0494,0.0679,0.0494,0.0,0.0309,0.0494,0.0494,0.069,0.0821,0.1012,0.1041,0.0856,0.0528,0.0937,0.0875,0.0539,0.1144,0.1346,0.1346,0.1346,0.1548,0.1885,0.1885,0.2019,0.2223,0.5382,0.5618,0.593,0.6159,0.6373,0.6627,0.6962,0.6993,0.7075,0.7289,0.7535,0.7651,0.7773,0.776,0.7604,0.7253,0.728,0.7217,0.6892,0.6871,0.6756,0.6525,0.6044,0.5705,0.5528,0.5081,0.4809,0.4694,0.4593,0.4614,0.4741,0.4975,0.5521,0.6272,0.6614,0.7007,0.7453,0.797,0.8164,0.819,0.8533,0.8852,0.9184,0.9449,0.9646,0.9768,0.968,0.9632,0.9605,0.9564,0.934,0.8999,0.8988,0.8743,0.8445,0.8228,0.7739,0.726,0.7075,0.6729,0.6478,0.6695,0.6742,0.6623,0.0,0.0,0.0,0.4819,0.4844,0.5036,0.5092,0.5186,0.5179,0.5035,0.4195,0.3503,0.3185,0.2514,0.1985,0.1896,0.1858,0.1866,0.1861,0.1896,0.1924,0.193,0.1958,0.1851,0.1606,0.1606,0.1296,0.0741,0.0741,0.0617,0.0185,0.0556,0.0679,0.0679,0.1006,0.1141,0.1206,0.1306,0.1125,0.0728,0.1139,0.1077,0.0741,0.1414,0.1683,0.1683,0.1683,0.1683,0.175,0.2087,0.2223,0.2223,0.6133,0.5881,0.6009,0.6693,0.6717,0.6832,0.7367,0.7372,0.7558,0.808,0.7959,0.7938,0.8364,0.8313,0.8072,0.776,0.7984,0.7957,0.7522,0.7495,0.7421,0.7296,0.681,0.6376,0.5925,0.565,0.523,0.4694,0.4674,0.4741,0.4897,0.5022,0.5427,0.6047,0.6741,0.7197,0.748,0.8418,0.8784,0.8811,0.9157,0.9537,1.0006,1.0114,1.0263,1.0337,0.9937,0.972,0.9666,1.0053,0.989,0.9578,0.9822,0.9664,0.9171,0.8757,0.8397,0.8024,0.7468,0.7183,0.6977,0.6883,0.6862,0.691,0.6922,0.0,0.6688,0.6463,0.0,0.6758,0.6656,0.0,0.0,0.5532,0.541,0.5065,0.3881,0.3249,0.2626,0.1844,0.1757,0.0,0.0,0.1995,0.2012,0.1937,0.2054,0.2084,0.192,0.1915,0.1791,0.142,0.1668,0.1543,0.0864,0.1235,0.1358,0.1359,0.1461,0.1673,0.1997,0.2055,0.188,0.1477,0.1884,0.1818,0.1481,0.1952,0.2154,0.2154,0.2154,0.2154,0.2154,0.2155,0.2223,0.2356,0.6287,0.6402,0.6618,0.6705,0.6929,0.7222,0.7612,0.7954,0.8195,0.8329,0.8318,0.8408,0.8581,0.862,0.8574,0.835,0.8533,0.8465,0.8018,0.7991,0.7767,0.7258,0.6892,0.6532,0.6173,0.5867,0.5589,0.5338,0.5194,0.5146,0.5182,0.5413,0.584,0.6451,0.7197,0.7665,0.7985,0.8642,0.9191,0.9598,0.972,1.0258,1.0758,1.0127,0.9978,1.008,0.989,0.9781,0.9747,0.9856,0.9937,0.9978,0.9836,0.9842,0.9815,0.9367,0.896,0.8567,0.8133,0.7841,0.7557,0.7373,0.7319,0.7312,0.7278,0.6959,0.6647,0.658,0.0,0.0,0.0,0.0,0.0,0.0,0.5936,0.5395,0.4944,0.4101,0.3503,0.3451,0.0,0.0,0.0,0.0,0.0,0.0,0.1996,0.203,0.1979,0.196,0.1835,0.1482,0.1606,0.1482,0.0988,0.1358,0.1482,0.1483,0.1781,0.1935,0.213,0.2193,0.1952,0.1616,0.2019,0.1952,0.1616,0.2019,0.2223,0.2223,0.2223,0.2223,0.2223,0.2223,0.2692,0.3497,0.6629,0.6768,0.6973,0.671,0.7068,0.7508,0.7762,0.8244,0.8612,0.8628,0.8698,0.8804,0.8996,0.9028,0.9062,0.8906,0.9069,0.8988,0.8593,0.8606,0.8309,0.7719,0.7292,0.6946,0.673,0.6268,0.5969,0.58,0.5624,0.5494,0.5467,0.5725,0.6139,0.6675,0.7461,0.7984,0.8361,0.892,0.9517,1.0053,1.0163,1.0453,1.088,1.0134,0.9836,0.9822,0.9822,0.9822,0.9815,0.9802,1.0012,1.0222,0.9897,1.0019,1.0195,0.9741,0.9381,0.9049,0.8703,0.8391,0.8106,0.7896,0.7746,0.7651,0.7671,0.7194,0.675,0.6661,0.6539,0.0,0.0,0.0,0.6856,0.6748,0.0,0.565,0.564,0.4722,0.4231,0.4571,0.0,0.0,0.0,0.0,0.0,0.0,0.0,0.2016,0.1967,0.1951,0.1828,0.1595,0.1602,0.1543,0.1296,0.1543,0.1608,0.1616,0.1976,0.2068,0.2078,0.2197,0.2019,0.175,0.2087,0.2019,0.1818,0.2087,0.2223,0.2223,0.2223,0.2223,0.2223,0.2625,0.343,0.4434,0.7418,0.6886,0.6686,0.6873,0.718,0.7502,0.7866,0.8125,0.8526,0.9076,0.8995,0.9098,0.973,0.9673,0.9523,0.9374,0.9625,0.9605,0.9214,0.9323,0.9266,0.9152,0.8391,0.7874,0.7767,0.7048,0.639,0.58,0.5793,0.5718,0.5589,0.5881,0.6186,0.6559,0.7414,0.7984,0.8388,0.9361,0.989,0.9997,1.0215,1.0114,0.9917,1.031,1.0195,0.9822,0.9822,0.9822,0.9863,1.0161,1.027,0.0,0.0,1.027,1.0195,0.9741,0.9598,0.949,0.8986,0.8703,0.8465,0.8459,0.8126,0.7882,0.8174,0.7822,0.7299,0.7105,0.6964,0.6817,0.6566,0.6722,0.6647,0.5962,0.6091,0.0,0.0,0.5101,0.4708,0.4352,0.3499,0.0,0.0,0.0,0.0,0.0,0.0,0.0,0.1941,0.196,0.1962,0.1873,0.1962,0.1977,0.1977,0.1977,0.199,0.1955,0.2049,0.2079,0.2109,0.214,0.2223,0.2155,0.2223,0.2223,0.2155,0.2223,0.2223,0.2223,0.2223,0.2223,0.2356,0.3698,0.4233,0.4702,0.754,0.7277,0.7186,0.7126,0.7501,0.8005,0.8613,0.8618,0.8784,0.9304,0.9293,0.9364,0.9628,0.9719,0.9727,0.968,0.9761,0.972,0.9469,0.9503,0.9334,0.8879,0.8431,0.8031,0.7678,0.7129,0.6702,0.6396,0.6098,0.5892,0.5881,0.5946,0.6139,0.6409,0.7272,0.795,0.8445,0.9001,0.9721,1.0577,1.0588,1.0507,1.0399,1.0256,1.0039,0.9822,0.9822,0.9822,0.0,0.9944,1.0175,1.0385,1.0188,1.0399,1.0636,1.0181,1.0053,0.9978,0.0,0.0,0.9178,0.903,0.8866,0.8703,0.871,0.8092,0.7509,0.7455,0.6932,0.6458,0.6388,0.6532,0.6512,0.6197,0.6023,0.5922,0.0,0.5635,0.5486,0.5439,0.5077,0.4369,0.3223,0.0,0.0,0.0,0.0,0.0,0.0,0.1911,0.1921,0.193,0.196,0.1977,0.1977,0.1994,0.2009,0.2019,0.2069,0.2099,0.211,0.214,0.2223,0.2223,0.2223,0.2223,0.2289,0.3228,0.3026,0.2356,0.423,0.4431,0.3564,0.3094,0.4099,0.6101,0.7708,0.748,0.7466,0.7422,0.7875,0.8444,0.8972,0.9002,0.9065,0.9486,0.9496,0.9517,0.9666,0.9768,0.9822,0.9822,0.9822,0.9829,0.9849,0.9747,0.9585,0.9354,0.8906,0.8526,0.8241,0.7638,0.7197,0.6939,0.6491,0.6148,0.5993,0.6139,0.624,0.6409,0.7109,0.7889,0.8655,0.8852,0.9593,1.0765,1.0496,1.048,1.0453,1.0098,1.0024,1.0127,0.0,0.9985,0.9978,0.9924,1.0134,1.0365,0.9997,1.031,1.0629,1.0236,1.0195,1.0229,0.9971,0.9761,0.0,0.9496,0.9371,0.9214,0.9171,0.8648,0.814,0.8085,0.7448,0.6926,0.7078,0.6824,0.6641,0.6695,0.6306,0.5962,0.0,0.5772,0.5718,0.5922,0.5647,0.4949,0.3659,0.0,0.0,0.0,0.0,0.0,0.0,0.0,0.1899,0.193,0.1949,0.1966,0.1977,0.2004,0.2024,0.2035,0.2086,0.2114,0.2125,0.2213,0.2223,0.2223,0.2759,0.2692,0.2356,0.4233,0.4233,0.3161,0.5499,0.5834,0.4967,0.4632,0.5967,0.8169,0.8091,0.7645,0.7672,0.782,0.8301,0.8777,0.9004,0.9183,0.9362,0.9582,0.959,0.9666,0.9815,0.9829,0.9836,0.9842,0.9842,0.9964,1.0263,1.0005,1.0032,1.0453,0.9788,0.9395,0.9381,0.8513,0.7841,0.7426,0.6926,0.6471,0.6,0.6315,0.6497,0.6532,0.6932,0.7752,0.8871,0.8878,0.9537,1.046,1.0105,1.0004,1.0031,1.0017,1.0351,1.0704,1.0392,1.0283,1.0256,1.0107,1.0154,1.0229,0.9937,1.0046,1.0222,0.9917,1.0046,1.0249,1.0031,0.9849,0.9707,0.993,0.9632,0.0,0.9585,0.9401,0.9187,0.9001,0.8433,0.8096,0.8418,0.7651,0.7061,0.7371,0.6784,0.6184,0.5833,0.5576,0.5501,0.5766,0.5205,0.4666,0.4392,0.0,0.0,0.0,0.0,0.0,0.0,0.1889,0.1903,0.1928,0.1932,0.1947,0.1977,0.2005,0.2035,0.2131,0.2162,0.2193,0.2223,0.2356,0.2356,0.2356,0.3763,0.3631,0.2625,0.5366,0.57,0.4568,0.6034,0.6631,0.6769,0.8102,0.9443,1.0585,1.0356,0.9724,0.9143,0.8651,0.8559,0.8769,0.9348,0.9309,0.9406,0.9856,0.9713,0.9707,0.9903,0.993,1.0039,1.0154,1.0161,1.0195,1.0276,1.0209,1.0161,1.0098,0.9869,0.9605,0.9388,0.8716,0.8099,0.7543,0.698,0.6471,0.5993,0.6067,0.6261,0.6525,0.6831,0.7604,0.8777,0.8838,0.9476,1.0317,1.0065,1.0253,1.0624,0.0,1.0656,1.0982,1.0466,1.0283,1.0276,1.0236,1.0249,1.0263,1.0188,1.0215,1.0243,1.0046,1.0127,1.0249,1.0031,1.008,1.0127,1.0202,1.0107,1.0039,0.0,0.0,0.0,0.9422,0.8866,0.8357,0.833,0.7916,0.7536,0.7439,0.6647,0.5983,0.5684,0.5515,0.5501,0.5766,0.5168,0.0,0.0,0.0,0.0,0.0,0.0,0.0,0.0,0.0,0.0,0.1899,0.1941,0.1969,0.1977,0.2027,0.2067,0.2098,0.3189,0.3218,0.2289,0.4364,0.4766,0.383,0.5235,0.5633,0.5432,0.7303,0.7169,0.6101,0.864,0.9576,0.951,0.8839,0.8839,0.931,1.0804,1.0095,0.9433,0.9116,0.914,0.9372,0.9693,0.9578,0.9638,1.0149,1.0056,0.9992,1.0215,1.0188,1.0188,1.0276,1.0283,1.0337,1.0466,1.0351,1.0331,1.0375,1.0175,0.9971,0.9869,0.9218,0.8581,0.7984,0.7387,0.6797,0.622,0.622,0.6417,0.677,0.6878,0.7665,0.8927,0.9273,0.9754,1.0263,1.0051,1.0267,0.0,1.0555,1.069,1.0928,1.0595,1.0473,1.046,1.0392,1.0371,1.0365,1.0297,1.0283,1.0263,1.0175,1.0168,1.0175,1.0154,1.0114,1.0114,1.0249,1.0229,1.0215,1.0365,1.012,0.9876,0.0,0.9408,0.9028,0.9211,0.8621,0.8004,0.7712,0.7075,0.6512,0.622,0.5983,0.5897,0.5895,0.5698,0.0,0.0,0.0,0.0,0.0,0.0,0.0,0.0,0.0,0.1929,0.1906,0.1963,0.1994,0.1994,0.2712,0.3089,0.3095,0.4536,0.4833,0.4096,0.57,0.5967,0.5302,0.6769,0.6969,0.6564,0.864,0.864,0.7569,0.9848,1.0717,1.0585,0.9782,0.951,0.9643,1.0494,0.9802,0.9442,0.9543,0.9878,1.0154,1.0023,0.9922,0.9985,1.0396,1.0343,1.031,1.0473,1.0385,1.0317,1.0337,1.0337,1.0446,1.0704,1.046,1.048,1.0806,1.05,1.0344,1.0487,0.9822,0.9191,0.8628,0.8038,0.7366,0.6689,0.6648,0.6797,0.7125,0.7058,0.7882,0.9337,0.9842,1.0181,1.0324,1.0148,1.0256,1.0521,1.0521,1.0602,1.0717,1.0717,1.0717,1.0697,1.0568,1.0521,1.05,1.0378,1.0324,1.031,1.031,1.0202,1.0107,1.0243,1.0086,0.9951,1.0236,1.0209,1.0148,1.0304,1.0419,1.046,1.0331,0.9964,0.9815,0.0,0.9415,0.8492,0.813,0.778,0.7407,0.7088,0.6797,0.6519,0.624,0.0,0.0,0.0,0.0,0.0,0.0,0.0,0.0,0.0,0.0,0.1824,0.1924,0.2168,0.2268,0.2339,0.0,0.4603,0.4631,0.6004,0.6564,0.6431,0.6765,0.6836,0.6769,0.824,0.8169,0.7169,0.9649,0.9981,0.8972,1.0253,1.0717,1.0717,1.0717,1.0717,1.0717,1.1288,1.0956,1.0939,1.0556,1.0217,1.0144,1.0576,1.0412,1.0251,1.0336,1.0177,1.0195,1.046,1.0466,1.0507,1.0629,1.0643,1.0663,1.0717,1.0555,1.0487,1.0568,1.0385,1.0344,1.0487,1.0127,0.9761,0.9415,0.8811,0.8194,0.757,0.7326,0.7303,0.7346,0.7692,0.8487,0.9727,1.0086,1.0399,1.0622,1.0351,1.0419,1.0677,1.0677,1.0697,1.0717,1.0717,1.0717,1.0717,1.069,1.0677,1.0677,1.0649,1.0555,1.0453,1.0453,1.0351,1.0249,1.0276,1.0243,1.0243,1.0412,1.0432,1.0453,1.0609,1.0561,1.0487,1.046,1.0195,0.9903,0.9944,0.0,0.0,0.8662,0.8425,0.814,0.7712,0.7509,0.7333,0.7156,0.659,0.6553,0.0,0.0,0.0,0.0,0.0,0.0,0.0,0.0,0.1959,0.0,0.3104,0.0,0.0,0.0,0.6129,0.6322,0.7603,0.7569,0.6498,0.8839,0.931,0.8307,0.9715,1.018,0.9981,1.0518,1.0518,1.0386,1.0585,1.0717,1.0717,1.0717,1.0717,1.0717,1.3004,1.2597,1.2376,1.1926,1.1347,1.0959,1.102,1.0934,1.071,1.0412,1.0367,1.048,1.0704,1.0731,1.0758,1.0833,1.0907,1.0948,1.0948,1.088,1.0806,1.0731,1.0588,1.0507,1.0493,1.0276,0.9985,0.9612,0.932,0.8825,0.8153,0.8018,0.7991,0.8092,0.8696,0.9269,0.9889,1.01,0.0,1.0697,1.0399,1.046,1.0717,1.0717,1.0717,1.0717,1.0717,1.0717,1.0717,1.0717,1.0717,1.0717,1.0717,1.067,1.0609,1.0609,1.0507,1.0392,1.0392,1.0337,1.0331,1.0555,1.0548,1.0555,1.0785,1.0778,1.0704,1.0629,1.0493,1.024,0.9936,1.0012,0.0,0.9273,0.9178,0.8994,0.8472,0.8201,0.8058,0.8065,0.7497,0.7316,0.0,0.0,0.0,0.0,0.0,0.0,0.0,0.0,0.3758,0.0,0.0,0.0,0.0,0.0,0.0,0.7713,0.9073,0.931,0.8706,1.0047,1.0319,0.9715,1.0386,1.0717,1.0717,1.0717,1.0717,1.0717,1.0717,1.0717,1.0717,1.0717,1.0717,1.0717,1.4243,1.3688,1.3325,1.2813,1.2216,1.1721,1.1471,1.1423,1.1212,1.0846,1.0774,1.0859,1.1043,1.0995,1.0927,1.0927,1.1097,1.1234,1.1234,1.1234,1.1111,1.0995,1.0819,1.0663,1.0541,1.0399,1.0154,0.9795,0.9795,0.9347,0.8486,0.8648,0.8784,0.8927,0.9578,0.9958,0.0,0.0,1.0378,1.0649,1.0419,1.0487,1.0717,1.0717,1.0717,1.0717,1.0717,1.0717,1.0717,1.0717,1.0717,1.0717,1.0717,1.0717,1.0724,1.0758,1.0663,1.0555,1.0616,1.0507,1.0446,1.0738,1.0724,1.0697,1.0941,1.0927,1.0948,1.0799,1.0717,1.0561,1.0145,1.0432,0.0,0.0,0.9883,0.9754,0.9293,0.8933,0.8757,0.8845,0.8513,0.0,0.8357,0.0,0.0,0.0,0.0,0.0,0.5742,0.0,0.0,0.0,0.0,0.6688,0.6902,0.0,0.9086,0.9085,1.0199,1.0717,1.0717,1.0717,1.0717,1.0717,1.0717,1.0717,1.0717,1.0717,1.0717,1.0717,1.0717,1.0717,1.0717,1.0717,1.0717,1.0717,1.3732,1.3441,1.3324,1.2264,1.1947,1.1837,1.2018,1.1743,1.1633,1.1666,1.1372,1.1294,1.1592,1.1351,1.1145,1.1145,1.1158,1.1234,1.1234,1.1234,1.1158,1.1145,1.0873,1.0711,1.0697,1.0548,1.0453,1.0412,1.0412,0.9747,0.8499,0.9184,0.951,0.9544,0.9815,0.0,0.0,1.0541,1.0602,1.0514,1.048,1.0568,1.0717,1.0717,1.0717,1.0717,1.0717,1.0717,1.0717,1.0717,1.0717,1.0717,1.0717,1.0717,1.0751,1.082,1.0819,1.0758,1.1029,1.0894,1.0751,1.105,1.1111,1.1111,1.1138,1.1145,1.1104,1.0887,1.0704,1.05,1.046,1.0487,1.0534,0.0,1.0405,1.0215,1.0161,0.9781,0.9456,0.9334,0.9214,0.0,0.0,0.0,0.0,0.0,0.7362,0.0,0.0,0.0,0.0,0.6434,0.7716,0.8656,0.9095,1.0035,1.0531,1.065,1.0718,1.0717,1.0717,1.0717,1.0717,1.0717,1.0717,1.0717,1.0717,1.0717,1.0717,1.0717,1.0717,1.0717,1.0717,1.0717,1.0717,1.0717,1.507,1.4524,1.4066,1.3295,1.2733,1.2379,1.2243,1.2265,1.2437,1.2712,1.1925,1.1475,1.1689,1.1455,1.1301,1.1301,1.1382,1.1436,1.1436,1.1436,1.1396,1.1301,1.1097,1.09,1.0724,1.0663,1.0582,1.0493,1.0677,1.0399,0.97,1.0093,1.0229,1.0141,0.0,1.0351,1.0412,1.0534,1.0548,1.0493,1.0493,1.0582,1.0717,1.0717,1.0717,1.0717,1.0717,1.0717,1.0717,1.0717,1.0717,1.0717,1.0717,1.0717,1.0751,1.0833,1.084,1.09,1.1111,1.1016,1.0928,1.1226,1.1165,1.1077,1.126,1.1301,1.1233,1.0927,1.0778,1.0602,1.0507,1.0711,1.0826,1.0616,0.0,1.0616,1.0432,1.0019,0.9781,0.9903,0.9544,0.9245,0.0,0.0,0.0,0.0,0.0,0.0,0.0,0.0,0.0,0.9015,0.0,0.9829,1.0474,1.0624,1.0751,1.0812,1.0751,1.0717,1.0717,1.0717,1.0717,1.0717,1.0717,1.0717,1.0717,1.0717,1.0717,1.0717,1.0717,1.0717,1.0717,1.0717,1.0717,1.0717,1.6756,1.6097,1.5356,1.4285,1.3687,1.3135,1.2435,1.2522,1.2826,1.3054,1.2216,1.175,1.197,1.1671,1.1457,1.1457,1.1558,1.1619,1.1619,1.1619,1.1572,1.1463,1.1314,1.109,1.0792,1.0785,1.067,1.0432,1.0778,1.057,1.0039,1.0148,1.0276,0.0,1.0473,1.0466,1.0432,1.0521,1.0534,1.0493,1.0541,1.0622,1.0717,1.0717,1.0717,1.0717,1.0717,1.0717,1.0717,1.0717,1.0751,1.0785,1.0785,1.0785,1.0826,1.1023,1.1043,1.1056,1.1246,1.1192,1.1138,1.1396,1.1301,1.1199,1.1409,1.1423,1.1307,1.0941,1.0793,1.0744,1.0588,1.0819,1.0955,1.0724,0.0,1.0839,1.0704,1.0304,1.0148,1.05,1.0161,0.9856,0.972,0.989,0.0,0.0,0.0,0.0,0.0,0.0,0.0,0.0,0.0,0.0,1.1158,1.0867,1.0717,1.0717,1.0717,1.0717,1.0717,1.0717,1.0717,1.0717,1.0717,1.0717,1.0717,1.0717,1.0717,1.0717,1.0717,1.0717,1.0717,1.0717,1.0717,1.0717,1.8484,1.819,1.741,1.4989,1.4761,1.4259,1.2561,1.2386,1.2489,1.2315,1.2062,1.2143,1.2731,1.2115,1.1613,1.1613,1.1619,1.1619,1.1619,1.1619,1.1619,1.1613,1.147,1.1246,1.0887,1.088,1.0731,1.0283,1.0731,1.0199,0.8905,0.8905,0.9435,1.029,1.0432,1.0412,1.0304,1.0595,1.0629,1.0507,1.0656,1.0717,1.0717,1.0717,1.0717,1.0717,1.0717,1.0717,1.0717,1.0717,1.0819,1.088,1.088,1.088,1.0934,1.1301,1.128,1.1226,1.1531,1.1504,1.1423,1.1579,1.1613,1.1613,1.1613,1.1497,1.1307,1.0941,1.088,1.0833,1.0744,1.0724,1.0819,1.1111,0.0,0.0,1.1179,1.0765,1.0649,1.1097,1.1214,1.0968,1.0521,1.0751,0.0,0.0,0.9815,0.9849,0.9408,1.008,1.0487,1.0493,1.0636,0.0,1.1227,1.0867,1.0717,1.0717,1.0717,1.0717,1.0717,1.0717,1.0717,1.0717,1.0717,1.0717,1.0717,1.0717,1.0717,1.0717,1.0717,1.0717,1.0717,1.0717,1.0717,1.0717,1.4667,1.4482,1.4244,1.3401,1.3158,1.2914,1.2206,1.2275,1.2346,1.233,1.2163,1.2209,1.2402,1.1907,1.1619,1.1619,1.1619,1.1619,1.1619,1.1619,1.1619,1.1619,1.147,1.1348,1.1253,1.105,1.0813,1.0738,0.0,0.0,0.0,1.0202,1.0304,1.0582,1.0629,1.0561,1.0439,1.0636,1.0629,1.0507,1.0656,1.0717,1.0717,1.0717,1.0717,1.0717,1.0717,1.0717,1.0738,1.0839,1.084,1.0914,1.1185,1.1179,1.1131,1.1335,1.1355,1.1362,1.1565,1.1504,1.143,1.1579,1.1538,1.1491,1.1592,1.1504,1.1335,1.1138,1.1016,1.0833,1.0751,1.0717,1.0751,1.0846,1.0785,0.0,1.0846,1.0649,1.0548,1.069,1.0527,1.0304,0.0,1.031,0.0,0.0,1.0833,1.0744,0.9883,0.9997,0.0,0.0,1.0555,0.0,1.1158,1.0867,1.0717,1.0717,1.0717,1.0717,1.0717,1.0717,1.0717,1.0717,1.0717,1.0717,1.0717,1.0717,1.0717,1.0717,1.0717,1.0717,1.0717,1.0717,1.0717,1.0717,1.4511,1.4244,1.4068,1.357,1.3339,1.298,1.2222,1.2321,1.2406,1.2131,1.2136,1.2122,1.1979,1.1763,0.0,1.1619,1.1619,1.1619,1.1619,1.1619,1.1619,1.1619,1.1531,1.145,1.1396,1.1206,0.0,1.088,1.088,1.088,1.088,1.0786,1.0772,1.0724,1.0778,1.0751,1.067,1.0826,1.0799,1.067,1.0765,1.0772,1.0717,1.0717,1.0717,1.0724,1.0785,1.0806,1.0826,1.0982,1.107,1.1145,1.1335,1.1362,1.1355,1.145,1.1477,1.1497,1.1592,1.1552,1.1497,1.1592,1.1545,1.1504,1.1599,1.1545,1.1436,1.128,1.1131,1.0982,1.0833,1.0758,1.0717,1.0717,1.0717,1.0717,1.0717,1.0636,1.0643,1.0812,0.0,0.0,0.0,1.05,1.0595,0.0,0.0,1.0833,1.0175,0.0,1.0541,1.069,1.0426,0.0,1.0907,1.0785,1.0717,1.0717,1.0717,1.0717,1.0717,1.0717,1.0717,1.0717,1.0717,1.0717,1.0717,1.0717,1.0717,1.0717,1.0717,1.0717,1.0717,1.0717,1.0717,1.0717,1.7065,1.6605,1.602,1.4939,1.4726,1.422,1.26,1.2564,1.2513,1.1829,1.2023,1.2065,1.1633,1.1626,1.1619,1.1619,0.0,0.0,1.1619,1.1619,1.1619,1.1619,1.1619,1.1552,1.1409,1.1396,1.1253,1.0894,1.0894,1.0894,1.0894,1.0894,1.082,1.0758,1.09,1.0894,1.09,1.1104,1.1084,1.0894,1.0887,1.086,1.0731,1.0724,1.0717,1.0738,1.0826,1.088,1.09,1.1124,1.1274,1.1396,1.1402,1.1504,1.1619,1.1619,1.1619,1.1619,1.1619,1.1619,1.1619,1.1619,1.1619,1.1619,1.1619,1.1619,1.1572,1.1423,1.1267,1.1118,1.0907,1.0759,1.0717,1.0717,1.0717,1.0717,1.0717,1.0717,1.0873,1.1294,0.0,0.0,0.0,1.1111,1.0961,0.0,0.0,1.0351,1.0371,0.0,1.0894,1.0297,1.029,1.0358,1.0487,1.0643,1.0717,1.0717,1.0717,1.0717,1.0717,1.0717,1.0717,1.0717,1.0717,1.0717,1.0717,1.0717,1.0717,1.0717,1.0717,1.0717,1.0717,1.0717,1.0717,1.0717,0.0,0.0,1.4846,1.3538,1.3203,1.3076,1.2746,1.2495,1.2322,1.2309,1.2098,1.1855,1.1782,1.1687,1.1619,1.1619,1.1619,1.1619,1.1619,1.1619,1.1619,1.1619,1.1619,1.1599,1.1565,1.145,1.1301,1.1111,1.1111,1.1111,1.1111,1.1111,1.109,1.1056,1.1097,1.1111,1.1118,1.1151,1.1145,1.1104,1.0995,1.086,1.0813,1.0765,1.0717,1.0738,1.0826,1.088,1.0921,1.1246,1.1362,1.1409,1.1531,1.1592,1.1619,1.1619,1.1619,1.1619,1.1619,1.1619,1.1619,1.1619,1.1619,1.1619,1.1619,1.1619,1.1572,1.1423,1.1267,1.1118,1.0907,1.0759,1.0717,1.0717,1.0717,1.0717,1.0717,1.0717,1.0758,0.0,1.0778,1.069,1.0656,1.0555,1.067,0.0,0.0,1.1056,1.1287,1.1212,1.0894,1.0297,1.0385,1.046,1.0493,1.0643,1.0717,1.0717,1.0717,1.0717,1.0717,1.0717,1.0717,1.0717,1.0717,1.0717,1.0717,1.0717,1.0717,1.0717,1.0717,1.0717,1.0717,1.0717,1.0717,1.0717,1.6292,1.6176,1.5783,1.4339,1.4094,1.3908,1.3266,1.3011,1.283,1.2773,1.2405,1.2086,1.1938,1.1803,1.1714,1.1714,1.1653,1.1619,1.1619,1.1619,1.1619,1.1619,1.1619,1.1619,1.1619,1.1538,1.1457,1.1369,1.1369,1.1335,1.1267,1.1267,1.1267,1.1267,1.1267,1.1307,1.1369,1.1369,1.1335,1.126,1.1185,1.1111,1.1036,1.0955,1.0921,1.0941,1.1097,1.1151,1.1185,1.1416,1.1497,1.1511,1.1592,1.1619,1.1619,1.1619,1.1619,1.1619,1.1619,1.1619,1.1619,1.1619,1.1619,1.1619,1.1619,1.1619,1.1599,1.1511,1.1314,1.1138,1.1063,1.0867,1.0717,1.0717,1.0717,1.0717,1.0717,1.0717,1.0717,1.0717,1.0649,1.0595,1.0595,1.0527,1.0649,1.1056,1.1009,0.0,1.1199,1.105,1.0812,1.0493,1.0487,1.0527,1.0595,1.0677,1.0717,1.0717,1.0717,1.0717,1.0717,1.0717,1.0717,1.0717,1.0717,1.0717,1.0717,1.0717,1.0717,1.0717,1.0717,1.0717,1.0717,1.0717,1.0717,1.0717,1.8038,1.8006,1.7747,1.6205,1.6137,1.5895,1.4552,1.4377,1.418,1.3618,1.3208,1.2835,1.2244,1.2033,1.1864,1.1864,1.1735,1.164,1.1619,1.1619,1.1619,1.1619,1.1619,1.1619,1.1619,1.1619,1.1619,1.1619,1.1619,1.1552,1.1423,1.1423,1.1423,1.1423,1.1423,1.1497,1.1619,1.1619,1.1545,1.1423,1.1402,1.1314,1.1261,1.1241,1.1234,1.1255,1.1335,1.1389,1.1416,1.1565,1.1619,1.1619,1.1619,1.1619,1.1619,1.1619,1.1619,1.1619,1.1619,1.1619,1.1619,1.1619,1.1619,1.1619,1.1619,1.1619,1.1619,1.1619,1.1375,1.1234,1.1234,1.0921,1.0758,1.0867,1.0792,1.0758,1.0873,1.0792,1.0717,1.0717,1.0717,1.0717,1.0717,1.0717,1.0717,1.0717,1.0717,1.0717,1.0717,1.0717,1.0717,1.0717,1.0595,1.0588,1.0717,1.0717,1.0717,1.0717,1.0717,1.0717,1.0717,1.0717,1.0717,1.0717,1.0717,1.0717,1.0717,1.0717,1.0717,1.0717,1.0717,1.0717,1.0717,1.0717,1.0717,1.0717,1.9772,1.953,1.9154,1.7747,1.7908,1.8121,1.8028,1.801,1.7624,1.6388,1.5462,1.4326,1.2917,1.2339,1.2026,1.2026,1.1884,1.1748,1.1626,1.1619,1.1619,1.1619,1.1619,1.1619,1.1619,1.1619,1.1619,1.1619,1.1619,1.1606,1.1586,1.1586,1.1586,1.1586,1.1586,1.1599,1.1619,1.1619,1.1606,1.1572,1.1443,1.1375,1.1341,1.1212,1.1234,1.1255,1.1335,1.1389,1.1416,1.1565,1.1619,1.1619,1.1619,1.1619,1.1619,1.1619,1.1619,1.1619,1.1619,1.1619,1.1619,1.1619,1.1619,1.1619,1.1619,1.1619,1.1619,1.1619,1.1375,1.1234,1.1234,1.0921,1.0928,1.1558,1.1131,1.0941,1.1572,1.1118,1.0717,1.0717,1.0717,1.0717,1.0717,1.0717,1.0717,1.0717,1.0717,1.0717,1.0717,1.0717,1.0717,1.0717,1.0697,1.0697,1.0717,1.0717,1.0717,1.0717,1.0717,1.0717,1.0717,1.0717,1.0717,1.0717,1.0717,1.0717,1.0717,1.0717,1.0717,1.0717,1.0717,1.0717,1.0717,1.0717,1.0717,1.0717,2.1404,2.1385,2.1132,1.9829,1.9888,1.9855,1.9297,1.9107,1.8847,1.8204,1.7511,1.6464,1.4822,1.4132,1.3439,1.2627,1.2189,1.1891,1.1742,1.166,1.1619,1.1619,1.1619,1.1619,1.1619,1.1619,1.1619,1.1619,1.1619,1.1619,1.1619,1.1619,1.1619,1.1619,1.1619,1.1619,1.1619,1.1619,1.166,1.1721,1.1572,1.1558,1.1613,1.1463,1.1409,1.1416,1.1491,1.1511,1.1525,1.1592,1.1619,1.1619,1.1619,1.1619,1.1619,1.1619,1.1619,1.1619,1.1619,1.1619,1.1619,1.1619,1.1619,1.1619,1.1619,1.1619,1.1619,1.1619,1.1443,1.126,1.1179,1.0989,1.0928,1.1192,1.0941,1.0839,1.1185,1.0934,1.0717,1.0717,1.0717,1.0717,1.0717,1.0717,1.0717,1.0717,1.0717,1.0717,1.0717,1.0717,1.0717,1.0717,1.0717,1.0717,1.0717,1.0717,1.0717,1.0717,1.0717,1.0717,1.0717,1.0717,1.0717,1.0717,1.0717,1.0717,1.0717,1.0717,1.0717,1.0717,1.0717,1.0717,1.0717,1.0717,1.0717,1.0717,2.2632,2.2873,2.2793,2.1878,2.1855,2.1667,2.075,2.0545,2.0327,1.9951,1.9564,1.8648,1.7074,1.6322,1.5253,1.3687,1.3018,1.2494,1.1891,1.1748,1.1653,1.1619,1.1619,1.1619,1.1619,1.1619,1.1619,1.1619,1.1619,1.1619,1.1619,1.1619,1.1619,1.1619,1.1619,1.164,1.1667,1.1633,1.1721,1.187,1.1728,1.1755,1.187,1.1721,1.1667,1.166,1.1633,1.1619,1.1619,1.1619,1.1619,1.1619,1.1619,1.1619,1.1619,1.1619,1.1619,1.1619,1.1619,1.1619,1.1619,1.1619,1.1619,1.1619,1.1619,1.1619,1.1619,1.1619,1.1497,1.1355,1.124,1.107,1.09,1.1023,1.0853,1.0778,1.0955,1.0833,1.0717,1.0717,1.0717,1.0717,1.0717,1.0717,1.0717,1.0717,1.0717,1.0717,1.0717,1.0717,1.0717,1.0717,1.0717,1.0717,1.0717,1.0717,1.0717,1.0717,1.0717,1.0717,1.0717,1.0717,1.0717,1.0717,1.0717,1.0717,1.0717,1.0717,1.0717,1.0717,1.0717,1.0717,1.0717,1.0717,1.0697,1.067,2.326,2.35,2.3714,2.3585,2.3824,2.3951,2.3905,2.4069,2.3661,2.2148,2.1601,2.0767,1.9111,1.826,1.7113,1.5446,1.4841,1.3845,1.2203,1.1898,1.1755,1.1626,1.1619,1.1619,1.1619,1.1619,1.1619,1.1619,1.1619,1.1619,1.1619,1.1619,1.1619,1.1619,1.1619,1.1694,1.1809,1.1674,1.1782,1.2033,1.1877,1.1904,1.2026,1.187,1.1816,1.1796,1.1667,1.1619,1.1619,1.1619,1.1619,1.1619,1.1619,1.1619,1.1619,1.1619,1.1619,1.1619,1.1619,1.1619,1.1619,1.1619,1.1619,1.1619,1.1619,1.1619,1.1619,1.1619,1.1497,1.1389,1.1375,1.1145,1.1172,1.185,1.1267,1.0962,1.1653,1.1158,1.0717,1.0717,1.0717,1.0717,1.0717,1.0717,1.0717,1.0717,1.0717,1.0717,1.0717,1.0717,1.0717,1.0717,1.0717,1.0717,1.0717,1.0717,1.0717,1.0717,1.0717,1.0717,1.0717,1.0717,1.0717,1.0717,1.0717,1.0717,1.0717,1.0717,1.0717,1.0717,1.0717,1.0717,1.0717,1.0717,1.0629,1.0507,2.3527,2.3541,2.3607,2.3981,2.4128,2.4262,2.4449,2.4569,2.4414,2.3809,2.3574,2.2819,2.1239,2.0553,1.9564,1.7976,1.6469,1.5219,1.4129,1.3014,1.2164,1.1633,1.1619,1.1619,1.1619,1.1619,1.1619,1.1619,1.1619,1.1619,1.1619,1.1619,1.1619,1.1619,1.1619,1.1701,1.183,1.1775,1.1925,1.2189,1.2033,1.2067,1.2189,1.2033,1.1911,1.1823,1.1769,1.1694,1.1619,1.1619,1.1619,1.1619,1.1619,1.1619,1.1619,1.1619,1.1619,1.1619,1.1619,1.1619,1.1619,1.1619,1.1619,1.1619,1.1619,1.1619,1.1619,1.1619,1.1572,1.1504,1.1409,1.1219,1.1145,1.1341,1.1009,1.0819,1.1104,1.09,1.0717,1.0717,1.0717,1.0717,1.0717,1.0717,1.0717,1.0717,1.0717,1.0717,1.0717,1.0717,1.0717,1.0717,1.0717,1.0717,1.0717,1.0717,1.0717,1.0717,1.0717,1.0717,1.0717,1.0717,1.0717,1.0717,1.0717,1.0717,1.0717,1.0717,1.0717,1.0717,1.0717,1.0717,1.0717,1.0717,1.0622,1.0493,2.3688,2.3754,2.3861,2.4262,2.4342,2.4409,2.4609,2.4636,2.4636,2.4636,2.4636,2.4179,2.3054,2.2595,2.1676,2.0091,1.8582,1.7275,1.631,1.4456,1.2824,1.1626,1.1619,1.1619,1.1619,1.2043,1.2323,1.2323,1.2824,1.2753,1.2323,1.2323,1.2043,1.1619,1.1619,1.1728,1.1898,1.185,1.2033,1.2345,1.2196,1.2223,1.2338,1.2189,1.204,1.1898,1.185,1.1742,1.1619,1.1619,1.1619,1.1619,1.1619,1.1619,1.1619,1.1619,1.1619,1.1619,1.1619,1.1619,1.1619,1.1619,1.1619,1.1619,1.1619,1.1619,1.1619,1.1619,1.1619,1.1586,1.1484,1.1341,1.1206,1.1104,1.0962,1.0846,1.0799,1.0792,1.0772,1.0724,1.0717,1.0717,1.0717,1.0717,1.0717,1.0717,1.0717,1.0717,1.0717,1.0717,1.0717,1.0717,1.0717,1.0717,1.0717,1.0717,1.0717,1.0717,1.0717,1.0717,1.0717,1.0717,1.0717,1.0717,1.0717,1.0717,1.0717,1.0717,1.0717,1.0717,1.0717,1.0717,1.0717,1.0717,1.0595,1.0426,2.3781,2.4235,2.4636,2.4636,2.4636,2.4636,2.4636,2.4636,2.4636,2.4636,2.4636,2.4636,2.4636,2.4267,2.3351,2.1751,2.1227,2.0217,1.8387,1.615,1.3914,1.177,1.1619,1.1619,1.1619,1.3103,1.388,1.388,1.5354,1.5354,1.3951,1.3951,1.3103,1.1619,1.1619,1.1782,1.2128,1.1898,1.2094,1.2488,1.2345,1.2379,1.2488,1.2345,1.2196,1.204,1.1884,1.1742,1.1619,1.1619,1.1619,1.1619,1.1619,1.1619,1.1619,1.1619,1.1619,1.1619,1.1619,1.1619,1.1619,1.1619,1.1619,1.1619,1.1619,1.1619,1.1619,1.1619,1.1619,1.1619,1.1619,1.1497,1.1389,1.1389,1.126,1.1111,1.09,1.088,1.0826,1.0738,1.0717,1.0717,1.0717,1.0717,1.0717,1.0717,1.0717,1.0717,1.0717,1.0717,1.0717,1.0717,1.0717,1.0717,1.0717,1.0717,1.0717,1.0717,1.0717,1.0717,1.0717,1.0717,1.0717,1.0717,1.0717,1.0717,1.0717,1.0717,1.0717,1.0717,1.0717,1.0717,1.0717,1.0717,1.0534,1.0283,2.4302,2.4356,2.4396,2.4596,2.4636,2.4636,2.4636,2.4636,2.4636,2.4636,2.4636,2.4636,2.4636,2.4488,2.4253,2.3722,2.2595,2.0894,1.8623,1.7302,1.6211,1.5221,1.2888,1.2115,1.3174,1.261,1.2824,1.388,1.4378,1.4867,1.5425,1.5425,1.5212,1.4733,1.3802,1.3475,1.3609,1.2571,1.2291,1.2501,1.2454,1.2467,1.2494,1.2454,1.2284,1.2054,1.2013,1.183,1.1619,1.1619,1.1619,1.1763,1.2896,1.3174,1.3389,1.4441,1.4796,1.4796,1.507,1.5212,1.4574,1.2187,1.1619,1.1619,1.1619,1.1619,1.1619,1.1619,1.1619,1.1619,1.1619,1.1497,1.1389,1.1389,1.126,1.1111,1.09,1.088,1.0826,1.0738,1.0717,1.0717,1.0717,1.0717,1.0717,1.0717,1.0717,1.0717,1.0717,1.0717,1.0717,1.0717,1.0717,1.0717,1.0717,1.0717,1.0717,1.0717,1.0717,1.0717,1.0717,1.0717,1.0717,1.0717,1.0717,1.0717,1.0717,1.0717,1.0717,1.0717,1.0717,1.0717,1.0711,1.0602,1.0439,1.0263,2.4396,2.4422,2.4436,2.4609,2.4636,2.4636,2.4636,2.4636,2.4636,2.4636,2.4636,2.4636,2.4636,2.4636,2.4636,2.4636,2.3735,2.2177,1.9826,1.9122,1.8547,1.7955,1.5177,1.3737,1.388,1.4164,1.4449,1.4796,1.5999,1.6705,1.6987,1.7147,1.6822,1.6202,1.4826,1.4719,1.5331,1.322,1.2748,1.3421,1.2733,1.2501,1.2501,1.2501,1.2359,1.2142,1.2081,1.1904,1.1694,1.164,1.1619,1.19,1.3389,1.388,1.4164,1.5637,1.6131,1.6202,1.6615,1.6685,1.6263,1.4298,1.3389,1.2753,1.1979,1.1979,1.2043,1.1835,1.1835,1.1907,1.2043,1.1895,1.1768,1.1903,1.1889,1.1706,1.1351,1.1275,1.1111,1.0826,1.0758,1.0717,1.0717,1.0717,1.0717,1.0717,1.0717,1.0717,1.0717,1.0717,1.0717,1.0717,1.0717,1.0717,1.0717,1.0717,1.0717,1.0717,1.0717,1.0717,1.0717,1.0717,1.0717,1.0717,1.0717,1.0717,1.0717,1.0717,1.0717,1.0717,1.0717,1.0683,1.0616,1.0527,1.0405,1.0263,2.4249,2.4449,2.4636,2.4636,2.4636,2.4636,2.4636,2.4636,2.4636,2.4636,2.4636,2.4636,2.4636,2.4636,2.4636,2.4636,2.4636,2.3754,2.1739,2.133,2.0852,2.0167,1.8216,1.6263,1.4441,1.6916,1.7619,1.6343,1.9111,1.9831,1.8654,1.8872,1.8267,1.686,1.5527,1.586,1.7216,1.4104,1.374,1.5089,1.3645,1.3035,1.3035,1.3035,1.2943,1.2788,1.2632,1.2469,1.2313,1.1949,1.1828,1.2115,1.346,1.4022,1.4441,1.5919,1.6484,1.6625,1.7107,1.7178,1.7178,1.7458,1.6484,1.5008,1.3111,1.2824,1.2896,1.2545,1.2338,1.2402,1.2753,1.2474,1.2402,1.2753,1.2824,1.2701,1.2326,1.1956,1.1592,1.1233,1.0879,1.0717,1.0717,1.0717,1.0717,1.0717,1.0717,1.0717,1.0717,1.0717,1.0717,1.0717,1.0717,1.0717,1.0717,1.0717,1.0717,1.0717,1.0717,1.0717,1.0717,1.0717,1.0717,1.0717,1.0717,1.0717,1.0717,1.0717,1.0717,1.0717,1.0717,1.0636,1.0514,1.0493,1.0412,1.0297,2.4543,2.4596,2.4636,2.4636,2.4636,2.4636,2.4636,2.4636,2.4636,2.4636,2.4636,2.4636,2.4636,2.4636,2.4636,2.4636,2.4636,2.4282,2.3627,2.3053,2.2543,2.2179,2.1192,1.9924,1.8309,1.7188,1.7198,1.839,1.8762,1.9422,2.0544,2.0604,2.052,2.037,1.899,1.8737,1.9319,1.7538,1.717,1.7739,1.7436,1.7284,1.7284,1.7284,1.7152,1.6945,1.6738,1.6531,1.6118,1.4357,1.38,1.38,1.388,1.4929,1.6404,1.79,1.917,2.0213,2.0906,2.0906,2.056,1.9993,1.9646,1.8798,1.6625,1.5283,1.4512,1.4378,1.346,1.2681,1.2753,1.2753,1.2681,1.2824,1.2824,1.312,1.4047,1.2774,1.2057,1.3025,1.1733,1.0717,1.0717,1.0717,1.0717,1.0717,1.0717,1.0717,1.0717,1.0717,1.0717,1.0717,1.0717,1.0717,1.0717,1.0717,1.0717,1.0717,1.0717,1.0717,1.0717,1.0717,1.0717,1.0717,1.0717,1.0717,1.0717,1.0717,1.0717,1.0717,1.0717,1.0697,1.0656,1.0534,1.0473,1.0432,2.4636,2.4636,2.4636,2.4636,2.4636,2.4636,2.4636,2.4636,2.4636,2.4636,2.4636,2.4636,2.4636,2.4636,2.4636,2.4636,2.4636,2.4569,2.4422,2.3792,2.3417,2.3245,2.2475,2.1747,2.1113,1.9646,1.8949,1.9228,1.9727,2.0577,2.1616,2.1753,2.1976,2.2176,2.0791,2.0671,2.1511,1.921,1.8874,1.9715,1.8874,1.8572,1.8572,1.8572,1.8491,1.8435,1.8211,1.7927,1.748,1.6197,1.5283,1.4929,1.6202,1.6766,1.7458,1.9657,2.0849,2.1622,2.2173,2.2173,2.1966,2.1747,2.1678,2.0975,1.8159,1.7037,1.6554,1.6404,1.5707,1.5008,1.4449,1.4236,1.3959,1.3396,1.3325,1.3508,1.4032,1.3584,1.3175,1.3086,1.2445,1.163,1.0784,1.0717,1.0717,1.0717,1.0717,1.0717,1.0717,1.0717,1.0717,1.0717,1.0717,1.0717,1.0717,1.0717,1.0717,1.0717,1.0717,1.0717,1.0717,1.0717,1.0717,1.0717,1.0717,1.0717,1.0717,1.0717,1.0717,1.0717,1.0717,1.0677,1.0602,1.0521,1.0493,1.0493,2.4636,2.4636,2.4636,2.4636,2.4636,2.4636,2.4636,2.4636,2.4636,2.4636,2.4636,2.4636,2.4636,2.4636,2.4636,2.4636,2.4636,2.4636,2.4636,2.4088,2.3768,2.3768,2.2902,2.2585,2.2859,2.2362,2.1383,1.9993,2.1244,2.1976,2.2256,2.2548,2.2841,2.3034,2.1903,2.2223,2.3364,2.0692,2.0316,2.1527,2.0166,1.9629,1.9629,1.9629,1.9629,1.9596,1.9351,1.905,1.856,1.7934,1.6936,1.6272,1.8449,1.8519,1.8239,2.0768,2.1691,2.1966,2.231,2.2379,2.2379,2.2791,2.2928,2.216,1.9345,1.8729,1.8659,1.8369,1.8089,1.7599,1.6635,1.6291,1.5655,1.4466,1.4252,1.4181,1.3825,1.4501,1.4541,1.3291,1.3294,1.2808,1.1372,1.0982,1.0784,1.0784,1.0717,1.0717,1.0717,1.0717,1.0717,1.0717,1.0717,1.0717,1.0717,1.0717,1.0717,1.0717,1.0717,1.0717,1.0717,1.0717,1.0717,1.0717,1.0717,1.0717,1.0724,1.0751,1.0744,1.0724,1.0751,1.0663,1.0527,1.0527,1.0527,1.0548,2.4636,2.4636,2.4636,2.4636,2.4636,2.4636,2.4636,2.4636,2.4636,2.4636,2.4636,2.4636,2.4636,2.4636,2.4636,2.4636,2.4636,2.4636,2.4636,2.4088,2.3768,2.3768,2.318,2.2859,2.2928,2.3057,2.271,2.1885,2.2071,2.2268,2.2561,2.2841,2.312,2.3313,2.3129,2.3364,2.3883,2.3426,2.3574,2.4105,2.387,2.3796,2.3796,2.3796,2.3796,2.3758,2.3473,2.3021,2.2307,2.0615,1.9748,1.9217,1.7889,1.8519,1.9773,2.0201,2.1252,2.231,2.2722,2.2585,2.2379,2.2791,2.2928,2.2791,2.2297,2.1252,2.0283,2.0201,1.9217,1.8239,1.81,1.803,1.7549,1.6009,1.5797,1.5797,1.5726,1.5523,1.5647,1.6418,1.4883,1.3652,1.339,1.2033,1.1115,1.1115,1.085,1.0717,1.0717,1.0717,1.0717,1.0717,1.0717,1.0717,1.0717,1.0717,1.0717,1.0717,1.0717,1.0717,1.0717,1.0717,1.0717,1.0717,1.0717,1.0717,1.0731,1.086,1.0772,1.0731,1.0799,1.0759,1.069,1.069,1.069,1.069,2.4636,2.4636,2.4636,2.4636,2.4636,2.4636,2.4636,2.4636,2.4636,2.4636,2.4636,2.4636,2.4636,2.4636,2.4636,2.4636,2.4636,2.4636,2.4636,2.4088,2.3768,2.3768,2.3354,2.3126,2.3126,2.342,2.343,2.3157,2.3077,2.3216,2.3504,2.3635,2.3844,2.4044,2.4044,2.4193,2.4341,2.4341,2.4414,2.4636,2.4636,2.4636,2.4636,2.4636,2.4636,2.4596,2.4302,2.4035,2.3612,2.2493,2.1447,2.0613,2.0457,2.0409,2.0548,2.139,2.216,2.2654,2.2859,2.2791,2.2654,2.2859,2.2928,2.2928,2.2928,2.2366,2.1885,2.1885,2.139,2.0617,1.9785,1.9646,1.9158,1.7619,1.7409,1.7057,1.6221,1.7215,1.8099,1.8183,1.6443,1.4884,1.3914,1.307,1.2223,1.1247,1.1049,1.0916,1.0717,1.0717,1.0717,1.0717,1.0717,1.0717,1.0717,1.0717,1.0717,1.0717,1.0717,1.0717,1.0717,1.0717,1.0717,1.0717,1.0717,1.067,1.0602,1.0758,1.0731,1.0609,1.0758,1.0778,1.0717,1.0717,1.0717,1.0717]}]]